GFSMA_250_rhum_000.txt.gz
RH
73 91 98 100 100 100 90 98 80 72 70 66 76 60 60 56 34 35 35 32 32 33 34 36 37 39 41 42 40 36 34 34 38 42 44 46 49 54 60 68 68 75 85
98 100 96 100 100 94 96 87 76 86 73 63 66 57 59 60 35 33 34 33 32 33 36 42 43 42 41 40 41 43 43 43 45 46 47 47 48 48 51 57 64 64 70
67 78 92 93 100 89 83 91 88 72 69 57 83 67 64 51 32 30 33 35 35 36 38 45 47 49 51 51 50 49 45 44 43 41 42 43 43 47 47 48 50 53 58
71 85 81 86 93 85 81 74 63 56 58 80 80 79 70 45 34 28 30 33 37 38 37 41 42 49 57 59 54 52 47 42 40 41 40 41 38 35 38 43 46 48 53
57 70 70 68 61 58 49 52 59 72 85 79 74 63 58 53 37 32 30 33 37 40 45 51 55 51 44 42 42 41 42 44 39 38 38 39 43 46 50 59 67 74 77
46 50 49 42 45 58 67 74 86 76 69 61 59 47 40 38 41 42 45 42 41 39 40 38 36 38 41 40 39 37 40 45 56 61 67 72 77 83 92 95 89 85 82
37 44 50 55 65 92 91 73 62 57 42 37 43 49 50 51 54 51 55 52 49 52 47 41 38 37 36 43 54 62 63 66 71 76 81 82 82 79 84 91 96 92 93
71 84 92 95 92 80 75 64 44 48 49 45 43 44 54 83 72 61 61 62 60 62 56 57 59 61 60 59 60 63 68 73 71 70 69 72 73 72 83 98 88 89 80
83 85 84 75 70 65 53 46 54 54 59 66 57 41 39 43 46 58 70 65 59 58 63 70 73 81 83 76 68 70 64 56 56 58 59 58 53 57 57 52 51 56 63
60 61 61 65 65 54 57 66 64 60 56 48 53 62 60 47 40 41 44 46 57 66 77 82 89 82 73 66 58 58 62 63 52 44 42 38 40 45 43 42 49 54 60
41 46 53 58 59 66 68 61 57 56 58 67 68 70 72 74 67 45 40 39 50 52 53 48 40 38 40 38 37 37 36 35 39 37 35 37 39 40 41 46 54 59 63
50 55 58 61 64 64 66 72 77 79 78 73 68 63 58 53 55 60 52 40 34 35 34 37 38 37 39 38 38 39 39 40 40 43 42 43 44 52 60 64 57 60 52
61 63 64 70 80 89 88 86 82 78 74 73 70 68 67 58 44 40 36 35 37 42 42 44 42 39 36 36 37 32 34 34 34 32 32 38 41 41 46 57 55 49 54
63 74 87 98 95 88 79 70 72 76 73 69 62 51 46 42 38 36 34 32 29 25 24 28 28 26 20 21 20 19 22 22 19 21 24 26 32 38 40 50 62 74 80
99 100 100 95 81 69 69 68 59 59 59 52 47 44 40 38 36 32 30 26 22 14 14 23 18 19 10 7 7 8 8 7 8 8 9 10 9 11 16 15 16 26 37
100 99 85 78 78 69 57 56 57 53 49 48 44 39 36 34 32 37 40 36 26 19 13 13 6 5 5 4 4 5 5 4 5 6 5 5 6 6 7 9 10 10 13
92 78 71 72 65 61 60 53 51 50 46 41 37 37 36 33 36 40 31 29 25 17 11 5 3 4 4 3 3 3 2 2 3 3 3 3 3 4 4 5 6 7 9
80 84 66 66 67 59 53 50 48 40 40 40 39 39 35 37 38 32 29 21 11 6 4 3 3 2 2 2 2 3 2 2 2 3 3 3 3 3 3 4 4 5 7
79 70 75 63 51 48 51 41 36 42 43 42 41 40 38 41 40 26 15 9 5 4 4 2 2 2 2 2 2 2 3 2 2 3 2 2 2 2 3 3 4 4 5
80 71 54 46 53 46 32 41 44 44 43 45 49 52 43 32 18 12 7 4 4 4 2 2 2 2 2 2 2 2 2 2 2 2 2 2 2 3 3 3 3 4 4
56 50 50 50 34 35 44 44 47 45 51 55 49 38 21 13 8 6 4 5 4 2 2 2 2 2 2 2 2 2 2 2 2 2 2 2 3 2 3 4 4 4 4
50 50 36 33 45 46 48 48 50 56 56 45 26 18 11 7 4 4 5 4 3 2 2 2 2 2 2 2 2 2 2 2 2 2 2 3 2 3 3 3 4 5 5
37 36 41 43 47 51 51 55 60 57 43 22 15 10 6 4 4 5 4 4 3 2 2 2 2 2 1 1 2 2 2 2 2 2 2 3 2 3 3 4 5 6 6
41 41 46 53 56 54 60 60 58 41 23 14 9 6 4 4 4 4 4 4 3 3 2 1 2 2 1 1 2 2 2 2 2 2 2 3 3 3 4 4 5 6 7
48 48 57 58 62 63 60 56 36 20 13 10 7 5 4 4 3 3 4 4 3 2 2 2 2 2 2 2 2 3 3 3 2 2 3 3 3 4 4 5 6 8 9
50 58 64 63 59 60 52 28 17 12 10 7 5 4 4 3 3 4 4 3 2 3 3 2 2 2 3 3 3 3 3 3 3 3 4 4 4 5 5 6 7 10 11

GFSMA_250_rhum_003.txt.gz
RH
11 16 20 28 73 81 96 100 100 100 100 99 90 58 69 54 82 62 76 68 63 46 32 34 35 33 34 35 36 38 40 44 44 43 46 48 50 52 54 53 52 52 53
13 18 26 42 69 85 90 94 98 100 98 100 69 70 72 84 67 58 85 79 70 56 37 29 33 36 36 34 36 38 44 50 52 55 59 62 61 59 57 53 52 50 51
15 20 27 49 82 100 100 100 90 82 78 69 66 76 74 62 55 66 80 74 66 64 50 31 24 28 30 33 36 37 40 45 49 54 57 57 56 54 49 49 50 54 52
17 20 29 54 66 87 75 76 77 80 82 81 80 66 60 72 88 87 70 56 57 45 42 43 38 34 31 32 35 41 47 48 49 49 48 47 51 50 52 50 48 51 51
23 21 24 38 51 47 54 52 48 54 56 55 55 67 86 96 78 67 54 49 47 54 60 65 72 77 72 57 44 47 50 54 50 49 53 54 48 44 43 51 57 57 58
31 25 27 30 35 47 49 49 47 52 62 72 90 98 78 66 47 49 58 58 62 66 62 70 69 67 75 83 71 57 43 42 50 59 58 57 61 62 55 53 56 66 74
42 38 36 36 40 44 48 60 76 89 95 82 75 70 54 46 60 56 60 68 68 69 73 72 68 64 70 61 51 54 63 53 44 44 50 53 48 51 55 60 69 73 76
52 55 60 64 68 74 84 94 93 91 83 67 54 44 48 69 65 64 64 64 66 69 75 69 58 56 44 43 42 42 41 40 42 41 45 51 54 54 54 52 47 50 51
43 58 65 69 73 72 62 57 59 58 62 62 56 56 53 55 58 68 85 95 86 70 66 76 75 78 77 73 69 62 55 48 42 38 37 37 37 37 40 43 44 44 46
32 33 37 42 41 42 46 47 49 57 65 74 78 74 62 56 53 56 60 61 64 66 64 62 63 66 64 60 48 40 38 37 38 38 39 39 40 40 42 48 50 54 52
41 41 42 42 43 45 50 57 64 69 60 56 59 66 69 66 66 63 54 47 50 53 58 58 50 45 43 40 40 38 38 40 40 41 42 42 44 41 40 42 48 61 49
75 70 67 66 65 61 59 58 59 64 66 75 81 79 74 66 60 53 51 58 56 48 46 46 44 43 42 40 39 38 36 37 37 34 31 30 31 31 34 36 42 46 49
27 34 46 66 90 97 92 89 95 98 95 84 69 66 73 66 64 61 49 46 44 44 42 45 45 39 35 29 26 23 21 22 24 28 30 29 24 22 22 26 28 32 43
29 30 30 33 42 56 80 90 93 92 79 68 64 71 65 63 52 46 46 38 36 37 41 42 38 36 25 22 22 22 22 19 17 19 13 7 5 5 7 6 7 9 13
27 29 32 33 46 68 72 75 80 80 80 78 74 67 51 49 49 42 42 44 41 34 30 35 30 35 27 20 12 8 7 7 6 4 4 4 4 4 4 4 5 6 8
30 33 36 47 67 87 92 86 82 76 77 68 56 50 51 42 41 46 45 41 36 30 23 28 23 17 11 7 5 4 4 4 4 4 4 4 3 3 3 4 4 5 6
36 42 54 72 92 93 86 80 73 72 59 52 47 42 41 46 50 44 38 36 33 29 20 15 10 8 5 4 4 4 3 3 2 2 2 2 2 2 2 2 3 3 4
46 59 87 100 100 85 80 82 67 56 49 40 40 46 51 48 39 38 37 32 23 18 10 7 5 4 4 4 3 2 2 2 2 2 2 2 2 2 2 2 2 2 3
65 97 97 80 84 85 66 54 50 42 40 47 50 49 43 38 36 31 25 20 14 11 7 4 4 3 2 2 2 2 2 2 2 2 2 2 2 2 2 2 2 2 3
89 89 85 87 72 52 54 46 38 44 48 48 43 40 35 33 28 25 21 13 9 6 4 4 3 2 2 2 2 2 2 2 2 2 1 2 1 1 1 2 2 2 3
94 88 72 58 53 51 35 40 45 45 43 42 38 38 32 28 24 15 9 7 5 5 4 3 2 2 3 2 2 2 1 1 1 1 1 2 2 1 1 2 2 2 3
74 70 52 56 38 35 39 43 42 49 47 43 38 31 26 19 11 7 6 5 5 5 3 2 2 3 3 2 1 1 1 2 2 1 1 2 2 2 2 2 2 3 4
53 51 45 32 35 40 44 46 46 47 43 36 30 22 15 9 6 5 5 5 6 4 2 2 2 2 2 2 2 2 2 1 1 1 1 2 2 2 2 2 3 4 4
50 36 33 37 43 49 50 52 50 41 36 28 22 12 8 6 4 5 5 5 5 4 3 2 2 2 2 2 2 2 2 2 2 2 2 3 2 2 2 2 3 4 5
34 33 39 46 52 53 53 52 41 32 28 18 10 7 6 5 5 5 4 4 4 4 3 2 2 2 3 3 2 2 3 3 3 3 3 3 2 2 3 3 4 5 5
36 40 52 53 56 61 50 38 31 23 13 8 7 6 5 4 5 4 4 3 4 3 3 2 2 3 3 2 3 4 4 4 4 4 4 3 3 3 3 4 5 5 5

GFSMA_250_rhum_006.txt.gz
RH
26 23 19 12 11 14 18 23 31 52 99 100 100 100 100 100 98 78 78 75 50 64 66 56 70 82 74 62 46 41 39 40 38 37 37 38 40 41 48 53 55 56 56
34 30 20 14 12 16 21 24 29 44 86 98 100 100 100 100 100 77 82 68 65 69 57 69 72 74 68 64 59 49 38 34 35 37 39 40 41 44 48 50 53 58 61
34 29 22 19 16 17 21 28 36 56 60 65 71 80 85 79 80 71 58 58 72 58 77 93 77 64 55 45 42 43 43 37 35 35 36 38 41 45 52 57 58 59 60
34 31 24 24 21 17 20 27 36 58 91 100 93 82 72 56 55 53 68 64 53 80 100 86 66 54 52 60 56 54 46 58 56 46 53 50 45 47 50 57 68 68 66
31 34 31 32 30 22 21 24 32 51 61 57 61 50 50 52 54 56 59 71 95 97 83 61 65 72 84 84 59 62 43 60 66 64 67 66 68 69 74 76 80 84 84
30 28 33 38 38 36 30 28 30 33 35 36 40 45 53 59 58 70 87 98 94 80 52 51 58 64 70 84 96 84 71 63 66 56 72 92 96 89 80 78 71 59 55
29 28 31 34 38 47 50 48 47 48 49 52 55 66 76 87 96 99 100 86 78 67 67 79 84 80 74 72 67 74 76 67 60 56 48 46 48 56 58 59 56 51 50
35 36 35 33 32 36 41 50 61 71 74 74 82 83 89 95 74 67 66 65 63 75 80 73 63 60 63 63 60 58 56 51 48 48 51 50 47 44 45 51 54 50 45
54 50 49 49 45 42 40 39 41 42 47 46 44 46 48 51 51 63 66 71 67 69 77 77 72 69 69 69 64 56 51 55 61 63 62 58 52 48 46 44 43 43 41
53 60 60 60 64 69 71 67 66 64 69 70 68 69 68 63 61 61 71 81 87 94 89 77 78 83 77 65 57 61 59 53 50 49 47 45 45 43 40 38 37 39 42
20 20 21 20 21 21 24 26 28 28 26 26 28 47 67 68 65 58 67 88 87 77 57 66 74 73 71 66 62 57 51 45 43 41 40 37 36 38 38 38 33 30 29
15 15 16 17 17 18 17 17 18 20 23 24 24 28 36 39 41 49 51 54 60 68 73 70 62 58 47 41 39 40 36 31 29 28 28 27 28 29 31 35 36 37 37
15 15 16 15 15 14 14 16 19 21 23 29 34 51 61 68 61 66 71 69 63 64 55 50 45 40 30 24 23 25 25 27 30 30 28 27 28 26 26 28 28 28 29
16 17 17 17 16 15 16 21 22 28 37 56 71 72 79 84 81 73 67 52 43 41 38 34 33 34 33 33 31 29 29 31 28 27 23 15 12 9 8 6 6 7 7
19 19 18 18 17 22 26 28 35 49 82 94 87 91 78 78 76 61 48 38 25 22 30 40 37 43 41 34 29 27 27 24 16 10 7 6 4 3 3 3 3 3 3
21 20 20 20 22 30 35 50 79 92 95 87 67 77 81 61 50 41 33 31 32 29 25 34 31 29 28 29 26 13 8 6 4 4 3 3 3 3 3 3 3 3 3
21 22 22 24 30 42 66 87 88 81 75 75 74 60 54 44 35 32 33 32 30 28 22 24 23 24 16 7 6 5 4 3 3 3 2 2 2 2 2 2 2 2 2
22 23 25 33 51 67 78 92 87 67 64 62 56 50 36 30 32 32 29 26 25 26 19 13 8 6 5 4 4 3 4 3 3 2 2 2 2 2 2 2 2 2 2
24 26 37 60 66 78 93 81 57 52 53 51 41 31 32 32 28 25 23 23 17 13 8 6 4 4 3 3 4 4 3 2 2 2 2 2 2 2 1 1 1 1 2
29 40 59 67 74 80 65 53 51 54 47 35 31 33 31 26 23 22 17 13 9 7 6 4 4 3 3 4 3 2 2 2 2 2 1 2 1 1 1 1 1 1 2
46 54 73 74 71 58 53 55 50 40 36 37 34 28 25 22 19 16 10 7 5 5 4 4 3 3 3 3 2 2 2 2 2 1 2 2 2 2 1 1 1 1 1
59 65 70 57 53 55 50 40 35 43 36 30 26 26 22 20 13 8 5 5 5 4 3 3 3 2 2 2 2 2 2 2 2 1 3 2 2 1 1 1 1 1 1
67 66 54 53 51 43 39 44 41 32 29 28 25 22 18 11 6 5 5 5 5 4 3 2 2 2 2 2 2 2 2 2 2 2 2 1 1 1 1 1 1 1 2
55 53 54 46 43 46 44 36 33 30 29 29 22 14 8 6 5 5 4 4 4 4 3 3 3 2 2 2 2 2 2 2 2 2 2 2 2 2 2 2 2 2 2
58 47 43 47 47 39 32 29 28 31 28 18 12 8 6 6 5 5 4 4 4 4 3 3 3 2 2 2 2 2 2 2 2 3 4 4 4 3 3 3 3 2 2
43 46 50 42 36 32 28 31 30 23 13 10 8 7 6 4 4 4 4 3 4 4 3 3 3 2 2 3 3 3 3 4 4 4 5 5 4 4 4 3 3 3 3

GFSMA_250_rhum_012.txt.gz
RH
20 21 29 40 69 69 55 42 37 29 29 26 21 16 12 14 19 25 23 33 73 94 100 100 100 100 100 100 100 100 95 83 79 62 71 64 59 66 75 81 80 76 70
20 26 39 70 74 56 36 27 24 25 31 27 26 23 17 15 16 19 25 26 34 56 85 93 94 100 100 100 100 92 85 81 83 70 65 65 60 65 86 86 76 63 56
27 38 72 82 65 32 27 25 25 29 31 31 32 34 30 20 19 17 18 21 29 35 59 93 86 92 82 74 80 84 83 72 75 75 74 68 62 69 84 83 76 56 53
57 73 81 74 54 48 33 29 27 28 29 28 28 32 36 40 34 24 23 22 19 21 31 64 82 86 90 75 66 55 60 55 47 50 56 59 64 85 97 86 77 56 58
78 96 88 86 79 67 52 43 40 38 38 36 34 31 29 34 39 45 46 42 38 34 31 30 33 38 42 47 53 48 43 44 46 49 55 65 87 100 100 96 80 57 54
97 100 97 84 73 70 66 57 51 47 50 49 48 48 47 44 39 36 36 42 48 57 61 63 64 62 61 62 64 70 74 76 76 76 79 75 69 72 74 88 93 77 70
87 95 85 66 61 57 50 46 44 38 31 33 36 39 37 39 45 48 49 50 49 48 46 45 46 48 51 53 52 54 60 64 62 64 70 64 62 66 67 72 75 74 74
47 45 47 40 31 21 17 16 16 15 14 15 15 16 17 16 17 18 18 18 19 21 24 28 37 43 46 45 43 45 48 49 53 60 66 72 78 77 71 71 73 72 73
20 20 19 20 20 20 18 18 18 18 18 16 16 15 15 16 16 17 16 15 14 15 15 15 16 16 17 18 18 19 21 22 28 31 38 45 55 65 73 77 75 74 78
19 20 21 22 22 20 19 18 18 18 17 16 15 15 15 15 15 20 26 25 23 23 24 30 31 30 29 29 30 30 29 28 27 26 26 26 29 32 35 36 40 49 50
21 25 24 23 21 19 17 16 16 15 14 14 14 14 13 12 11 10 12 18 24 28 29 29 29 31 34 35 37 41 47 58 61 60 60 55 53 49 46 45 43 41 37
26 25 24 22 20 19 18 17 15 13 14 13 12 13 13 12 12 12 13 14 13 22 23 32 43 46 44 42 51 51 50 52 46 41 37 34 31 30 30 29 29 30 30
25 24 23 22 22 22 22 17 14 14 13 12 12 12 12 11 12 12 15 18 21 30 39 41 34 32 32 34 34 32 31 31 32 31 29 25 22 20 19 18 17 18 20
25 24 23 23 23 24 21 16 14 15 14 13 13 14 14 14 18 18 17 17 23 34 43 46 43 37 35 30 27 24 21 20 18 17 16 16 16 17 18 18 17 16 16
28 24 22 21 24 23 19 17 16 16 16 16 17 17 21 24 26 27 30 32 34 30 35 42 38 36 33 31 28 23 21 18 18 19 18 16 15 15 12 10 10 10 9
28 23 23 23 26 23 19 18 18 18 18 20 21 26 28 28 33 37 41 38 30 27 26 43 42 38 35 24 21 18 16 14 11 9 8 6 5 4 4 4 4 4 4
32 26 24 28 28 23 20 19 21 22 25 30 31 31 32 35 39 40 32 32 34 31 27 34 28 25 21 18 16 14 10 7 5 4 3 3 3 3 3 3 3 3 3
30 25 29 31 26 23 21 23 26 29 34 36 35 35 36 39 34 32 34 33 33 28 19 16 18 15 12 11 8 6 5 4 3 3 3 3 3 2 2 2 2 2 2
28 29 34 28 25 23 25 31 35 37 39 37 35 40 35 33 34 35 34 29 24 19 15 12 10 8 6 5 5 4 4 3 2 2 2 2 2 2 2 2 2 2 2
30 34 29 25 22 26 32 40 42 43 39 35 39 36 33 32 32 31 28 21 16 12 11 8 5 4 4 3 3 3 3 3 2 2 2 2 2 2 2 2 2 2 2
34 29 24 22 28 38 42 45 44 36 39 39 37 32 34 32 28 22 17 13 10 7 5 4 3 3 3 3 3 3 3 3 2 2 3 2 2 2 2 2 2 2 1
27 22 22 35 42 50 49 38 35 41 41 34 32 33 31 25 22 18 12 7 6 4 3 2 2 3 4 3 3 3 3 3 3 2 3 2 2 2 2 2 2 2 2
22 29 39 47 53 41 35 40 45 40 34 34 33 28 26 21 14 9 6 6 5 3 3 2 3 3 3 3 3 3 2 2 2 2 2 1 2 2 2 2 2 2 2
36 47 53 49 39 37 46 48 35 36 39 32 28 24 17 11 7 6 5 5 4 3 3 3 3 3 3 3 3 2 2 2 2 2 2 2 2 3 3 3 2 2 2
51 52 40 38 43 53 38 36 41 39 32 29 25 15 7 6 6 5 5 4 4 3 3 3 3 3 2 2 2 2 2 2 2 3 3 4 3 4 4 3 3 3 3
45 40 40 58 45 37 41 41 35 32 29 22 14 8 6 6 6 5 4 4 3 3 3 3 2 2 2 2 2 2 3 3 3 4 5 4 4 4 4 4 4 4 4

GFSMA_250_rhum_015.txt.gz
RH
57 54 43 59 47 32 23 39 60 59 38 32 26 28 32 32 31 31 29 22 16 17 20 22 24 37 82 95 98 89 95 94 100 100 100 100 100 100 100 87 82 75 65
61 54 55 50 30 26 39 52 64 48 34 27 26 26 28 28 30 32 34 36 28 20 19 20 23 26 27 56 78 98 100 100 100 100 100 100 100 100 100 99 88 90 76
62 60 58 35 24 41 72 78 68 63 51 42 36 36 37 36 32 28 27 31 35 38 30 23 23 24 24 25 31 42 66 89 89 88 100 100 96 94 90 100 89 90 82
58 61 32 23 47 77 81 85 74 76 68 63 56 45 41 39 39 39 40 42 37 34 38 44 44 36 30 28 27 28 29 40 62 82 76 82 80 86 82 78 74 57 54
70 34 20 50 75 100 100 100 86 70 62 54 48 46 42 37 33 34 37 39 39 42 46 46 42 39 40 43 46 47 44 38 35 38 42 47 46 43 41 44 47 48 50
39 19 41 73 71 70 74 61 44 32 25 20 20 18 17 16 16 15 15 14 15 16 17 20 27 34 40 43 42 40 40 43 47 48 49 48 48 48 51 52 55 60 68
21 28 62 56 38 34 30 24 22 23 23 23 23 22 22 21 20 18 18 17 15 15 15 15 14 14 14 15 16 19 21 25 31 38 44 45 43 42 42 40 40 42 44
30 48 40 26 23 21 22 25 24 21 21 20 18 18 17 16 15 16 16 16 15 16 15 14 14 15 16 17 18 19 19 19 19 21 24 26 30 34 38 40 39 35 31
34 29 28 23 21 22 24 25 24 22 20 19 20 19 19 20 20 21 18 16 15 14 14 14 15 14 14 14 15 15 15 15 15 16 16 16 17 20 23 26 30 34 37
26 26 24 24 25 25 26 26 24 23 22 20 21 20 18 17 18 19 25 25 23 22 22 22 21 20 20 21 21 20 20 20 20 21 20 19 19 18 18 19 20 21 22
26 25 24 25 26 25 24 24 23 22 22 22 21 21 20 15 13 14 14 19 23 26 25 25 24 25 26 27 29 30 29 30 30 30 31 33 33 33 32 30 30 31 28
28 28 26 28 30 27 24 24 22 21 21 20 22 22 18 15 16 14 11 11 13 22 22 26 28 29 30 31 31 30 29 30 32 33 32 31 31 31 29 28 28 28 27
30 30 32 31 29 26 24 23 25 22 21 22 24 19 16 15 14 13 13 14 15 17 21 25 30 34 36 40 42 42 39 39 38 35 33 30 27 25 25 24 23 22 22
34 35 36 33 31 29 26 26 27 24 24 24 20 17 16 15 15 14 13 13 18 25 32 35 36 34 30 30 29 28 28 29 30 30 26 22 19 17 16 14 14 14 14
39 38 34 33 32 30 28 30 30 25 25 24 18 18 18 16 17 18 21 23 24 24 33 36 30 30 29 28 27 24 22 19 18 17 16 13 12 12 11 11 10 10 9
39 36 35 33 32 30 30 34 26 27 27 20 21 18 17 22 26 29 32 34 34 27 22 31 28 26 24 20 16 14 12 12 12 11 10 9 7 6 6 5 7 7 7
40 37 35 34 33 32 36 29 27 28 22 21 19 22 28 29 34 35 39 36 30 26 21 26 24 23 19 16 14 13 11 9 6 5 4 4 3 3 3 4 4 4 4
39 37 36 34 34 37 32 27 28 26 21 21 28 30 33 34 38 40 35 29 25 26 21 16 18 16 14 12 9 6 4 4 3 3 3 3 2 2 3 2 2 2 2
39 37 36 38 36 34 28 28 26 21 24 28 30 32 35 41 37 30 27 29 29 24 20 16 10 7 6 5 4 4 4 3 2 2 2 2 2 2 2 2 2 2 2
38 39 38 34 34 30 30 27 21 24 33 30 30 39 41 33 28 30 31 25 22 18 12 7 5 5 4 4 3 3 4 2 2 2 2 2 2 2 2 2 2 2 2
39 35 33 34 30 32 27 21 28 34 29 34 46 40 34 32 35 29 23 18 13 7 5 4 5 4 3 3 2 2 2 2 2 2 3 2 2 2 2 2 2 2 2
33 34 35 31 36 24 22 31 30 32 41 48 40 39 41 37 29 25 16 9 7 5 4 4 4 3 3 3 2 2 2 2 2 2 3 2 2 2 2 2 2 2 1
37 33 35 32 23 27 31 30 34 48 46 44 42 41 34 29 21 10 8 8 7 5 4 4 4 3 3 3 2 2 2 2 2 2 2 1 2 2 2 2 2 2 2
32 37 27 23 32 31 32 44 50 48 46 44 42 36 28 17 9 7 7 7 6 5 4 4 3 3 3 2 2 2 2 2 2 2 2 2 2 2 2 2 2 2 2
33 24 27 34 33 35 54 48 47 46 49 50 41 30 13 9 8 8 7 5 5 5 4 3 3 3 2 2 2 2 2 2 2 3 2 3 3 2 4 3 3 3 3
24 35 34 33 46 53 43 45 50 50 47 46 25 12 10 10 9 7 5 5 5 4 4 3 2 3 3 3 3 3 3 3 4 4 4 4 4 4 4 4 4 4 4

GFSMA_250_rhum_018.txt.gz
RH
83 89 90 76 60 55 63 58 54 38 31 52 63 58 53 49 49 40 37 38 36 32 30 28 30 31 24 19 21 24 26 41 63 87 100 94 98 100 100 100 100 100 100
97 88 83 62 56 62 83 65 43 26 54 58 71 66 60 58 57 57 53 49 46 44 43 41 40 37 32 31 28 23 24 27 28 42 83 91 93 99 100 100 100 100 100
69 94 84 68 64 76 81 55 27 42 68 64 63 66 60 55 48 43 42 40 34 28 27 28 36 42 41 40 38 36 34 28 24 26 28 36 74 85 99 100 100 100 100
100 100 75 80 77 72 66 28 42 60 64 67 61 43 28 23 20 18 18 17 16 16 16 15 15 15 14 15 21 29 36 38 37 37 34 27 28 35 43 52 85 99 100
100 90 88 85 83 71 32 37 48 41 46 37 29 23 21 20 20 19 19 18 18 17 17 17 18 18 17 16 14 14 14 17 21 26 31 37 40 40 35 31 30 38 65
100 90 87 94 76 29 34 50 28 24 24 23 22 22 22 21 20 20 19 19 20 20 20 18 16 16 15 15 16 17 17 15 15 15 15 17 22 26 32 38 41 42 40
98 86 98 66 27 29 41 32 23 24 25 24 25 25 26 25 24 24 25 26 24 24 24 22 19 17 16 15 15 14 14 15 16 17 17 17 17 16 16 17 20 26 33
90 87 50 22 35 38 29 28 25 24 26 27 28 28 26 24 24 25 24 23 23 24 24 22 21 18 16 15 15 15 16 16 16 18 18 19 18 18 18 18 16 15 15
55 27 26 37 36 29 28 27 28 26 29 28 28 26 25 26 24 27 25 23 23 24 22 17 16 15 14 14 14 15 16 17 18 17 17 16 16 17 18 19 20 20 19
31 40 38 32 29 28 28 27 29 29 28 28 27 25 26 26 26 27 30 28 28 27 22 20 18 17 16 16 17 18 20 20 19 19 18 18 17 17 16 16 15 16 15
44 38 30 30 28 28 30 32 31 33 31 32 29 28 26 26 22 19 20 25 27 22 20 19 20 22 24 24 25 25 26 24 24 23 22 21 20 19 19 18 17 16 16
32 30 31 30 31 31 31 32 35 37 35 32 32 30 29 26 24 21 24 22 17 19 18 20 27 30 32 36 37 37 34 32 31 29 27 27 26 25 23 24 25 25 24
31 31 33 35 36 33 33 36 38 36 34 31 29 28 24 26 24 22 21 16 18 16 19 26 33 38 38 39 41 42 41 40 38 36 36 34 31 27 25 24 23 22 20
31 34 36 35 35 33 34 40 39 35 32 30 30 28 27 28 24 21 19 20 16 19 23 27 33 37 38 37 36 35 33 31 29 28 26 24 24 22 21 19 18 17 16
35 40 42 39 37 42 42 40 37 35 33 33 29 27 27 26 23 24 20 16 20 19 31 34 37 38 31 26 23 22 22 20 19 18 17 16 14 12 11 10 10 10 9
39 39 39 44 50 48 43 36 36 36 34 31 28 27 27 25 26 20 20 24 26 31 27 33 25 19 17 15 15 15 14 12 10 8 7 6 6 6 5 4 4 5 6
44 45 42 45 49 49 39 40 38 35 30 28 27 28 28 27 20 24 27 32 39 33 23 25 22 20 18 16 14 8 5 3 3 3 3 3 3 2 3 3 3 3 3
42 44 49 48 48 49 46 42 36 30 28 29 30 30 27 20 28 28 39 39 32 28 22 16 17 16 15 9 6 5 4 4 2 2 2 2 2 2 2 2 2 2 2
49 53 51 50 52 50 46 37 32 29 31 32 32 24 23 29 32 44 39 35 31 24 18 14 11 9 7 6 6 5 4 3 2 2 2 2 2 2 2 2 2 2 2
54 54 53 53 51 47 39 35 32 34 33 31 22 28 29 38 40 35 38 32 23 18 13 8 7 6 6 5 4 3 3 3 2 2 2 2 2 2 2 2 2 2 2
54 53 52 49 45 41 36 36 36 33 28 22 32 30 40 35 43 42 32 23 18 11 8 7 6 5 4 4 4 3 3 3 2 2 2 2 2 2 2 2 2 2 2
50 49 47 46 40 40 40 36 32 23 25 32 33 39 38 46 44 38 23 19 12 7 6 6 5 5 4 4 3 3 3 2 2 2 2 1 2 2 2 2 2 2 2
50 50 48 46 45 39 36 29 22 29 29 38 36 42 48 43 40 24 19 12 9 7 6 5 5 5 4 4 3 2 2 2 3 3 2 2 2 2 2 2 2 2 2
52 50 49 42 40 33 24 26 29 32 39 38 49 47 47 44 27 16 10 10 8 8 6 5 5 4 4 3 3 3 3 2 2 3 3 3 3 2 3 3 3 3 3
52 46 42 38 26 25 31 27 36 39 48 53 50 52 47 30 14 11 10 9 8 6 5 5 5 4 4 4 4 3 3 2 3 4 5 5 5 3 4 3 4 4 4
45 42 28 25 28 29 31 38 45 48 50 49 55 50 27 13 10 10 9 8 6 6 5 4 4 4 4 4 5 6 6 5 6 6 6 6 6 6 5 5 5 5 5

GFSMA_250_rhum_021.txt.gz
RH
97 92 91 95 98 94 94 86 70 57 70 73 58 54 23 44 55 52 57 54 49 43 40 37 34 30 23 21 23 30 36 42 42 37 28 22 23 38 64 87 96 93 86
97 98 97 90 98 95 88 75 61 70 81 81 65 39 30 51 52 49 40 29 22 18 17 16 16 15 15 15 14 15 15 16 20 27 33 40 34 26 25 35 46 79 97
78 87 84 81 81 82 89 83 78 83 85 74 63 30 35 44 39 28 20 19 19 19 19 18 18 18 18 17 16 17 17 18 18 18 16 17 26 35 39 33 27 31 53
52 59 73 89 74 89 100 96 100 91 86 75 32 29 20 20 20 19 19 21 21 21 20 20 21 22 22 22 20 20 19 18 17 16 15 15 15 15 20 29 36 37 32
62 69 94 100 95 100 100 100 100 97 76 38 30 22 18 20 22 22 22 24 25 25 25 24 24 23 23 22 22 22 22 22 20 19 16 15 15 14 14 13 14 23 37
100 100 100 100 100 100 100 100 100 84 41 33 31 21 22 25 25 26 27 28 27 26 25 24 24 24 22 22 24 24 23 22 20 17 16 15 15 15 14 13 13 13 14
54 73 100 100 100 100 100 100 85 40 37 32 25 21 23 26 26 28 30 28 26 27 27 26 25 25 23 22 23 23 21 18 17 15 14 14 14 14 14 14 14 13 13
100 100 100 100 100 100 94 58 31 36 38 27 25 26 25 27 29 29 31 30 29 27 26 28 28 26 21 21 22 23 19 17 15 14 14 14 15 15 14 14 14 14 14
100 100 100 94 76 59 33 29 39 36 28 28 27 28 31 39 39 40 37 33 31 30 28 26 24 24 21 20 21 18 15 16 15 17 20 21 21 21 20 21 21 21 20
90 96 72 44 34 28 38 41 36 30 28 28 30 34 34 36 41 46 45 41 36 33 32 30 28 28 26 23 20 18 17 17 17 17 17 19 22 25 27 28 28 26 24
83 72 38 37 39 44 44 36 30 30 30 31 35 34 33 35 40 41 40 40 35 34 29 28 29 28 25 23 21 20 21 21 23 26 28 29 28 26 25 24 23 23 25
74 45 40 51 49 37 33 32 33 33 37 39 38 35 35 40 40 37 34 32 31 27 28 29 29 26 24 21 22 25 27 31 32 33 31 31 31 30 29 29 29 27 25
59 42 39 39 37 37 37 36 36 39 42 42 39 41 46 43 38 34 32 26 23 24 24 25 26 26 21 25 26 35 39 38 36 32 28 24 23 22 22 22 22 22 22
56 46 39 37 39 40 36 38 42 42 40 40 43 43 44 38 35 33 27 22 23 25 24 26 23 20 23 32 40 36 30 25 22 22 24 25 25 23 19 17 17 16 15
60 51 46 42 41 40 42 42 45 48 43 42 39 39 37 36 37 31 25 24 24 24 29 20 23 28 41 37 31 22 19 21 22 22 20 16 12 9 8 7 7 7 7
63 54 51 49 45 46 45 45 45 43 43 41 39 39 38 37 35 29 26 27 28 25 19 26 38 37 27 19 16 15 22 20 12 7 6 5 5 5 4 4 4 3 3
66 58 54 53 49 47 47 45 45 44 44 43 43 44 40 36 31 29 30 30 21 21 27 47 39 35 24 16 19 18 8 5 5 4 4 4 4 3 3 3 3 3 3
69 60 55 52 51 50 49 49 46 47 47 48 44 41 38 34 32 33 28 20 24 35 34 34 39 22 18 24 15 7 6 5 5 4 4 3 3 3 3 2 2 2 2
76 65 58 55 52 53 53 50 49 48 48 45 42 43 39 34 34 25 23 27 37 40 41 25 21 24 23 12 8 6 5 4 3 4 3 3 2 3 2 2 2 2 2
74 70 64 62 60 57 54 52 52 50 47 47 46 36 36 29 22 28 30 38 48 43 28 18 19 18 10 7 6 5 4 3 3 3 3 2 2 2 2 2 2 2 2
74 73 74 71 69 64 60 57 54 49 50 44 37 35 25 26 31 40 44 46 37 27 18 19 16 8 6 6 4 4 4 3 3 3 2 2 2 2 2 2 2 2 1
82 81 77 73 66 60 60 53 50 48 41 39 31 26 30 42 42 47 46 42 32 17 17 12 7 6 6 4 4 4 4 4 3 3 3 2 3 2 2 2 2 2 2
85 80 72 63 60 57 54 52 46 42 35 26 30 36 46 44 46 49 43 32 20 17 10 7 6 5 5 5 5 4 4 3 3 4 4 3 3 3 3 3 3 3 3
81 68 63 60 57 55 52 44 38 29 28 33 45 49 43 47 47 42 31 24 17 10 8 6 5 5 5 5 4 4 4 3 3 6 6 7 7 6 5 5 5 5 4
70 67 60 57 54 46 38 32 29 30 40 50 51 45 47 47 42 29 21 16 11 8 6 5 5 6 5 4 4 5 5 5 4 7 7 9 9 9 10 6 6 5 5
66 63 57 47 42 36 33 30 33 48 50 49 47 46 44 38 27 20 13 10 9 6 4 5 5 4 4 4 6 7 7 8 8 9 9 10 11 10 6 7 8 7 7

GFSMA_250_rhum_024.txt.gz
RH
69 70 76 77 79 87 83 76 73 91 94 84 81 84 79 88 74 68 62 33 46 47 37 22 17 16 17 18 18 18 17 17 17 17 17 16 16 17 18 28 40 35 27
52 52 70 67 68 70 77 83 74 89 87 83 81 88 94 97 88 72 52 28 40 28 18 19 20 22 21 20 20 21 21 22 22 22 20 19 19 18 17 16 18 21 32
89 79 69 66 58 60 69 73 65 67 86 96 98 93 100 95 93 69 35 23 18 17 20 20 20 21 22 21 21 22 22 22 21 21 22 22 22 22 23 19 17 17 17
27 27 25 26 32 41 48 58 77 89 96 100 100 100 100 100 89 51 31 20 18 19 20 20 21 22 24 24 23 23 23 23 24 22 21 22 23 23 24 24 24 21 17
16 14 16 28 62 81 85 92 97 100 98 100 100 100 100 99 71 38 28 21 20 21 23 23 24 26 29 28 26 26 26 27 26 26 24 21 21 22 21 20 19 18 16
20 19 18 27 38 52 77 100 100 100 100 100 100 100 100 79 45 34 26 23 22 24 25 27 28 29 30 29 28 27 26 26 26 26 27 26 22 20 20 20 16 14 13
26 23 18 18 30 63 87 94 99 100 100 100 100 99 72 44 39 30 27 26 27 29 28 30 31 34 35 34 33 31 30 29 28 26 25 25 24 22 19 16 14 13 12
25 24 21 24 41 73 95 100 100 100 100 99 85 46 30 43 33 30 30 28 28 31 30 31 33 36 34 34 34 31 30 27 25 24 24 24 23 21 17 16 14 14 13
27 26 27 27 43 53 92 100 94 80 60 41 35 37 46 34 29 30 28 26 28 30 29 29 34 34 34 31 30 30 26 24 23 23 24 22 19 18 17 19 21 21 20
30 29 30 29 36 38 80 81 65 41 30 34 50 47 37 31 34 38 41 36 35 30 31 37 40 38 34 34 29 24 22 22 22 21 19 17 16 16 17 21 27 30 31
36 33 33 32 30 44 74 64 41 38 56 54 47 36 34 34 35 36 41 48 44 46 49 49 48 44 40 35 29 26 25 25 24 21 19 19 20 17 26 28 28 29 31
39 39 35 33 36 49 65 51 40 51 47 40 40 40 39 41 41 39 37 37 38 43 44 43 46 40 36 34 31 30 28 26 22 19 19 18 23 24 23 22 22 25 26
44 43 38 38 40 47 61 47 40 43 44 44 43 42 44 43 43 44 41 38 35 38 41 44 41 39 38 37 34 31 27 22 22 24 26 27 24 22 23 27 26 23 20
49 39 41 39 43 49 62 50 44 42 43 44 45 47 46 44 40 38 36 37 40 43 40 34 34 34 34 31 29 24 22 25 25 36 32 27 27 32 34 30 24 17 12
42 42 41 41 45 58 65 60 49 48 49 50 49 45 44 45 44 43 44 43 41 37 39 42 37 32 30 23 22 24 22 27 31 23 22 27 30 26 19 12 6 5 6
47 43 41 40 43 57 67 64 58 54 54 53 52 49 48 49 49 46 45 45 44 41 39 38 31 25 21 26 30 29 28 22 22 25 26 17 12 7 5 5 5 5 4
48 48 41 38 42 57 66 70 66 61 57 56 55 52 52 52 51 52 53 50 46 44 36 34 24 26 30 34 27 20 17 22 22 18 8 6 6 5 5 4 4 4 3
52 49 40 40 46 54 70 76 74 70 63 57 52 56 59 60 60 56 50 49 43 35 27 24 33 45 42 34 20 25 23 18 10 6 5 6 5 4 4 4 4 4 3
56 46 42 43 47 54 59 64 67 64 59 58 60 65 64 59 55 53 48 39 32 25 28 37 46 45 36 30 29 25 15 6 6 5 4 4 4 4 4 3 3 3 3
56 49 47 47 49 52 60 64 62 62 63 66 68 62 60 55 50 45 36 28 26 36 45 44 40 31 30 29 23 10 8 6 4 4 4 4 4 4 3 3 3 3 2
60 57 54 48 55 60 62 62 63 66 71 66 66 60 53 49 42 32 28 33 47 46 45 33 28 28 28 18 9 6 5 4 3 4 5 3 4 3 3 3 3 3 3
69 62 56 59 62 64 64 63 68 70 73 68 62 57 52 40 32 31 44 49 49 41 30 27 28 20 11 7 6 4 3 4 4 4 4 3 4 3 4 4 4 3 3
71 68 63 65 68 64 62 65 73 77 67 66 59 51 38 30 38 50 50 50 44 31 28 26 17 8 7 6 4 4 4 5 4 3 5 3 5 4 6 6 6 6 4
74 70 70 69 63 62 67 76 72 69 69 59 53 32 32 45 45 47 51 42 35 31 24 14 7 6 4 3 5 5 5 4 3 3 6 5 7 6 8 7 8 7 6
76 74 67 62 64 72 76 70 74 68 64 42 32 37 46 46 51 51 42 36 31 25 12 6 4 4 4 5 5 4 4 4 4 3 7 8 11 8 9 9 10 10 9
72 64 67 69 73 75 76 76 72 58 36 36 48 45 47 47 49 43 33 30 24 12 7 4 3 4 5 5 4 4 6 6 6 6 8 10 12 12 8 11 13 10 9

GFSMA_250_rhum_027.txt.gz
RH
88 86 88 91 92 88 78 75 69 65 57 52 62 68 66 70 71 66 81 97 100 94 92 74 42 43 40 18 17 18 18 18 19 20 20 19 19 20 21 21 21 21 21
80 75 74 72 75 66 61 62 50 63 67 60 64 68 79 73 75 72 92 100 100 100 93 74 40 33 21 19 20 21 21 22 22 21 22 22 22 23 24 24 22 22 23
100 100 100 99 96 85 82 70 70 48 41 34 48 73 82 92 84 100 100 100 100 100 87 64 32 21 20 21 21 21 21 22 24 25 24 25 26 27 27 27 27 26 25
22 24 29 45 71 62 57 33 20 14 33 53 71 84 89 95 99 100 100 100 100 100 87 55 28 22 22 22 23 24 26 28 29 28 27 28 28 27 27 27 27 28 30
23 25 23 23 20 18 16 16 16 19 32 53 77 100 100 100 100 100 100 100 100 92 79 45 30 26 24 26 26 27 25 28 32 35 35 35 34 34 32 31 30 28 26
21 21 21 23 22 22 22 23 18 16 17 29 45 68 87 99 100 97 100 99 90 77 63 39 31 28 27 27 26 26 29 29 32 36 36 33 34 34 31 29 27 25 24
20 21 21 22 22 21 24 23 20 18 22 47 75 94 95 92 99 100 94 76 59 57 48 38 31 28 28 27 26 28 29 28 31 37 38 34 31 29 30 25 24 22 21
19 24 23 27 24 22 23 24 22 23 24 35 52 64 81 86 74 58 44 41 52 50 44 33 29 29 29 29 31 31 31 32 36 38 37 32 33 35 30 25 22 21 21
28 42 36 45 36 25 25 25 23 24 26 28 38 66 76 52 34 32 41 52 54 44 34 31 30 32 32 32 34 32 30 30 28 27 28 30 29 28 28 27 26 24 22
44 52 65 65 38 27 28 28 24 25 27 27 44 62 53 38 45 59 55 48 39 32 30 31 32 31 31 30 29 30 29 29 30 33 33 30 28 26 24 22 22 22 20
42 51 61 59 51 43 34 30 27 26 27 30 52 63 47 40 40 40 41 39 38 38 42 45 46 43 38 32 30 31 32 34 33 31 28 26 23 21 19 17 15 14 14
41 46 47 67 71 51 38 35 32 29 28 33 52 62 47 38 37 37 39 44 46 47 45 42 40 38 38 41 40 40 41 39 35 34 32 28 25 20 17 15 15 22 25
54 64 74 76 72 61 44 42 38 32 32 39 54 62 54 44 41 42 40 41 43 46 44 45 46 47 48 47 49 48 44 43 41 39 34 24 18 16 15 20 20 24 29
68 73 74 76 91 77 60 52 50 35 36 44 48 54 58 57 50 47 45 44 46 48 50 50 51 50 52 54 51 50 49 44 43 35 26 24 23 27 29 31 35 34 33
77 96 81 73 93 98 85 72 54 38 40 45 45 57 62 62 62 59 56 55 53 52 51 51 53 52 48 48 47 40 39 33 25 23 22 30 27 29 33 35 34 29 19
65 68 77 81 91 98 89 59 46 45 45 43 42 50 56 60 62 66 66 61 52 46 47 54 51 47 43 36 34 28 21 22 26 31 26 27 27 32 31 23 16 10 6
82 67 66 64 74 84 74 53 48 50 46 44 41 43 48 49 53 56 51 51 49 49 49 52 47 39 32 26 23 23 26 30 26 24 24 27 23 16 11 6 6 5 5
81 76 60 52 53 57 60 57 55 50 48 46 43 41 41 46 48 48 49 52 52 53 46 42 42 32 29 26 28 30 25 24 23 25 24 14 10 6 5 4 4 4 3
75 72 67 53 46 50 54 56 59 56 51 46 42 40 42 43 48 50 52 53 49 47 46 33 32 28 31 36 30 26 22 23 25 18 11 6 6 4 4 4 4 4 4
85 74 68 57 48 50 54 56 62 56 49 45 42 44 45 47 52 51 50 48 49 48 43 32 32 40 38 31 23 21 26 26 17 7 5 4 3 3 4 5 4 3 3
74 69 62 55 51 51 54 55 56 56 50 50 49 47 46 52 52 51 50 50 49 44 34 33 43 35 30 21 23 27 22 11 6 3 3 4 4 4 4 4 3 3 3
80 68 55 50 50 49 50 59 63 60 62 60 53 53 53 53 52 52 56 49 47 31 37 42 32 23 20 25 26 22 8 5 4 3 4 5 3 3 4 4 4 4 4
94 64 52 48 50 52 57 69 72 70 62 52 55 52 58 56 54 51 54 42 34 47 40 29 20 22 27 24 16 7 4 4 4 4 3 4 3 4 4 5 5 5 6
64 55 50 51 51 58 73 81 76 63 61 58 59 64 53 53 54 57 34 37 48 40 32 25 25 26 19 10 6 4 5 5 4 2 3 6 4 4 4 7 9 7 8
59 55 56 57 65 80 89 72 70 64 59 67 62 53 51 58 45 36 41 49 40 33 27 28 25 17 8 6 4 5 5 4 4 3 3 6 5 10 7 8 10 10 11
70 66 74 95 97 81 79 71 60 64 66 60 60 58 56 39 35 46 46 42 33 29 30 23 15 7 4 4 5 4 4 5 6 7 5 9 6 11 9 8 13 14 12

GFSMA_250_rhum_030.txt.gz
RH
17 18 19 20 35 33 47 72 75 99 85 87 88 74 65 57 52 47 54 55 53 80 86 83 89 98 100 100 100 75 45 28 20 18 19 20 22 22 21 23 24 24 25
17 17 17 17 30 46 60 62 68 76 67 64 65 61 55 53 54 50 40 34 56 91 98 93 100 100 100 100 100 75 41 24 20 21 21 24 24 25 26 25 25 26 27
16 16 19 23 24 27 56 86 98 100 95 89 86 64 58 49 18 23 48 69 88 100 100 100 100 100 100 100 99 66 31 24 24 23 24 26 28 28 27 27 27 27 28
13 14 16 21 23 23 22 25 29 29 26 26 35 23 16 14 15 21 49 89 100 100 100 100 100 100 100 100 96 66 34 27 27 28 28 28 31 32 33 35 38 37 35
14 14 14 16 20 21 22 24 23 22 22 21 20 19 18 16 15 23 40 47 82 91 94 92 96 100 97 97 94 66 39 31 30 30 31 31 30 31 32 32 34 37 37
16 16 15 15 17 17 18 19 21 21 21 21 19 21 21 18 20 26 50 71 77 78 96 93 91 84 74 78 76 61 41 34 32 32 32 31 31 32 32 30 30 33 35
25 23 17 18 18 18 18 19 18 18 19 19 17 19 19 20 23 24 27 46 57 61 54 49 46 40 49 68 60 50 43 34 31 31 31 34 33 31 30 28 26 26 26
22 26 26 21 20 19 19 20 20 18 19 20 21 20 20 22 22 24 30 44 51 51 41 35 35 43 54 59 52 44 37 35 34 34 36 34 33 33 32 30 29 28 27
24 26 30 30 26 23 23 22 23 24 27 34 31 21 24 22 25 27 28 37 46 46 39 46 55 54 51 47 42 38 37 38 38 38 38 36 32 29 28 30 32 32 32
28 26 26 29 31 28 28 30 33 43 53 56 39 26 25 24 24 33 30 35 43 46 40 40 38 37 36 35 34 34 33 33 34 32 31 30 34 37 40 42 42 40 37
33 29 27 27 30 31 33 37 52 60 70 66 47 35 29 27 27 32 35 33 49 53 46 40 39 38 36 36 34 33 33 34 35 38 40 39 38 38 36 31 26 22 21
34 32 30 27 27 31 35 38 39 54 72 62 56 53 41 38 34 30 35 39 52 57 54 51 48 46 45 44 43 43 44 44 45 45 45 44 41 35 30 25 22 19 16
37 37 35 30 33 36 39 50 48 49 52 64 71 61 50 48 47 38 35 40 50 61 62 60 56 55 54 54 54 54 52 50 50 50 46 42 35 27 21 17 14 13 15
50 60 58 56 53 54 48 48 59 64 72 83 84 71 63 57 65 49 38 37 37 42 58 60 58 53 52 48 46 46 48 51 46 44 39 32 25 18 14 14 18 20 22
82 74 55 58 46 44 68 75 92 90 89 83 86 96 92 76 70 52 44 42 40 39 44 53 43 44 40 44 47 50 49 47 42 34 27 19 16 14 21 24 26 31 30
74 62 71 66 60 63 64 79 85 95 96 79 81 91 100 99 72 48 44 44 42 36 34 39 38 37 39 44 45 41 39 33 28 23 18 14 21 21 25 28 29 28 27
87 82 78 68 80 79 78 84 82 80 80 79 79 84 86 86 66 50 49 48 39 36 32 31 28 29 32 36 37 33 30 22 18 16 19 21 22 25 28 27 26 22 15
93 95 88 69 74 76 80 81 78 79 70 60 61 64 70 66 57 52 51 47 40 37 31 22 29 31 35 34 31 25 20 18 17 21 20 25 26 27 24 18 10 6 4
99 96 82 73 93 90 87 74 72 70 67 64 52 45 46 49 51 50 47 44 38 36 28 22 25 34 36 29 24 18 17 19 22 24 25 29 25 19 10 5 4 3 3
100 89 80 88 96 89 81 84 78 75 60 58 52 44 42 44 47 46 45 42 36 28 26 27 34 30 26 23 16 17 21 22 27 28 26 21 11 6 4 3 4 4 4
92 80 93 97 92 87 89 100 100 84 61 53 48 43 43 45 46 49 45 40 35 34 36 38 34 28 18 16 18 19 22 26 33 23 14 9 4 4 4 4 4 3 3
94 97 94 93 96 97 96 94 82 62 57 52 48 46 46 47 51 46 41 39 41 37 38 32 22 19 19 22 17 22 26 29 31 12 4 4 4 4 3 3 3 3 3
100 100 100 92 100 99 88 78 66 64 58 52 51 52 55 54 50 45 47 44 42 34 25 20 18 22 20 17 22 26 26 21 12 5 4 5 4 3 3 3 4 6 5
93 96 100 94 80 88 77 73 78 74 67 68 72 70 61 55 52 50 43 39 35 28 25 24 25 20 19 22 26 24 18 9 6 4 4 4 3 4 3 4 6 8 9
79 93 99 97 89 81 96 95 94 95 96 84 70 57 48 51 47 36 34 38 36 29 29 30 22 21 24 25 19 13 6 5 5 4 3 5 4 5 5 4 5 8 10
100 100 89 90 100 100 100 100 98 91 75 61 57 54 43 35 35 32 29 28 30 42 38 28 23 25 21 17 8 5 4 5 4 5 4 6 5 5 6 4 5 9 10

GFSMA_250_rhum_033.txt.gz
RH
14 15 15 17 18 18 17 17 18 17 18 19 22 40 48 63 56 86 70 77 62 58 47 38 32 23 29 62 78 100 89 100 100 100 96 67 36 24 21 21 24 24 24
17 14 13 13 14 16 18 18 18 17 16 18 37 33 41 69 66 70 79 80 61 52 25 13 29 59 59 86 89 95 100 100 100 100 97 64 37 24 22 24 25 27 29
18 17 16 15 15 16 16 16 16 16 18 18 20 23 32 42 47 42 28 33 26 17 15 14 21 43 74 87 100 100 100 100 100 100 100 64 35 26 25 26 28 28 29
20 18 17 16 15 14 16 18 18 18 20 20 22 21 21 21 21 22 21 20 20 18 16 20 40 59 74 100 98 100 100 100 100 100 100 85 45 30 29 31 31 34 34
20 18 19 20 18 15 15 19 20 18 18 20 19 20 21 21 21 22 22 23 23 20 20 20 32 64 80 82 90 99 99 100 100 100 100 92 60 38 35 34 36 37 37
22 20 18 18 22 24 24 18 18 20 18 18 18 18 18 18 18 20 19 18 20 21 24 24 23 29 43 54 59 55 56 52 56 71 73 73 63 48 38 36 35 34 33
30 27 24 20 18 19 23 25 26 22 19 20 21 20 19 18 18 19 20 20 20 20 19 21 26 27 33 49 46 39 35 35 41 54 63 61 53 48 42 36 32 31 30
62 48 42 33 24 21 20 22 26 26 26 23 21 23 21 21 21 21 23 25 24 23 26 24 23 25 32 43 45 39 39 42 47 51 51 50 46 41 36 33 32 31 30
57 41 36 33 30 30 26 23 24 26 29 28 27 26 24 25 25 28 33 36 36 28 32 31 28 28 32 37 47 44 41 43 43 40 38 37 36 35 34 34 34 33 31
95 78 59 42 34 33 30 28 26 26 27 28 28 28 31 38 39 49 59 69 57 37 38 38 34 36 37 41 47 53 48 44 41 40 39 39 39 38 38 39 40 41 42
86 87 60 50 40 36 33 31 29 28 25 26 29 30 34 42 55 68 86 95 88 58 50 49 50 41 37 40 41 50 53 56 56 56 56 54 51 50 50 49 46 43 42
61 59 64 60 48 44 36 34 31 32 30 30 32 34 33 35 48 65 92 97 85 74 59 43 44 47 42 40 40 42 40 42 43 41 38 35 31 31 32 31 31 33 33
88 76 73 72 57 53 45 39 47 50 47 47 46 47 43 45 54 59 66 83 86 98 93 71 52 58 56 46 44 41 40 40 40 37 35 34 31 30 33 34 32 31 30
82 81 86 86 68 68 57 69 68 56 45 42 40 56 76 70 62 70 71 71 89 99 100 100 90 76 67 51 43 39 38 38 37 35 33 30 25 23 28 30 27 27 24
80 89 94 97 79 78 75 74 62 59 56 52 50 54 56 66 79 90 91 81 85 91 95 100 94 90 79 54 38 35 33 33 36 34 26 21 21 21 26 26 26 20 16
76 74 77 90 94 85 96 81 75 75 81 62 58 58 56 62 67 68 74 74 76 76 76 83 86 89 81 63 43 38 39 38 32 27 20 18 18 23 23 24 18 17 22
70 64 92 100 98 97 100 97 90 85 84 67 62 68 74 74 68 66 64 58 60 57 50 52 49 55 58 50 44 44 38 32 28 24 20 18 21 24 22 16 19 21 22
67 69 100 99 100 100 100 100 90 93 75 67 74 75 82 82 66 55 54 51 52 48 42 37 36 35 36 39 34 33 31 29 25 20 19 23 24 18 14 23 20 22 21
69 96 100 100 98 100 100 99 96 83 79 67 73 86 80 73 74 68 56 52 48 44 40 34 31 34 33 33 34 30 26 24 22 21 21 19 14 20 20 19 19 16 9
83 100 100 100 100 100 100 100 88 80 84 84 75 63 74 76 70 58 56 51 46 40 35 32 31 30 32 32 24 22 26 26 26 20 14 18 22 21 19 16 10 6 5
100 100 100 100 100 100 92 79 83 84 82 73 75 76 72 61 56 57 54 48 46 42 36 32 39 42 27 28 29 34 29 23 19 16 23 26 23 19 10 6 5 3 4
100 100 100 100 82 90 90 84 82 79 87 77 76 67 62 67 70 67 60 56 54 48 48 42 39 32 30 32 26 20 14 17 29 23 19 21 11 8 5 3 3 3 4
100 100 100 100 100 84 78 72 88 97 99 96 82 80 87 84 79 75 69 62 59 49 33 27 25 23 20 17 14 20 27 26 25 19 11 10 6 4 3 3 3 3 3
100 100 83 72 60 68 85 83 92 100 96 83 83 82 85 84 75 72 62 52 42 33 26 24 20 20 18 21 24 25 20 19 14 9 5 6 4 4 4 2 2 3 5
76 77 74 67 83 81 88 98 100 94 84 89 91 88 82 70 56 48 36 30 30 29 28 31 33 30 27 24 19 18 14 11 8 6 3 4 4 3 4 3 4 5 5
92 100 100 94 96 100 100 100 97 88 89 84 76 66 56 48 40 34 31 30 32 40 45 39 31 24 22 18 15 12 8 6 5 4 3 4 4 4 5 4 4 4 5

GFSMA_250_rhum_036.txt.gz
RH
20 18 15 14 12 12 13 14 14 14 15 18 20 19 17 16 16 14 14 21 28 33 43 53 68 69 50 49 41 16 14 35 63 72 91 86 99 100 100 100 82 44 26
19 17 14 13 13 14 16 17 16 15 14 14 15 16 18 18 17 17 17 18 19 22 30 30 25 21 24 18 17 14 15 26 54 84 99 100 100 100 100 100 86 49 30
16 15 14 14 16 16 16 18 19 18 16 16 16 16 17 18 18 18 19 20 19 20 21 22 21 21 22 21 19 18 26 38 58 84 100 100 100 100 100 100 95 55 35
20 20 24 22 22 20 20 19 19 21 21 18 16 16 18 19 19 20 20 22 22 24 23 21 22 22 22 22 21 22 28 37 54 71 89 96 100 100 100 100 100 81 46
24 22 26 26 28 24 21 20 19 18 21 23 24 20 18 19 21 22 20 20 20 22 21 22 22 22 20 20 21 23 28 32 42 51 71 80 86 93 97 99 100 99 82
64 46 42 36 30 27 26 24 21 18 18 20 24 25 25 23 21 20 20 21 21 21 22 22 22 23 22 20 22 23 25 28 40 53 55 49 47 49 51 59 78 90 84
41 63 70 62 62 46 32 31 34 29 23 21 21 23 26 27 26 26 24 23 22 24 24 24 25 24 24 26 26 26 29 31 34 43 51 44 38 34 35 41 53 63 65
90 96 100 98 69 55 56 52 44 42 39 32 27 24 23 26 29 30 31 30 29 27 27 28 28 28 32 38 37 34 33 31 33 37 47 52 48 48 50 48 50 53 53
99 100 98 81 77 70 43 49 41 32 34 33 30 30 29 28 27 27 29 30 30 34 39 40 40 42 58 63 57 45 37 37 36 37 41 49 58 52 47 46 46 45 44
96 100 93 98 91 73 71 64 50 36 32 32 33 29 30 33 32 31 29 31 34 35 38 50 60 69 85 89 88 76 56 41 51 54 45 46 53 58 60 55 51 48 47
92 100 100 100 91 76 77 60 59 52 44 40 38 36 33 33 34 33 33 36 42 40 40 51 62 67 81 92 95 92 84 64 50 52 62 50 46 48 55 59 63 63 61
87 91 97 100 94 84 82 82 75 79 58 48 47 46 44 51 54 46 48 45 46 50 45 47 51 52 72 93 99 100 100 92 86 65 56 59 50 44 45 44 42 41 39
73 100 100 94 99 89 85 99 86 94 75 61 56 63 63 63 53 57 54 48 49 54 59 61 58 47 44 51 59 62 69 75 81 81 72 63 60 53 39 32 31 29 26
82 87 100 100 100 98 94 90 87 87 95 72 68 79 76 62 61 56 62 61 55 58 63 65 63 58 63 67 66 70 70 68 69 74 77 74 67 60 54 38 30 28 25
90 82 94 100 100 100 93 92 75 73 93 92 87 87 91 75 66 62 61 60 57 64 79 90 77 61 56 54 59 67 67 65 65 64 55 46 47 50 46 36 29 25 23
92 100 100 100 100 100 90 79 71 75 94 88 90 96 87 77 67 64 65 65 63 65 65 72 74 71 66 66 60 55 54 55 51 42 34 30 27 25 25 25 25 24 22
98 100 100 100 100 95 82 73 76 100 87 99 99 97 77 74 67 64 66 69 82 72 69 69 73 75 77 70 64 54 48 43 39 35 31 29 26 24 24 25 22 20 20
99 100 100 100 100 100 91 80 88 100 100 100 100 83 70 75 71 67 74 74 77 69 66 68 59 52 54 54 50 51 50 45 38 34 31 27 28 30 25 22 19 18 20
99 100 100 94 91 92 88 100 100 100 100 100 83 75 82 67 70 77 89 81 67 61 52 49 52 55 58 58 54 52 48 43 35 31 31 28 26 24 22 22 21 19 17
100 100 94 74 72 80 94 100 100 100 98 80 79 81 67 78 77 87 73 56 57 62 62 59 63 68 71 62 46 40 44 38 34 30 27 25 23 20 16 17 20 23 25
98 88 72 66 80 100 100 100 99 100 65 66 61 68 70 75 75 64 77 76 77 78 78 71 64 58 47 39 36 34 31 34 33 23 20 23 24 28 27 25 22 16 12
78 73 97 98 100 100 100 100 100 89 50 53 55 62 67 71 74 81 83 84 86 85 80 66 52 44 38 33 27 26 25 26 34 31 26 30 22 22 16 13 8 5 4
100 100 100 100 100 100 100 100 81 69 60 64 67 82 84 84 76 76 85 89 83 70 49 38 31 28 27 26 27 32 33 30 28 24 19 21 14 11 6 6 4 4 3
100 100 100 100 100 92 77 55 57 61 73 93 94 86 83 92 86 91 90 80 63 47 35 32 32 36 37 37 31 27 26 24 21 15 8 8 6 6 5 4 2 2 3
99 100 100 86 81 80 68 68 82 98 100 100 99 100 93 98 100 95 68 49 42 41 50 53 48 40 33 26 23 21 17 13 9 7 5 5 4 4 4 4 3 2 4
82 72 60 58 59 67 88 92 100 100 100 100 100 100 95 88 74 55 48 48 59 64 57 46 35 28 25 21 16 11 8 7 6 4 3 4 4 4 4 4 3 4 4

GFSMA_250_rhum_039.txt.gz
RH
30 28 28 26 26 22 20 20 20 18 16 13 12 14 15 15 15 14 14 15 15 16 17 17 16 17 20 21 22 22 21 21 19 18 18 17 18 46 80 88 100 100 100
29 25 25 23 21 20 19 18 18 15 14 14 15 15 16 17 16 16 15 15 16 17 18 19 17 20 22 21 23 23 22 21 21 20 20 20 25 49 62 88 100 100 100
30 24 24 25 25 24 21 19 17 17 19 17 18 17 17 18 17 17 17 16 16 16 19 20 22 22 22 25 26 26 24 22 21 22 22 21 26 44 64 92 100 100 100
36 33 36 36 30 26 24 21 20 20 21 21 23 21 20 19 18 18 19 19 18 18 17 19 21 22 21 21 23 24 23 22 22 21 21 20 20 28 46 70 91 100 100
64 54 54 52 52 54 54 54 46 40 36 30 26 24 23 22 21 19 18 20 21 24 24 24 23 23 23 24 25 26 26 24 24 23 22 22 22 22 33 55 71 84 97
90 86 87 66 54 51 55 56 56 55 53 50 40 32 30 30 32 30 25 22 21 20 23 26 27 28 28 27 28 29 30 28 27 26 26 25 25 24 27 34 52 55 51
88 95 76 76 75 78 81 76 83 82 74 59 50 50 48 40 38 40 39 36 32 27 24 26 32 34 34 33 33 35 35 35 34 32 31 34 33 28 30 29 35 46 44
81 85 76 97 100 93 78 86 82 72 59 58 52 50 55 41 33 29 28 29 29 31 30 29 28 29 34 35 37 42 47 46 41 46 53 56 54 41 36 37 33 35 44
76 90 99 100 100 100 100 94 80 76 67 62 60 52 52 49 40 36 33 33 31 31 32 34 34 32 31 30 32 36 41 53 64 74 78 85 83 76 48 39 43 42 46
66 92 100 100 100 100 100 100 86 78 80 62 55 62 61 55 46 49 45 46 47 50 46 46 44 42 40 41 43 41 44 48 64 77 78 85 91 92 94 72 49 49 52
69 72 82 89 100 100 100 100 100 100 77 63 65 73 69 68 55 51 61 54 58 65 66 58 50 48 46 43 45 50 56 59 55 54 57 66 79 88 89 95 85 64 57
79 87 86 89 90 100 100 100 99 99 99 93 93 97 95 88 71 58 62 72 71 65 68 67 64 64 64 61 54 50 52 53 58 64 61 55 55 60 68 75 76 70 66
73 86 96 98 100 99 97 85 95 100 100 98 99 100 100 93 81 71 68 76 75 80 65 63 64 65 62 60 62 61 60 56 51 45 40 44 53 58 57 55 57 60 60
86 86 87 96 100 98 88 82 87 93 100 100 100 100 100 98 87 74 75 83 80 72 79 66 72 68 67 64 60 64 57 53 55 55 51 47 43 41 45 54 58 59 55
82 75 71 81 92 100 100 99 100 94 97 100 100 100 100 93 77 75 80 74 84 80 70 76 77 79 80 85 81 63 54 50 48 52 53 51 51 49 43 42 44 52 53
89 81 72 65 69 77 90 100 100 93 100 100 100 100 99 91 70 73 77 77 88 82 61 75 84 93 99 97 87 74 70 70 68 60 53 48 44 42 41 39 39 40 40
89 91 79 72 73 74 86 100 100 100 100 100 100 100 100 100 66 100 75 100 97 68 58 76 79 83 94 100 95 72 70 72 71 68 64 63 58 52 50 49 45 41 37
77 92 96 92 100 97 100 100 100 100 100 100 100 100 100 99 94 100 100 78 62 65 68 80 74 77 78 64 60 60 62 67 70 69 70 68 64 59 60 55 46 38 32
67 78 99 98 98 99 100 100 100 100 100 100 100 100 98 93 91 77 80 88 62 71 66 71 72 63 52 49 48 51 58 60 55 48 43 37 32 31 30 30 28 28 27
54 50 55 77 81 100 100 100 100 100 100 100 100 100 100 93 69 77 68 65 63 68 67 50 43 44 41 50 49 43 41 35 33 31 26 22 20 19 20 20 22 24 22
50 52 47 60 83 100 100 100 100 100 100 97 98 100 100 70 57 61 68 65 55 56 59 51 46 56 56 52 37 36 31 30 37 36 39 41 39 33 31 28 27 24 22
50 55 52 66 84 84 100 100 100 98 84 96 97 100 100 92 84 97 72 67 58 61 61 60 72 73 55 43 37 42 47 45 46 38 28 29 23 22 19 18 13 10 9
39 49 60 79 88 100 100 99 100 100 89 69 70 83 78 81 85 63 53 46 59 76 78 80 68 52 47 46 45 45 36 30 30 28 21 22 17 14 8 7 6 5 4
72 82 85 91 89 100 100 100 100 89 81 75 74 71 69 71 71 64 76 98 100 97 72 65 56 53 49 43 35 32 29 26 26 19 8 7 7 6 6 5 3 2 2
98 82 93 99 100 100 100 78 79 77 85 80 78 87 94 73 87 94 94 93 80 79 74 66 57 47 40 33 28 24 20 16 11 9 5 5 5 4 4 4 3 2 2
99 100 100 97 73 61 74 84 81 76 87 97 78 76 81 91 95 96 81 82 87 77 60 50 42 33 28 25 19 13 9 8 8 6 3 4 4 4 4 4 3 3 3

GFSMA_250_rhum_042.txt.gz
RH
35 35 33 30 32 30 28 29 27 26 23 22 22 20 20 19 18 16 15 15 16 16 17 17 16 17 16 16 16 17 18 20 21 23 24 23 22 21 22 20 20 31 57
35 35 34 36 32 35 30 28 27 27 27 26 25 24 22 19 18 19 20 20 18 18 19 20 19 19 19 18 16 16 18 20 21 22 24 24 25 24 23 22 22 23 41
40 41 43 43 42 41 38 35 36 36 41 38 34 31 28 24 23 25 25 24 22 21 20 19 18 18 19 22 24 23 21 21 22 23 24 22 23 25 24 24 23 21 24
60 55 56 58 53 41 38 50 58 62 56 57 55 50 48 44 40 36 33 31 29 28 28 28 25 22 20 21 22 26 28 27 25 24 24 24 23 22 24 25 27 24 23
61 57 60 60 50 53 61 71 74 75 64 59 67 62 56 52 55 54 51 50 46 41 35 32 33 34 31 27 23 24 27 30 30 29 28 27 24 24 24 25 27 28 26
60 54 48 45 46 44 61 72 80 73 81 82 82 73 68 65 63 50 48 42 42 39 34 31 26 26 26 28 30 29 28 30 34 38 36 33 31 28 27 27 29 30 32
89 62 51 47 54 49 52 55 75 88 91 84 74 69 59 57 53 53 48 46 46 45 46 40 31 29 32 32 30 32 34 34 33 35 38 43 44 39 36 33 29 29 32
77 74 78 67 58 70 78 84 90 94 91 88 64 70 66 56 47 51 53 54 56 54 54 48 44 38 39 41 44 42 40 40 40 40 42 41 39 44 49 51 50 49 38
61 86 89 95 83 81 80 100 100 100 100 84 76 81 67 56 54 62 80 74 74 74 68 66 62 54 47 45 46 53 54 50 50 45 43 48 52 54 56 61 68 68 62
75 72 82 93 91 90 88 97 100 100 100 99 84 76 58 56 56 69 86 89 94 84 83 84 75 65 56 54 62 66 66 62 58 53 48 45 44 47 55 61 58 64 70
94 89 84 95 82 91 88 94 97 100 100 100 100 84 83 87 87 81 83 93 86 85 90 90 75 65 60 64 66 69 69 66 77 72 60 54 49 44 42 40 40 44 50
88 87 93 90 93 86 86 100 92 90 100 100 100 100 100 100 96 100 100 100 98 95 88 71 64 67 56 59 68 70 70 65 72 74 72 75 69 63 58 50 44 41 38
79 78 80 90 93 89 80 85 100 100 100 97 100 100 100 100 100 100 99 99 100 100 97 83 69 68 58 65 65 73 75 61 70 71 74 71 71 65 52 51 50 49 48
72 84 89 88 94 99 100 100 100 100 100 100 100 100 100 100 100 100 98 98 100 100 100 85 68 62 53 56 54 65 68 69 75 76 77 69 69 68 58 60 53 54 53
76 78 92 97 97 99 100 100 100 100 100 100 100 100 100 100 100 100 100 100 100 100 99 82 58 65 63 55 64 85 59 73 80 87 87 75 69 69 86 80 89 100 100
88 94 100 100 100 100 99 100 100 100 100 100 100 100 100 100 100 100 100 100 100 100 91 72 68 83 70 74 77 65 68 64 71 65 62 66 71 84 80 80 83 86 92
62 68 84 100 100 100 100 100 100 100 100 100 100 100 100 100 100 100 100 100 100 100 82 82 98 93 71 77 93 87 64 63 58 61 65 61 60 56 57 56 54 52 50
59 68 82 100 100 100 100 100 94 98 100 100 100 100 100 100 100 100 100 100 100 99 85 98 80 69 70 80 88 83 63 60 58 56 51 46 42 36 32 30 28 27 27
49 61 88 100 100 100 100 100 100 100 100 100 100 100 100 100 100 100 100 100 100 100 97 76 71 55 62 72 57 60 51 49 45 38 34 27 23 22 21 24 31 36 39
45 49 54 68 83 97 100 100 100 96 96 100 100 100 100 100 100 100 100 100 85 74 62 56 56 66 65 65 60 54 49 36 32 36 34 31 32 30 27 26 27 26 26
50 62 69 71 68 73 82 99 88 70 74 93 98 100 100 100 100 100 93 96 76 75 61 62 71 86 96 58 56 46 32 25 43 44 39 35 31 26 23 22 20 17 16
40 51 59 68 84 95 100 98 88 77 78 85 100 100 100 100 98 82 74 60 66 74 85 82 97 66 65 56 42 42 48 46 44 41 32 34 25 26 21 18 11 7 5
33 44 53 68 87 94 92 71 78 82 97 100 100 92 94 88 72 57 72 76 96 94 72 67 74 72 63 48 49 48 44 39 37 34 25 32 24 22 13 9 6 5 4
33 45 69 72 70 76 75 99 100 100 100 100 96 80 68 73 82 89 98 99 78 78 85 79 60 51 46 46 43 40 38 37 35 29 17 14 12 10 7 4 3 2 2
71 48 91 100 84 100 100 100 100 95 86 71 58 80 92 99 95 79 86 97 93 84 61 53 50 51 48 43 41 39 34 30 19 13 7 7 6 4 5 5 3 2 2
69 86 83 96 100 99 93 83 62 60 81 100 100 100 99 100 100 99 93 78 59 58 60 62 55 46 46 43 36 32 21 13 10 8 4 5 4 4 5 3 3 3 3

GFSMA_250_rhum_045.txt.gz
RH
28 30 30 25 29 34 32 28 28 36 39 42 40 34 28 27 30 34 34 32 30 26 22 21 24 23 23 21 20 19 18 17 19 21 19 17 18 19 20 21 22 25 24
34 33 36 35 40 48 42 44 47 47 43 41 35 30 33 43 46 42 45 45 45 42 39 34 33 30 28 26 25 25 22 19 17 18 20 25 23 22 22 24 23 22 24
51 60 58 60 66 70 58 52 49 45 44 40 34 38 50 54 58 50 52 56 53 50 48 49 45 44 41 36 32 30 30 32 30 22 20 21 26 28 26 25 24 23 21
62 68 75 81 78 65 57 49 48 45 42 38 42 43 53 65 66 65 70 64 59 63 56 51 45 44 44 43 37 31 26 24 24 28 30 24 23 27 29 31 29 27 25
94 91 89 80 69 58 49 48 45 43 37 44 49 47 56 74 70 73 64 60 52 49 46 53 51 50 49 42 44 40 34 29 27 27 28 31 30 28 30 35 34 32 30
97 90 93 84 73 67 62 61 53 59 55 58 58 56 66 76 74 68 65 56 54 50 46 50 56 63 51 49 54 49 46 40 36 39 36 32 32 32 35 36 40 44 42
100 100 85 81 85 77 70 69 79 72 74 81 75 64 62 67 71 64 72 59 54 57 55 55 55 60 69 63 57 60 54 50 47 42 44 51 52 45 42 41 41 40 38
99 94 90 82 75 74 68 75 83 89 86 88 87 87 74 90 85 75 70 67 57 62 66 65 63 60 61 67 56 55 61 54 55 49 50 52 53 56 54 50 46 44 43
100 99 96 87 94 88 88 82 83 90 93 98 97 94 96 91 82 69 70 72 75 73 71 79 80 70 60 55 61 64 65 66 58 58 52 57 68 69 66 63 57 52 50
100 99 100 99 96 99 96 89 87 89 94 100 98 100 100 100 96 90 83 83 70 76 89 92 90 81 69 64 63 71 77 76 74 69 50 50 65 70 72 69 69 63 53
98 98 97 100 100 98 100 100 98 96 100 98 100 93 95 100 100 100 100 100 100 100 100 99 90 91 92 82 74 74 80 69 72 67 53 60 62 72 83 76 80 78 69
97 98 100 100 100 99 100 100 100 100 97 89 98 95 99 100 100 100 100 100 100 100 100 100 100 100 93 91 77 80 87 80 74 60 62 72 66 73 84 85 92 91 86
100 100 100 100 100 94 97 100 100 100 100 100 100 100 100 100 100 100 100 100 100 100 100 100 75 100 100 100 90 83 88 85 61 55 62 88 80 92 83 70 70 80 81
100 100 100 99 97 99 100 100 100 100 98 100 100 100 100 100 100 100 100 100 100 100 100 100 100 100 98 96 74 71 76 80 56 60 71 80 86 91 84 84 72 65 69
92 92 92 93 84 87 93 98 100 100 98 100 100 100 100 100 100 100 100 100 100 100 97 100 100 100 91 84 82 77 68 53 56 66 71 69 67 67 64 57 62 62 61
64 72 89 97 98 96 94 97 100 100 100 100 100 100 100 100 100 100 100 100 100 100 100 100 100 100 96 88 82 71 71 62 64 58 60 62 71 64 56 54 60 61 65
52 64 72 74 74 79 81 85 95 100 100 99 100 100 100 100 100 100 100 100 100 100 100 100 100 100 100 100 100 78 66 65 64 62 64 70 62 52 52 53 47 44 51
32 40 48 56 69 83 91 98 96 97 98 98 100 100 100 100 100 100 100 100 100 100 100 100 96 100 93 97 83 68 65 66 67 65 73 58 47 47 48 49 47 44 39
28 36 38 43 51 76 97 100 100 100 100 100 100 100 100 100 100 98 97 100 100 99 99 100 90 95 91 85 80 66 69 78 74 56 53 45 44 42 42 46 45 39 36
21 33 45 53 54 54 60 84 99 100 100 100 100 100 100 100 97 80 79 99 100 82 100 100 82 71 79 75 78 85 84 70 65 66 57 50 48 47 42 36 35 28 23
15 32 46 51 61 63 71 78 87 97 100 100 100 99 100 96 78 65 78 69 100 100 96 74 64 78 71 79 81 75 63 68 66 55 49 50 44 40 36 33 24 18 14
18 26 32 45 60 76 83 95 100 100 100 99 99 94 84 89 91 98 100 100 99 91 95 84 76 86 76 70 55 63 55 52 57 53 47 46 37 40 33 24 13 9 6
21 25 29 43 60 68 73 79 85 86 95 95 93 95 90 100 100 100 100 85 75 71 83 94 86 66 60 60 59 55 55 56 56 49 40 46 38 38 24 13 6 5 4
19 25 33 41 44 63 71 74 84 94 100 100 97 100 100 100 97 84 71 73 86 90 85 80 70 62 60 56 54 53 58 51 43 38 30 41 28 16 10 5 4 4 4
38 37 33 34 61 67 70 71 70 72 77 74 80 82 73 69 78 92 95 92 95 88 74 65 61 58 58 55 58 54 47 40 38 34 27 26 9 9 6 5 4 5 4
83 80 76 74 76 76 73 73 76 80 90 97 99 96 95 100 100 100 99 84 70 63 61 56 59 62 61 50 44 40 40 36 34 31 11 10 6 7 6 4 5 6 4

GFSMA_250_rhum_048.txt.gz
RH
31 29 29 31 28 27 28 28 32 34 36 43 46 46 46 40 37 33 30 30 32 38 46 48 50 52 49 49 49 48 42 40 37 34 32 32 28 23 20 21 24 23 21
39 38 36 34 33 41 48 41 42 40 50 60 59 51 40 39 36 33 36 38 41 49 54 58 57 55 58 54 49 43 43 42 38 34 30 26 26 33 32 25 24 26 28
46 40 41 48 48 54 59 58 58 69 69 70 56 48 44 41 41 36 41 48 43 51 60 62 65 56 49 46 48 46 44 41 38 39 34 28 24 25 27 35 35 28 29
68 64 58 67 64 74 89 80 80 80 67 65 57 51 52 47 44 48 47 55 57 51 68 61 56 55 51 53 50 52 50 49 44 44 44 43 34 30 28 30 32 37 35
73 80 87 95 95 82 71 76 79 80 83 76 67 61 63 55 56 58 65 64 64 55 53 62 61 56 54 55 54 51 49 46 46 43 46 48 43 42 38 33 34 36 39
79 93 86 85 77 84 89 100 98 91 86 91 76 72 65 72 73 75 75 79 81 80 70 60 57 66 62 60 63 61 53 50 48 47 47 47 48 46 48 43 40 42 43
100 94 90 86 94 98 99 100 100 100 82 82 76 78 82 92 82 87 95 99 90 67 71 84 77 71 71 72 64 62 63 55 52 54 51 50 52 52 53 54 47 45 53
99 93 85 95 98 93 93 85 89 88 93 76 77 81 88 90 95 100 100 100 94 100 88 87 86 85 87 76 80 82 74 65 65 53 56 54 56 61 57 65 62 51 51
100 97 99 100 100 100 100 100 100 98 96 98 97 91 92 99 98 100 100 94 100 100 100 100 88 79 86 79 79 78 71 71 63 66 55 52 58 72 72 72 71 60 64
100 100 100 100 100 100 100 100 100 98 90 100 91 100 100 100 100 100 100 100 100 100 93 86 92 87 90 99 98 89 76 68 68 65 60 60 60 67 85 95 85 68 78
100 100 100 100 100 100 100 100 100 100 100 100 100 100 100 100 100 99 90 100 100 100 100 100 100 100 100 100 100 100 75 65 77 69 78 76 72 70 69 96 89 60 65
95 89 87 90 95 98 100 100 100 100 100 100 100 100 100 100 100 100 100 89 100 100 100 100 100 100 100 100 100 95 92 100 97 100 92 76 72 76 77 75 75 56 66
100 100 100 100 100 100 100 100 100 100 100 100 100 100 100 100 100 100 100 100 100 100 100 100 100 100 100 100 100 100 100 100 97 97 89 78 79 79 82 79 79 72 70
100 100 100 100 100 100 100 100 100 100 100 100 100 100 100 100 100 100 100 100 100 100 100 100 100 100 100 100 99 100 92 98 99 100 100 89 73 70 70 64 64 75 83
96 96 92 99 99 100 100 100 100 100 100 100 100 100 100 100 100 100 100 100 100 100 100 100 100 100 100 100 100 100 100 100 98 100 100 90 71 72 71 57 72 78 72
46 54 60 66 72 76 82 88 92 100 100 100 100 100 100 100 100 100 100 100 100 100 100 100 100 100 100 100 100 100 97 85 82 81 81 83 67 58 55 65 78 86 70
22 27 36 49 66 79 92 99 100 100 100 100 100 100 100 100 100 100 100 100 100 100 100 100 100 100 100 100 86 98 100 100 98 85 83 69 60 56 65 80 86 72 60
16 18 20 26 35 58 79 93 98 100 100 100 100 100 100 100 100 100 100 100 100 100 100 100 99 98 100 100 100 85 80 76 88 79 71 61 63 71 69 62 61 47 49
11 12 17 21 27 33 48 68 76 80 92 98 94 90 97 100 100 100 100 100 100 100 100 94 89 86 92 96 86 87 86 74 65 73 70 61 68 68 56 51 53 54 56
6 7 9 12 18 32 40 48 60 67 71 72 71 75 84 94 100 100 100 100 100 100 100 87 81 70 79 78 71 73 78 65 69 74 70 66 60 57 54 51 50 47 40
5 5 7 9 13 22 42 52 58 72 79 82 89 94 92 89 96 98 99 98 95 89 100 100 99 92 82 79 72 62 68 73 83 81 70 62 51 49 51 45 39 38 37
6 5 8 10 14 26 45 58 68 84 98 98 98 100 100 100 100 100 100 97 100 95 85 90 87 82 83 83 85 94 80 76 92 58 56 56 53 57 46 44 39 34 34
10 10 14 17 19 25 34 53 71 85 90 95 94 97 97 94 90 88 94 99 99 92 80 69 74 86 93 85 73 65 60 58 59 52 54 64 51 48 42 37 31 24 16
26 36 35 33 34 37 41 48 64 80 83 83 83 80 85 89 94 92 89 83 77 72 79 91 93 90 85 77 68 63 56 55 56 50 46 45 40 41 34 17 10 7 7
45 46 56 61 74 72 73 77 77 75 77 80 85 89 94 94 92 94 99 100 100 93 81 71 65 64 69 69 65 62 58 49 44 38 38 38 33 26 15 7 6 6 8
54 58 58 62 67 68 65 69 73 85 86 88 85 83 87 92 93 88 83 86 88 88 92 92 89 84 73 62 51 42 38 37 36 34 32 34 19 9 9 6 5 7 10

GFSMA_250_rhum_051.txt.gz
RH
53 47 41 36 36 36 34 33 27 28 35 36 35 40 48 48 54 55 53 49 45 40 35 35 35 40 42 55 52 58 50 45 47 46 43 42 36 35 32 30 27 26 32
45 41 37 32 32 38 41 38 36 35 39 40 48 61 63 67 73 64 60 58 50 42 41 43 41 49 45 52 56 57 56 53 49 45 42 40 38 38 40 38 31 27 27
42 41 50 52 49 47 51 50 48 45 49 54 69 72 72 73 72 70 67 62 50 50 45 46 52 51 49 51 54 62 64 60 51 51 52 50 44 40 41 43 39 37 31
54 54 57 57 53 53 54 60 64 62 55 66 73 78 77 90 79 79 76 68 62 58 57 61 60 64 65 58 65 72 78 71 65 61 61 59 53 48 46 44 44 44 38
73 67 78 83 77 76 72 76 79 86 82 95 99 98 100 100 92 92 79 72 62 66 65 69 73 78 73 75 74 77 79 75 72 65 54 57 57 52 52 49 45 44 48
73 71 61 70 69 76 82 86 95 100 95 85 99 99 100 100 100 83 72 70 73 75 81 89 90 89 83 74 79 71 78 80 76 64 53 56 54 52 51 51 48 46 47
75 65 64 74 80 87 87 99 100 99 100 85 87 85 95 88 91 83 73 88 87 90 94 100 100 100 93 93 98 87 83 82 68 64 57 60 56 51 52 56 52 51 51
76 66 63 71 83 74 66 97 100 100 100 99 98 99 100 100 100 100 97 100 100 100 100 100 100 100 100 99 86 89 83 67 66 61 59 60 58 53 55 56 56 65 60
66 66 76 80 80 86 99 100 100 100 94 100 100 100 100 100 100 100 100 100 100 100 100 100 100 100 100 96 88 75 73 62 77 91 78 72 62 62 58 59 60 72 61
70 78 77 84 92 96 100 100 100 100 100 100 100 99 100 100 100 100 100 100 100 100 100 100 100 98 99 97 100 100 100 100 100 92 85 77 75 62 71 70 79 83 80
74 74 68 86 90 86 95 100 100 100 100 100 100 100 100 100 100 100 100 100 100 100 100 100 100 100 100 100 100 100 100 100 100 99 91 76 70 79 75 97 97 82 78
81 79 67 66 70 75 75 83 86 99 100 100 100 100 100 100 100 100 100 100 100 100 100 100 100 100 100 100 100 100 100 100 100 100 100 99 96 100 100 100 92 87 88
62 69 80 85 89 88 90 96 100 100 100 100 100 100 100 100 100 100 100 100 100 100 100 100 100 100 100 100 100 100 85 91 100 100 100 100 100 91 89 86 94 99 82
98 100 100 99 100 100 100 100 100 100 100 100 100 100 100 100 100 100 100 100 100 100 100 100 100 100 100 100 100 100 100 100 100 100 100 100 100 100 100 99 91 70 73
75 72 66 70 60 58 57 64 72 85 92 94 96 98 100 100 100 100 100 100 100 100 100 100 100 100 100 100 82 100 100 100 100 100 100 100 100 98 90 94 93 80 91
33 30 25 21 19 22 26 32 38 50 65 88 93 98 100 100 100 100 100 100 100 100 100 100 100 100 100 100 100 100 100 100 100 100 98 100 99 93 79 75 69 77 74
20 12 10 12 15 20 22 23 31 42 53 72 92 100 100 100 100 100 100 100 100 100 100 100 100 100 100 100 100 100 100 100 98 87 84 94 86 86 88 86 76 71 75
26 19 14 10 11 15 16 21 26 32 54 65 75 92 100 100 100 100 100 100 100 100 100 100 100 100 100 100 99 87 88 73 77 66 59 64 74 75 70 65 69 69 70
31 17 10 6 7 7 8 10 18 27 32 42 59 81 91 97 100 100 100 100 100 100 100 100 100 100 100 100 100 100 100 100 99 84 69 69 72 70 65 76 73 65 58
30 13 7 5 4 5 5 6 8 16 32 40 48 55 70 83 95 99 100 98 94 90 86 88 94 92 94 100 100 95 91 97 97 86 90 80 75 65 70 71 67 59 58
39 28 14 9 6 5 4 6 10 13 23 37 50 59 67 79 81 83 86 84 89 96 92 87 85 90 96 99 89 86 87 86 78 74 78 83 82 79 71 62 56 44 42
34 37 24 9 11 12 12 12 13 15 21 32 53 69 93 86 78 92 94 95 91 88 90 97 90 89 98 99 89 90 97 86 89 74 74 71 61 66 55 48 41 39 39
39 39 34 31 19 18 23 22 23 26 32 41 61 80 99 96 98 100 97 88 90 98 99 99 99 96 100 99 97 90 88 85 85 76 77 65 47 46 42 40 37 38 41
54 46 45 46 43 43 46 51 52 58 56 65 76 92 99 100 100 99 100 100 100 100 100 98 90 83 80 83 84 78 73 64 57 50 44 46 40 43 42 38 35 34 31
57 52 46 46 47 50 54 59 69 78 86 89 92 92 93 90 92 95 91 86 81 83 88 89 84 77 68 56 51 46 47 47 44 40 40 41 40 41 39 32 26 17 14
62 57 55 54 50 51 52 56 62 69 73 76 81 81 80 79 76 70 68 73 71 69 71 68 70 63 57 54 50 48 43 41 40 36 35 35 32 28 28 16 9 7 7

GFSMA_250_rhum_054.txt.gz
RH
58 65 74 65 61 53 46 39 35 34 33 35 37 40 41 41 43 44 50 53 51 61 66 58 60 57 52 48 45 46 55 52 45 49 53 51 52 51 50 47 42 39 38
78 76 67 57 54 47 44 40 35 39 41 41 45 47 51 65 75 81 70 62 79 81 67 70 68 58 55 53 47 51 54 54 56 54 58 66 64 62 59 50 48 43 42
68 68 61 58 54 53 47 50 53 54 52 51 52 67 66 63 91 100 96 85 93 89 85 75 69 61 59 58 61 62 65 73 64 54 64 66 72 70 66 54 54 45 44
69 60 58 58 52 50 54 66 62 65 59 58 71 64 71 70 86 88 100 99 100 100 95 78 63 66 62 67 85 86 77 72 72 61 61 66 65 62 60 60 59 51 48
61 65 60 52 50 54 66 58 65 63 71 65 60 89 82 66 88 99 100 96 99 90 89 82 78 75 80 78 90 93 87 80 82 77 76 74 70 60 58 61 58 55 52
62 67 59 56 59 51 53 50 52 53 62 72 76 80 77 95 100 100 100 97 98 100 100 99 92 91 95 100 92 99 96 91 84 77 71 62 78 64 57 61 59 58 55
81 78 73 72 54 52 52 51 48 55 67 83 96 85 97 100 100 100 100 100 100 97 100 100 95 94 100 100 100 97 100 95 85 80 58 60 63 66 54 57 57 59 60
85 77 70 68 61 60 60 50 50 59 87 93 87 93 90 100 100 100 100 100 100 100 98 100 100 100 100 100 100 100 100 99 89 83 65 58 71 61 66 81 74 64 60
80 74 54 59 67 64 62 56 56 66 77 91 93 88 86 95 98 100 100 100 100 100 100 100 100 100 100 100 100 100 100 100 98 84 97 90 67 85 95 84 78 75 77
68 53 52 57 59 53 53 49 54 54 62 70 58 62 65 78 99 99 99 100 100 100 100 100 100 100 100 100 100 100 100 100 100 100 100 100 100 87 98 93 93 85 78
78 70 66 59 54 48 47 45 46 56 62 77 94 99 99 96 100 100 100 100 100 100 100 100 100 100 100 100 100 100 100 97 100 100 100 96 100 100 100 85 82 98 96
76 73 65 55 50 45 45 49 53 59 69 86 100 100 100 100 100 100 100 100 100 100 100 100 100 100 100 100 100 100 77 93 100 100 100 100 100 90 88 89 77 95 100
72 59 53 52 48 46 50 63 75 63 55 56 71 94 100 99 100 100 100 100 100 100 100 100 100 100 100 100 99 100 88 100 100 100 96 75 96 98 94 99 98 94 96
58 53 48 45 49 76 77 53 28 22 19 20 23 26 40 61 74 81 93 99 100 100 100 100 100 100 100 100 99 79 100 100 100 97 99 100 100 100 100 100 100 100 83
48 44 45 70 71 60 46 17 15 14 15 18 20 24 29 37 64 77 93 99 96 100 100 100 100 100 100 100 100 100 100 100 100 100 100 100 100 100 82 75 84 79 78
48 71 71 71 53 29 23 16 21 22 20 19 21 24 29 35 47 67 85 99 95 100 100 100 100 100 100 100 100 100 100 95 100 100 100 98 90 100 97 94 89 88 84
79 89 60 33 29 25 22 28 28 20 17 11 13 15 22 35 44 51 78 99 100 100 100 100 100 100 100 100 100 100 100 100 93 100 100 100 88 94 96 88 93 81 67
82 41 37 29 34 38 31 25 15 6 5 4 5 8 13 29 44 53 56 81 100 100 100 100 100 100 100 100 100 100 100 100 100 100 100 98 100 100 100 97 86 98 90
43 34 30 36 48 40 25 20 8 4 4 4 5 5 7 14 30 50 60 67 84 100 100 100 100 100 100 100 100 100 100 100 97 100 100 100 100 100 100 99 88 78 85
36 34 46 49 42 33 30 22 13 7 7 6 6 7 9 11 19 40 65 82 72 85 99 100 100 100 100 97 98 95 97 96 98 97 96 93 96 97 91 87 88 90 67
40 54 54 47 36 35 32 30 22 17 13 12 11 12 13 16 22 44 82 97 91 93 97 98 92 91 95 99 99 97 89 86 86 87 88 81 79 81 76 68 58 56 55
56 59 50 42 36 34 35 34 30 25 19 17 18 19 22 28 44 67 88 98 100 100 95 100 99 100 100 94 99 99 87 84 78 61 63 56 56 57 54 48 42 38 37
61 55 47 45 44 40 43 38 36 39 42 36 38 37 45 56 72 83 93 97 100 100 100 100 100 100 94 80 78 87 78 78 81 72 65 53 48 44 44 43 43 43 42
57 54 48 46 48 50 48 46 46 47 48 50 55 64 77 86 93 96 100 100 100 100 98 95 96 91 86 81 74 67 61 55 51 47 46 46 44 43 41 36 36 35 34
55 56 56 50 52 51 51 54 55 55 57 60 62 63 70 77 78 83 86 85 84 81 77 72 69 64 57 50 48 48 52 52 51 47 46 44 38 39 37 29 25 24 21
62 62 65 62 59 60 63 61 59 58 58 60 63 66 67 65 64 65 67 67 63 59 59 61 60 58 57 58 59 59 55 46 40 36 35 34 27 25 28 15 13 11 9

GFSMA_250_rhum_057.txt.gz
RH
87 68 61 57 64 64 63 54 57 55 51 48 43 37 37 41 45 46 50 54 55 69 65 60 93 97 68 82 78 72 55 55 55 49 52 58 56 54 52 55 58 66 60
67 57 63 73 71 65 59 61 55 50 40 38 40 43 50 51 52 54 59 58 82 92 69 79 100 100 100 96 82 63 60 54 51 61 59 70 70 64 55 56 59 61 58
59 80 81 81 73 66 65 63 60 47 49 45 44 49 56 55 49 47 53 69 92 79 91 81 98 100 100 100 91 75 66 71 62 77 79 84 80 71 63 67 62 62 60
84 93 89 78 79 75 66 68 60 59 56 61 49 54 49 55 53 52 63 96 90 78 77 100 95 91 100 100 100 89 74 73 73 89 88 90 78 78 63 53 50 65 59
98 92 78 71 71 70 81 77 67 63 60 55 51 56 59 50 50 53 71 100 100 100 98 88 86 97 100 100 100 100 94 99 96 86 93 94 82 75 63 55 52 56 64
94 91 91 85 82 83 86 78 78 67 62 67 60 64 56 50 51 54 60 90 99 100 96 97 99 100 100 100 100 100 100 100 94 92 90 86 83 86 69 62 56 50 56
98 100 98 97 96 90 90 76 74 82 83 67 60 57 53 52 55 59 54 69 100 80 74 81 100 93 100 100 100 100 100 97 94 91 100 100 97 91 74 70 53 50 51
99 100 100 100 100 94 81 77 72 62 63 57 56 50 50 51 58 52 53 62 69 74 74 77 90 94 100 100 100 100 100 96 100 97 95 100 100 88 87 60 59 62 65
71 80 100 91 79 74 73 69 62 65 63 58 53 50 49 48 52 57 66 82 87 91 89 88 83 94 92 100 100 100 100 99 100 100 100 100 100 96 81 82 71 67 84
95 79 71 66 64 76 71 65 67 63 65 59 54 49 48 50 47 58 86 94 100 100 100 100 100 100 100 100 100 100 100 100 100 100 100 100 100 75 72 100 100 100 100
89 71 71 69 64 70 73 64 66 64 60 57 52 53 51 59 48 50 56 82 78 99 100 100 100 100 100 100 100 100 100 100 100 100 100 100 100 73 98 100 99 100 77
84 84 84 79 65 67 62 66 66 61 55 47 42 41 40 40 58 43 38 37 50 81 99 100 100 100 100 100 100 100 100 100 100 100 100 89 88 90 100 100 99 87 81
95 92 85 90 76 72 70 68 62 45 43 41 32 25 20 22 28 32 43 44 47 76 94 100 100 100 100 100 100 100 100 100 100 100 100 100 100 100 100 100 100 71 88
84 79 84 79 78 68 57 44 43 43 42 30 20 15 17 22 26 31 43 43 51 55 69 91 87 88 100 100 100 100 100 100 100 100 100 100 100 100 100 100 100 74 92
96 95 80 78 58 49 51 53 54 47 44 21 16 18 19 22 22 26 34 42 52 62 81 89 100 100 100 100 100 100 100 100 100 100 100 100 100 100 97 100 92 99 100
91 82 79 58 45 54 65 82 75 36 31 22 24 26 21 17 14 18 28 32 51 76 100 100 100 100 100 100 100 100 100 100 100 100 100 100 100 100 100 100 99 100 100
84 70 63 41 50 79 94 77 36 31 30 28 25 20 13 7 6 9 11 17 36 100 100 100 100 100 100 100 100 100 100 100 100 100 100 100 100 100 100 100 100 100 100
68 54 48 62 70 84 59 41 33 41 41 33 23 14 9 8 6 6 10 17 34 77 86 100 100 100 96 100 100 100 100 100 100 100 100 100 100 100 100 100 100 100 100
57 68 66 59 73 50 41 35 45 46 38 28 22 18 10 9 9 7 8 16 28 42 60 100 100 100 100 96 100 100 100 100 100 100 100 100 100 100 100 100 100 98 88
67 51 52 42 48 42 39 47 51 43 34 31 26 21 18 15 12 10 12 17 23 38 52 97 100 100 100 100 100 100 100 100 100 100 100 100 100 96 87 79 83 86 88
53 45 44 44 40 48 48 55 49 39 34 32 26 24 25 24 19 16 16 19 21 32 51 93 92 100 100 100 100 100 100 98 99 90 80 84 84 80 82 76 62 59 54
42 46 44 40 50 50 56 56 47 41 38 38 38 37 34 30 29 33 41 44 51 71 83 90 100 100 100 100 99 100 97 91 87 79 75 70 67 64 56 51 50 50 52
48 43 40 48 55 56 56 55 50 47 48 47 43 46 48 46 46 47 48 54 65 75 84 92 96 98 97 97 94 86 82 82 77 66 61 54 56 59 63 61 57 52 49
39 42 45 61 60 59 59 57 54 53 56 60 56 53 50 51 57 60 63 68 73 77 80 80 85 85 84 82 79 76 73 71 70 70 68 63 60 54 47 42 40 38 37
40 44 62 64 63 62 62 66 60 59 62 59 57 58 58 59 63 66 65 65 70 74 76 76 76 75 73 70 67 66 70 74 72 67 59 47 42 40 36 31 28 24 22
44 59 67 62 66 66 69 71 74 68 67 63 64 67 65 63 64 67 74 82 83 80 80 78 73 70 71 71 74 78 73 61 50 44 39 34 28 27 26 20 18 16 14

GFSMA_250_rhum_060.txt.gz
RH
52 48 57 83 68 59 58 62 74 74 66 63 61 55 52 49 51 51 54 53 54 62 54 51 48 44 62 77 64 99 100 100 100 93 84 70 53 51 56 56 59 56 50
61 73 88 70 57 62 79 89 77 74 69 66 68 62 58 57 64 64 59 66 66 60 53 50 48 52 64 77 74 67 73 100 100 100 100 88 77 73 58 67 69 69 65
79 87 74 61 70 95 98 89 79 78 77 86 80 73 72 74 67 61 69 72 64 56 50 49 60 66 73 91 86 78 82 88 100 100 100 99 87 83 78 74 74 74 76
84 76 65 76 97 99 88 92 86 93 96 93 75 76 73 68 66 77 72 66 62 54 52 56 67 68 61 86 100 100 90 94 100 100 100 100 99 92 86 80 78 78 77
70 70 83 100 100 98 99 99 100 100 94 86 89 79 70 68 72 78 73 65 58 57 56 53 62 62 66 83 90 80 77 99 100 100 100 100 100 100 96 79 82 91 78
82 100 100 100 97 100 99 99 95 91 88 96 86 79 77 76 75 70 65 61 61 59 57 59 61 67 67 70 77 85 85 83 100 100 100 100 100 100 98 91 98 88 88
100 100 100 100 99 89 99 94 88 91 100 92 74 71 62 65 64 62 58 62 59 63 61 61 63 68 71 86 85 83 83 85 89 100 100 100 100 100 100 92 100 100 87
100 100 100 100 100 99 97 92 98 96 84 77 70 66 63 61 64 54 49 48 60 64 83 91 99 99 100 100 100 100 100 94 100 99 100 100 100 100 100 100 100 100 77
100 100 100 100 100 99 90 94 95 76 74 71 67 60 60 61 53 52 47 53 49 60 76 93 81 100 100 100 100 100 100 100 100 100 100 100 100 100 100 100 100 100 100
95 93 91 91 85 88 87 84 76 72 70 68 67 70 62 58 41 47 50 50 56 53 52 36 43 66 100 100 100 100 100 100 100 100 100 100 100 100 100 100 93 99 84
100 99 80 71 73 74 76 77 75 74 68 78 71 69 62 45 46 44 32 41 32 30 35 37 44 55 67 60 84 100 100 100 100 100 100 100 100 100 100 100 100 98 100
89 79 72 74 79 78 82 70 82 83 75 74 69 60 44 37 23 18 18 22 25 32 33 45 51 62 99 100 91 85 100 100 100 100 98 100 100 100 100 100 100 100 100
73 78 87 89 82 86 76 99 83 76 74 67 56 37 27 25 33 19 19 23 30 33 37 42 74 98 100 100 100 98 99 100 100 100 100 100 96 100 100 100 100 100 100
82 87 86 98 95 100 89 88 79 75 60 50 37 28 28 28 22 21 23 24 20 19 22 36 72 100 100 100 100 100 100 100 80 100 100 100 100 100 100 100 100 100 100
94 100 100 100 92 96 91 83 70 54 40 40 40 36 25 26 27 27 23 17 12 15 16 29 100 100 100 100 100 100 100 100 100 100 100 100 100 100 100 100 100 100 100
100 100 97 100 98 92 86 69 49 37 45 47 43 28 30 31 35 30 22 13 10 10 13 23 34 98 100 100 100 100 100 100 100 100 100 100 100 100 100 100 100 100 100
100 100 99 98 92 83 67 47 40 51 46 41 35 30 36 41 36 29 20 13 10 9 10 18 40 74 84 100 100 100 100 100 100 100 100 100 100 100 100 100 100 100 100
96 92 92 92 75 63 51 45 58 42 39 44 33 38 47 43 34 28 23 16 11 9 9 14 28 78 88 93 100 100 100 100 100 100 100 100 100 100 100 100 100 100 100
98 88 87 75 55 52 46 48 45 42 46 40 41 47 50 41 36 29 28 26 21 15 15 21 32 65 99 100 100 100 100 100 100 100 100 100 100 100 100 100 100 100 100
93 82 64 57 56 51 46 50 47 46 42 47 48 52 49 41 37 30 30 31 30 32 28 27 47 74 100 100 100 100 100 100 93 97 100 99 96 95 93 100 100 96 88
71 62 71 63 58 49 49 46 51 43 50 50 55 57 51 43 39 38 36 33 35 37 38 42 43 62 94 96 100 100 100 100 100 100 96 100 100 100 90 86 91 94 100
67 70 82 64 52 47 48 43 41 48 59 56 62 60 52 47 44 49 47 46 43 42 44 45 48 51 59 76 94 100 91 96 100 97 93 85 83 86 82 77 78 81 81
69 74 58 44 56 49 38 40 45 57 61 59 65 62 58 54 56 57 56 55 58 56 56 57 60 63 71 73 75 77 78 83 87 87 86 78 80 79 78 73 68 66 62
64 57 47 49 49 40 41 43 52 62 57 59 66 65 69 67 67 67 64 59 58 58 62 65 69 75 82 88 91 91 92 91 89 90 85 81 80 80 77 70 62 56 51
48 55 51 43 40 40 39 55 61 58 62 70 72 73 81 77 72 74 72 63 67 68 69 72 75 77 77 76 74 73 73 77 80 82 76 69 65 57 49 42 37 32 28
55 49 41 36 42 44 54 65 62 65 76 80 79 78 72 74 80 81 79 69 68 64 65 67 70 71 72 71 71 71 72 73 72 69 61 49 38 32 30 29 29 28 28

GFSMA_250_rhum_066.txt.gz
RH
73 70 69 68 69 68 66 65 62 64 62 63 69 72 61 81 84 91 76 92 81 74 69 66 62 66 70 70 64 56 50 51 74 99 100 96 82 87 98 97 99 90 100
72 69 72 77 74 67 65 69 71 71 69 81 82 71 74 83 85 84 94 95 77 73 68 62 64 70 74 66 58 52 49 56 68 100 100 100 99 92 93 94 95 94 100
80 83 79 77 76 78 75 74 74 76 86 93 86 66 87 94 88 96 97 82 82 76 71 65 76 73 66 58 51 45 54 60 79 98 100 100 100 100 100 94 100 98 100
94 90 82 79 87 91 87 82 80 84 92 92 70 74 86 84 94 100 94 88 84 75 67 77 76 74 64 53 48 43 49 66 73 87 94 96 99 98 92 99 89 100 100
84 81 84 84 84 86 87 82 83 94 92 71 63 87 86 93 95 94 87 82 79 70 76 73 72 63 52 52 43 40 52 62 62 86 100 100 100 100 100 100 100 100 100
80 86 89 85 85 85 84 91 98 87 79 72 86 93 83 92 97 96 84 80 71 79 78 73 62 56 54 48 38 34 31 35 40 52 63 97 100 100 100 100 100 100 100
90 92 95 93 89 93 98 93 88 88 90 86 98 89 100 100 100 85 83 72 86 85 73 71 58 53 54 37 32 26 27 31 40 46 48 50 82 100 100 100 100 100 100
98 98 97 100 92 89 90 94 94 99 99 100 90 100 100 100 90 84 75 86 86 80 77 65 57 54 39 24 19 22 26 36 40 48 50 56 66 91 100 100 100 100 100
100 100 99 98 97 100 100 100 100 100 100 100 100 98 87 92 88 85 90 90 86 74 70 62 57 42 23 18 25 30 36 35 32 31 36 47 63 79 100 100 100 100 100
100 100 100 100 100 100 100 100 100 100 100 100 92 90 91 84 80 78 86 85 75 77 72 66 50 22 19 22 29 36 36 34 32 36 37 36 44 73 79 100 100 100 100
100 100 100 99 100 100 100 100 100 99 87 97 97 100 90 89 86 78 87 77 75 76 71 59 27 20 24 28 36 36 31 30 31 38 64 48 39 82 84 100 100 100 100
100 100 100 100 100 100 99 96 95 97 100 100 100 100 99 99 83 90 74 69 67 67 67 37 22 24 26 35 38 33 27 25 22 26 39 54 55 89 98 100 100 100 100
100 100 100 100 100 100 100 100 99 96 100 100 100 96 92 88 84 72 67 62 55 49 53 36 28 27 32 39 35 29 26 18 17 17 25 42 61 84 100 100 99 100 100
100 100 100 100 100 100 100 100 100 100 100 100 100 96 85 78 71 69 56 43 35 44 51 36 38 32 40 40 33 27 18 14 13 12 16 35 73 91 98 100 100 100 100
100 100 100 100 100 100 100 100 100 100 100 97 96 88 78 72 68 56 40 40 36 39 54 42 37 42 43 39 29 26 19 17 11 11 21 50 100 99 100 95 100 100 100
100 100 100 100 100 100 100 100 100 100 93 93 82 79 74 68 52 40 51 42 33 40 43 37 41 50 45 41 28 28 25 21 13 15 29 90 100 100 100 100 93 100 100
100 100 100 100 100 100 100 100 96 94 86 80 82 68 72 49 36 58 54 42 46 42 37 38 50 53 53 55 40 29 29 27 23 34 65 96 100 100 100 99 100 100 100
100 100 100 100 98 96 94 92 87 81 80 80 66 83 55 40 54 59 56 52 46 44 39 41 54 56 65 59 45 31 29 35 34 48 66 100 100 100 100 100 99 92 86
90 88 91 89 87 91 92 83 87 89 84 87 90 67 42 60 71 60 46 50 51 41 41 53 58 64 72 60 51 47 39 41 46 48 73 100 100 100 100 100 100 100 100
79 76 76 87 93 89 87 95 85 92 100 90 57 48 68 73 77 47 49 46 47 41 51 55 64 81 83 68 60 60 56 45 48 59 66 71 88 100 100 100 100 100 100
69 73 66 80 95 100 98 96 100 90 60 50 65 74 79 61 45 51 50 43 44 46 58 63 76 88 86 77 74 65 67 66 62 57 68 84 99 100 89 92 100 98 100
100 100 72 99 94 100 93 86 72 53 66 77 73 61 45 47 51 46 43 44 48 66 65 74 88 92 86 75 68 67 70 69 68 70 78 89 96 84 80 78 72 75 81
84 76 61 88 81 71 65 64 71 84 73 61 55 49 49 46 43 43 46 50 68 72 72 83 99 93 74 72 74 69 68 69 74 80 80 74 82 84 88 96 100 100 100
62 51 69 84 64 60 74 91 86 71 67 53 48 46 45 45 51 54 52 64 73 69 82 96 90 77 78 80 67 64 67 67 69 76 80 80 75 80 84 83 82 82 82
67 76 78 70 94 98 92 91 86 71 60 52 47 48 52 60 58 59 65 71 79 91 99 90 80 81 73 63 65 69 70 69 70 71 72 74 66 61 68 74 75 73 71
99 100 92 100 100 100 100 95 77 62 53 50 50 51 62 60 63 68 72 78 82 83 80 81 73 64 64 70 75 77 73 73 71 68 67 60 50 52 57 60 60 62 67

GFSMA_250_rhum_069.txt.gz
RH
83 86 80 80 79 72 69 71 73 68 68 70 73 75 79 74 75 69 61 67 73 76 93 98 84 75 70 63 62 72 67 64 57 61 59 57 74 92 98 100 100 96 100
77 84 86 84 86 84 77 75 72 71 73 78 79 81 81 79 78 72 67 73 81 97 100 95 79 73 70 56 68 68 62 57 59 60 58 59 67 80 96 100 100 100 100
82 79 83 82 91 94 87 77 81 82 80 82 85 80 81 89 82 75 78 92 98 100 94 81 74 72 61 62 69 62 56 57 62 65 60 61 64 67 87 100 100 100 100
86 90 93 95 94 78 80 85 80 86 85 88 85 90 96 89 82 84 94 100 100 96 88 75 72 66 62 68 65 60 57 60 64 45 32 34 38 41 55 99 100 100 100
86 94 92 85 93 86 83 82 86 90 92 88 91 97 91 93 94 98 100 100 94 86 78 76 69 63 64 67 61 57 55 60 49 26 32 36 37 41 44 67 100 100 100
90 97 96 92 90 89 85 92 99 98 99 99 97 93 96 98 97 100 98 96 85 82 80 72 66 70 68 61 58 54 49 43 29 27 29 37 46 50 49 48 57 99 100
99 100 100 100 97 96 100 100 100 100 100 92 90 100 100 100 100 89 93 91 90 85 73 73 73 69 61 56 46 37 36 29 27 31 36 41 42 44 45 49 51 65 100
100 100 100 100 100 100 100 100 100 95 88 98 95 100 100 100 98 92 98 94 89 81 88 79 72 68 58 50 32 30 27 24 28 32 44 41 34 41 44 45 47 52 71
100 100 100 100 100 100 100 96 88 98 100 100 100 100 98 100 100 100 98 96 90 96 83 80 72 63 56 34 25 26 25 29 31 39 44 39 42 34 39 43 47 52 72
100 100 99 100 100 100 99 100 100 100 100 100 100 99 99 97 100 94 100 97 99 94 87 77 71 60 44 29 26 22 27 28 33 40 40 36 36 40 40 44 49 52 68
91 96 100 100 100 100 100 100 100 100 100 100 100 100 100 93 91 91 92 97 98 89 80 72 69 55 31 32 26 26 28 32 38 39 32 28 28 30 38 44 49 50 74
100 100 100 100 100 100 100 100 100 100 100 100 100 100 96 99 86 93 87 99 88 85 81 72 66 40 34 31 27 28 30 36 37 35 23 22 20 20 24 33 46 50 58
100 100 100 100 100 100 100 100 100 100 100 100 100 97 100 98 93 98 97 86 81 78 80 81 56 35 31 33 31 32 34 38 39 30 18 16 16 14 15 23 47 59 70
100 100 100 100 100 100 100 100 100 100 100 100 100 100 100 98 100 94 86 78 75 79 85 65 42 35 39 31 38 35 41 40 37 23 18 14 13 10 13 25 62 98 91
100 100 100 100 100 100 100 100 100 100 100 100 100 100 100 100 93 83 79 71 74 74 71 48 55 52 37 41 37 40 42 40 37 28 21 17 15 13 17 32 93 99 100
100 100 100 100 100 100 100 100 100 100 100 100 100 100 91 87 85 78 74 69 68 65 42 53 51 54 42 42 39 49 44 43 39 30 24 20 18 22 35 70 100 100 100
100 100 100 100 100 100 100 100 100 100 100 100 94 87 79 74 76 76 70 73 61 43 51 50 50 45 41 40 42 52 55 47 44 36 29 27 26 33 47 71 100 100 100
100 100 100 100 100 100 100 100 100 98 89 80 76 67 66 65 65 68 79 77 45 54 49 48 44 46 40 41 56 59 63 64 47 48 38 36 39 47 76 87 82 82 91
100 100 99 97 96 96 94 84 78 70 68 67 71 63 56 56 67 82 57 54 55 45 41 45 44 42 40 48 64 67 71 65 65 56 47 53 54 58 72 72 79 83 92
81 80 81 77 75 73 65 65 62 59 66 58 59 48 61 72 74 61 53 58 40 47 43 40 41 41 49 61 67 71 72 68 64 62 55 54 60 69 72 76 85 96 100
65 68 63 54 54 59 62 70 78 65 62 55 51 63 72 70 59 66 58 44 43 41 39 41 48 52 57 66 71 77 71 72 67 65 62 60 63 65 64 72 81 93 100
55 48 65 70 65 68 98 81 97 55 45 54 74 84 75 66 60 50 46 47 40 44 43 52 54 55 64 74 84 78 76 71 66 63 65 70 74 76 80 85 87 85 82
73 88 78 54 67 77 99 69 62 66 71 76 87 74 72 65 52 46 48 45 49 54 53 60 62 69 88 80 83 82 74 65 64 68 71 74 79 80 78 77 82 90 91
39 43 58 57 65 54 51 66 64 83 86 86 90 81 60 54 50 48 46 48 50 64 64 65 72 79 83 82 77 66 66 71 71 74 78 77 78 80 81 78 78 75 69
28 34 30 35 44 55 67 76 92 94 93 90 90 71 63 53 41 44 48 48 48 60 72 80 84 84 76 68 66 70 75 78 79 81 80 81 80 82 84 82 69 51 44
29 35 48 57 71 79 95 100 100 96 89 92 83 72 61 48 50 54 55 56 59 66 68 64 65 68 70 72 77 79 78 75 75 82 85 85 82 82 82 68 54 46 42

GFSMA_250_rhum_072.txt.gz
RH
64 67 70 72 78 85 83 83 78 76 81 79 78 69 74 79 81 84 75 66 78 77 67 75 86 91 94 87 67 63 54 52 62 61 56 48 47 62 64 43 54 95 93
72 73 72 73 79 80 78 82 79 82 91 81 73 81 79 83 86 85 80 82 80 79 80 88 100 98 95 70 64 61 57 57 62 62 55 37 42 43 32 31 39 60 85
81 86 76 78 84 83 90 90 92 89 91 89 84 81 84 90 98 92 87 86 87 86 92 95 98 95 74 63 62 64 61 64 67 59 50 34 41 32 27 29 33 39 67
67 80 81 82 85 88 86 85 94 95 94 92 93 91 96 100 98 100 87 88 94 95 100 99 90 72 61 67 70 65 64 66 62 54 39 28 27 29 33 33 34 37 46
72 73 76 79 81 81 84 88 94 95 93 98 99 100 100 100 98 88 88 94 98 100 89 82 62 58 73 73 66 68 69 67 60 48 30 28 29 31 36 42 46 45 45
78 78 74 74 77 82 94 93 93 97 100 100 100 100 100 100 87 96 99 100 100 93 73 59 57 67 68 67 71 74 70 67 58 42 29 28 30 33 39 49 49 44 43
94 90 86 87 88 94 100 100 100 100 100 100 100 100 100 100 100 100 97 100 93 78 69 60 68 68 67 71 76 76 69 64 50 32 29 35 28 33 40 47 47 48 44
100 100 100 100 100 100 100 100 100 100 100 100 99 96 100 100 100 100 99 89 83 78 75 74 74 76 75 74 80 72 68 62 44 27 28 32 34 34 41 47 45 47 51
100 100 100 100 100 100 100 100 100 100 99 98 97 97 100 100 100 100 100 93 94 86 81 75 76 78 81 78 76 69 64 47 31 29 31 34 32 39 44 42 45 39 42
100 100 100 100 100 100 100 100 100 100 98 98 100 100 100 100 100 100 98 98 100 96 81 82 85 79 77 76 69 66 51 35 28 37 32 31 32 36 36 38 37 36 37
100 100 100 100 100 100 100 100 100 100 100 100 100 100 100 100 100 93 92 100 99 99 94 88 84 82 80 70 68 58 44 35 31 34 34 34 39 36 29 18 21 23 37
100 100 100 100 100 100 100 100 100 100 100 100 100 100 100 100 100 99 97 100 95 97 99 89 81 75 70 65 67 66 41 39 34 33 34 38 38 33 24 17 14 15 20
100 100 100 100 100 100 100 100 100 100 100 100 100 100 100 100 100 100 100 97 100 97 92 84 70 69 65 73 81 51 38 39 33 36 34 43 40 29 16 14 13 12 13
100 100 100 100 100 100 100 100 100 100 100 100 100 100 100 100 100 92 94 88 90 92 78 72 69 64 70 71 51 48 48 36 38 35 38 45 44 31 17 16 13 11 14
100 100 100 100 100 100 100 100 100 100 100 100 100 100 100 95 97 92 91 89 86 80 68 59 59 63 65 58 50 52 43 42 41 35 47 46 43 36 22 19 17 15 18
100 100 100 100 100 100 100 100 100 100 100 100 100 100 100 99 95 92 80 85 68 61 52 53 62 73 59 52 54 44 47 42 40 39 50 53 46 39 30 27 22 20 29
100 100 100 100 100 100 100 100 100 100 100 100 100 100 100 90 89 83 78 66 60 50 41 69 62 58 53 56 45 44 42 41 46 55 58 56 56 46 44 43 36 39 54
100 100 100 100 100 100 100 100 100 100 100 100 100 94 95 89 81 68 64 60 51 41 60 50 49 52 46 45 41 41 40 46 54 67 60 69 67 59 48 50 51 49 67
100 100 100 100 100 100 100 100 100 99 97 94 88 82 73 63 61 72 61 54 51 52 49 62 44 40 43 42 44 45 51 51 63 68 70 82 66 60 58 54 55 66 69
80 93 100 97 94 89 87 86 86 80 76 69 68 68 66 63 71 62 51 52 57 63 46 42 40 42 42 49 51 56 57 59 63 69 78 74 68 62 57 63 68 70 88
65 67 70 72 78 70 76 72 67 66 59 58 62 54 72 82 72 43 59 62 56 53 42 39 42 43 47 54 59 62 66 72 76 80 69 65 61 61 63 62 67 75 83
77 68 70 78 63 51 48 49 56 58 79 92 52 48 80 56 48 73 53 60 52 43 41 40 39 48 48 61 71 70 71 80 88 73 67 62 62 63 65 70 74 76 80
60 73 51 61 49 50 40 35 78 86 70 53 57 47 52 71 70 75 72 52 45 46 40 42 46 49 51 57 72 79 81 78 69 67 65 69 72 72 70 69 71 75 78
76 75 65 86 68 33 46 49 42 40 47 41 52 64 80 78 89 81 62 58 54 47 46 48 51 55 60 65 68 66 68 73 74 72 70 68 73 76 75 74 74 76 78
47 61 77 65 27 31 31 30 31 30 47 70 70 80 98 85 77 79 77 66 62 55 67 65 63 65 64 64 68 74 76 75 68 64 66 67 69 74 76 75 76 79 82
32 34 30 29 29 34 32 33 37 49 78 97 87 99 90 87 89 90 80 72 68 64 76 77 73 69 67 69 70 72 72 65 62 64 68 72 75 75 74 74 72 70 63

GFSMA_250_rhum_075.txt.gz
RH
55 59 58 58 60 68 71 74 77 78 81 79 81 82 86 86 85 83 69 73 91 85 73 66 61 57 66 83 88 70 66 56 53 58 57 67 72 69 68 46 28 21 21
48 52 60 66 68 70 73 76 76 77 82 79 85 80 84 88 78 76 80 94 96 85 78 71 64 74 83 72 73 77 60 50 62 61 65 74 70 68 61 40 27 25 23
54 54 54 62 67 73 80 85 79 80 80 81 83 84 86 84 78 94 99 100 96 88 76 73 71 68 67 78 82 70 56 60 64 65 73 72 66 63 50 30 28 32 30
62 61 64 64 62 64 67 73 74 79 78 79 79 88 91 93 100 100 100 98 90 81 78 69 60 65 82 75 72 62 59 64 66 70 70 71 65 57 39 34 36 36 38
76 70 69 69 74 74 78 76 76 77 78 79 84 93 100 100 100 98 100 88 80 75 72 66 69 75 78 64 61 59 62 69 76 71 70 66 61 51 31 35 40 38 42
94 91 88 84 85 88 91 93 94 90 91 95 100 100 100 100 98 100 93 83 76 78 78 75 80 76 62 61 58 66 68 73 78 70 66 64 58 45 32 40 39 38 43
100 100 100 100 100 100 100 100 100 100 100 100 100 99 100 100 100 98 91 85 81 85 84 79 75 64 61 60 57 69 74 72 71 62 54 59 64 34 33 37 40 37 42
100 100 100 100 100 100 100 100 100 100 100 99 100 100 100 100 93 99 97 85 94 89 83 77 64 63 60 61 74 70 76 74 65 58 58 46 39 35 36 32 36 38 45
100 100 100 100 100 100 100 100 100 98 100 100 100 100 100 98 100 100 100 100 98 92 83 69 63 62 73 76 70 77 71 72 57 58 50 41 34 32 31 38 35 38 46
100 100 100 100 100 100 100 100 100 100 100 100 100 100 100 100 100 100 100 100 100 98 83 79 79 81 75 70 71 72 72 58 48 50 47 36 34 33 33 34 36 42 40
100 100 100 94 99 100 100 100 100 100 100 100 100 100 100 100 100 100 100 100 100 100 99 81 82 82 72 73 69 72 62 56 45 49 41 38 38 37 36 32 42 41 40
100 100 100 100 100 100 100 100 100 100 100 100 100 100 100 100 100 100 100 100 100 100 98 84 77 72 76 72 71 62 56 53 55 51 38 45 40 40 37 35 41 39 29
100 100 100 100 100 100 100 100 100 100 100 100 100 100 100 100 100 100 100 100 100 100 96 96 76 75 70 71 64 57 52 47 52 43 39 41 40 39 37 43 45 37 29
100 100 100 100 100 100 100 100 100 100 100 100 100 100 100 100 100 100 100 100 100 99 93 88 86 73 71 60 59 50 50 59 55 47 40 40 38 38 41 54 46 36 28
100 100 100 100 100 100 100 100 100 100 100 100 100 100 100 100 100 100 100 100 97 96 90 85 78 70 61 58 49 53 52 46 47 40 41 38 39 43 53 57 49 34 29
100 100 100 100 100 100 100 100 100 100 100 100 100 100 100 100 100 100 100 99 93 88 81 74 68 60 56 52 47 45 47 45 43 43 41 42 44 49 59 62 53 36 32
100 100 100 100 100 100 100 100 100 100 100 100 100 100 100 100 100 100 95 90 90 79 65 62 56 50 52 42 41 37 45 43 43 44 47 46 53 57 66 63 53 48 43
100 100 100 100 100 100 100 100 100 100 100 100 100 100 100 100 100 100 97 84 72 60 60 51 44 52 47 46 36 36 38 40 44 45 51 55 58 67 75 71 61 54 50
100 100 100 100 100 100 100 100 100 100 100 100 100 100 96 93 87 83 75 62 57 56 51 54 47 42 44 41 36 31 37 40 44 49 58 60 67 78 82 72 65 59 56
72 96 100 100 100 100 100 100 100 100 100 100 97 79 77 68 62 59 52 53 70 52 65 60 52 40 48 38 34 36 39 43 46 51 62 65 73 76 72 65 62 61 62
27 29 40 57 64 64 65 63 75 78 80 79 76 72 68 71 60 55 56 54 53 62 58 52 56 57 50 39 38 37 42 46 49 55 70 76 71 62 57 59 62 66 69
21 23 26 27 37 38 42 53 60 63 73 76 65 70 81 75 49 50 43 52 57 56 76 64 78 52 44 41 44 47 50 53 62 59 61 60 60 64 63 62 62 63 66
24 23 26 36 40 44 53 58 65 83 72 59 68 86 67 62 41 43 41 56 68 79 78 85 73 51 52 51 60 63 67 66 62 63 63 65 66 65 60 57 57 59 63
24 25 26 30 34 42 55 71 72 73 57 74 72 69 62 37 32 53 68 86 92 100 87 74 70 59 60 60 60 70 71 70 72 73 67 68 74 71 66 63 60 60 61
23 23 24 25 28 44 62 69 58 65 58 44 35 35 34 37 56 73 96 100 98 95 81 77 73 70 74 70 65 67 69 74 79 81 83 79 75 70 69 66 62 61 61
25 26 26 27 28 29 32 42 50 50 38 38 36 42 44 68 100 100 100 100 100 96 83 81 78 77 77 70 70 74 77 77 84 90 85 78 71 68 64 62 61 61 58

GFSMA_250_rhum_078.txt.gz
RH
51 51 52 49 44 45 51 53 54 60 66 66 71 74 71 71 70 72 71 67 74 94 92 79 67 66 61 56 54 54 54 60 60 58 55 51 63 59 65 56 54 47 55
50 52 55 55 55 59 60 61 64 68 71 69 77 82 73 70 72 74 69 83 97 92 85 70 72 68 60 56 56 56 60 61 60 57 53 58 63 57 64 51 42 45 37
54 54 53 58 62 62 63 65 65 65 67 69 68 72 74 78 79 76 98 100 98 86 72 69 65 67 66 58 61 71 67 62 55 50 65 60 59 58 56 52 44 43 33
74 63 64 63 65 66 68 70 69 71 74 80 86 88 90 90 94 100 91 97 90 87 75 69 69 71 70 77 72 74 74 67 54 55 62 61 62 60 49 53 50 45 32
100 98 89 79 80 81 78 76 76 76 80 87 94 97 97 100 100 93 93 85 84 78 79 74 78 80 80 84 83 81 72 67 60 72 57 62 55 60 53 53 59 41 29
100 100 100 97 96 97 92 94 97 98 100 100 100 100 100 99 83 88 86 86 81 82 83 93 96 95 95 84 82 89 76 72 71 67 66 60 56 57 55 56 52 30 28
100 100 100 100 100 100 100 100 100 100 100 100 100 100 98 95 94 100 97 100 90 94 97 93 100 100 97 96 82 69 69 76 71 66 58 56 56 55 59 62 44 33 37
99 100 100 94 96 100 99 100 100 100 100 100 100 100 100 100 100 100 100 100 100 100 100 100 100 99 88 83 83 77 71 71 73 70 59 56 50 52 55 56 38 31 54
99 88 84 86 89 96 100 100 100 100 100 100 100 100 98 100 100 100 100 100 100 100 100 99 100 94 92 80 70 74 76 74 74 61 60 59 52 50 56 40 39 33 59
100 91 79 98 96 100 100 100 100 100 100 100 100 95 100 100 100 100 100 100 100 100 100 100 100 98 83 81 77 79 81 83 60 63 53 48 50 48 41 38 32 32 34
100 100 100 100 100 100 100 100 100 100 100 100 100 100 100 100 100 100 100 100 100 100 100 95 97 83 85 79 74 86 69 68 61 52 46 44 56 53 37 34 37 32 35
100 100 96 100 94 96 99 100 100 100 100 100 100 100 100 100 100 100 100 100 100 100 97 100 89 87 88 90 75 81 68 62 51 49 41 43 46 43 40 38 40 35 34
100 100 100 100 100 100 100 100 100 100 100 100 100 100 100 100 100 100 100 100 100 100 100 98 97 90 84 74 72 68 63 49 45 41 34 39 39 42 40 41 42 39 37
100 100 100 100 100 100 100 100 100 100 100 100 100 100 100 100 100 100 100 100 100 100 100 100 97 88 80 78 66 51 51 43 46 38 29 31 37 39 43 44 45 46 44
100 100 100 100 100 100 100 100 100 100 100 100 100 100 100 100 100 100 100 100 100 100 100 100 100 87 83 66 57 49 46 42 40 27 31 30 32 38 44 48 48 50 55
100 100 100 100 100 100 100 100 100 100 100 100 100 100 100 100 100 100 100 100 100 100 100 100 100 96 74 59 50 52 47 38 28 30 32 29 35 39 45 54 55 59 58
96 96 96 95 100 100 100 100 100 100 100 100 100 100 100 100 100 100 100 100 100 100 100 100 98 78 64 60 52 43 38 32 30 32 31 33 36 43 46 57 66 72 79
75 83 92 86 89 99 94 96 100 100 100 100 100 100 100 100 100 100 100 100 100 100 98 94 83 67 54 53 44 41 35 34 34 33 36 37 42 45 47 62 64 70 71
40 54 58 62 67 85 84 90 100 100 100 100 100 100 100 100 100 100 100 100 88 84 94 77 72 60 42 42 35 41 40 43 39 39 44 43 47 50 53 64 71 71 63
24 24 24 27 33 37 38 37 38 40 35 42 45 52 62 71 72 66 71 74 76 75 85 73 63 45 39 40 48 51 53 43 45 44 48 53 57 60 58 58 57 58 59
22 22 23 22 22 22 24 25 24 24 25 30 37 42 48 49 48 52 59 75 89 78 71 70 45 40 49 64 66 58 51 46 48 48 61 63 66 70 70 67 65 68 69
22 23 23 24 26 27 29 29 28 27 26 27 34 42 39 42 43 50 68 88 97 72 71 41 40 62 74 82 71 74 58 56 60 56 57 70 72 72 73 72 75 72 69
29 29 28 27 26 26 27 27 29 28 28 39 39 29 29 34 36 73 76 83 68 52 43 46 76 87 100 82 79 72 68 61 64 61 56 60 70 74 78 82 84 80 78
25 25 25 27 30 31 32 32 31 29 30 30 28 28 31 43 58 70 58 57 53 46 57 70 98 100 100 90 83 74 68 68 72 70 69 65 69 76 79 80 81 81 76
24 24 25 28 29 29 30 31 28 27 27 28 27 27 28 44 48 50 42 50 54 66 88 100 100 100 96 88 83 72 66 72 77 73 76 74 78 79 80 82 82 84 78
24 25 25 23 23 26 28 28 28 29 29 28 29 34 34 38 40 51 54 57 76 98 100 100 94 99 89 93 82 74 68 75 74 78 72 69 73 78 80 82 84 82 80

GFSMA_250_rhum_084.txt.gz
RH
91 88 77 69 64 54 52 47 46 47 47 49 52 55 56 61 65 68 73 77 78 80 89 100 91 86 89 79 66 62 56 50 66 91 97 74 70 61 63 62 46 52 56
88 87 86 79 74 69 62 59 63 67 71 65 63 65 68 69 73 79 85 83 83 94 100 83 89 93 93 78 69 57 62 70 100 97 85 70 66 66 62 57 60 61 53
100 100 95 89 83 79 82 80 76 76 80 83 82 86 86 88 90 91 86 98 100 100 88 92 96 95 76 81 71 76 79 94 88 94 85 75 68 65 65 66 56 65 45
100 100 100 100 98 91 92 88 84 87 97 100 100 100 100 99 98 100 100 100 100 99 92 93 100 97 92 86 87 92 94 84 84 81 85 84 67 83 65 65 55 58 43
100 100 100 100 100 100 97 100 100 100 100 100 100 100 100 100 100 100 100 100 100 94 95 100 100 98 94 93 91 82 82 82 95 95 90 80 79 70 67 59 73 48 50
100 100 100 100 100 100 100 100 100 100 100 100 100 100 100 100 100 100 100 100 100 96 100 100 100 100 100 92 91 99 97 100 100 88 96 81 77 64 58 76 67 42 50
100 100 100 100 100 100 100 100 100 100 100 100 100 100 100 100 100 100 98 100 100 96 91 99 94 89 89 89 93 100 100 100 100 96 88 89 76 67 72 67 43 49 40
97 89 90 100 98 100 100 100 100 100 100 100 100 100 100 100 98 86 92 95 96 98 88 86 75 71 85 91 100 100 100 100 94 100 98 86 77 85 70 39 34 46 36
100 100 100 100 100 100 95 100 93 96 100 100 100 100 100 99 94 98 89 90 91 92 92 85 100 100 100 100 100 100 100 100 100 100 97 99 85 71 47 37 32 48 36
98 100 93 90 100 100 100 100 100 100 100 99 91 70 59 69 90 96 96 93 94 97 100 100 100 100 100 100 100 100 100 100 100 88 95 79 70 38 31 32 39 41 28
84 84 92 100 100 100 100 77 74 86 89 88 73 100 100 89 86 86 96 98 100 100 100 100 100 100 100 100 100 100 100 100 100 82 82 41 30 30 31 41 54 34 25
100 98 97 96 100 100 100 100 100 100 100 100 99 96 100 100 100 100 100 100 100 100 100 100 100 100 100 100 100 100 100 88 98 70 34 24 31 27 30 51 49 32 27
100 100 100 100 100 100 100 100 100 88 84 86 76 76 78 94 98 99 100 100 100 100 100 100 100 100 100 100 100 100 93 87 52 25 25 27 28 32 38 50 40 33 25
100 95 89 87 79 72 63 71 83 79 78 87 97 100 100 100 100 100 100 100 100 100 100 100 100 100 97 99 100 99 71 37 25 26 27 27 27 35 54 42 36 32 26
98 99 100 100 100 99 94 95 100 100 100 100 100 100 100 100 100 100 100 100 100 100 100 100 100 100 100 92 71 41 28 26 29 30 29 32 34 48 49 38 38 36 31
100 100 100 100 100 100 100 100 100 100 100 99 96 100 97 100 100 100 100 100 100 100 100 91 65 37 39 39 34 30 27 31 33 33 31 30 46 62 46 47 45 39 39
99 98 90 96 99 96 90 94 93 94 94 100 87 71 84 76 69 62 62 52 44 36 29 28 29 31 32 30 30 30 34 36 43 34 32 41 65 59 56 63 52 43 44
84 78 68 68 70 79 75 80 77 78 68 62 63 69 74 59 37 30 28 28 28 30 29 29 29 30 31 30 34 37 37 37 45 35 42 74 72 64 63 73 54 52 47
100 97 95 99 87 92 83 67 64 55 39 34 38 42 34 32 31 31 30 30 29 28 29 29 31 31 32 32 35 34 35 41 41 45 56 82 67 80 81 73 58 58 56
28 28 28 30 33 29 29 31 33 34 35 33 32 31 30 30 28 28 27 28 28 30 31 30 30 32 35 37 36 37 39 46 51 55 71 78 80 89 90 75 68 62 60
28 28 29 30 30 31 32 32 30 31 28 27 27 27 27 26 28 29 29 30 32 31 33 35 36 34 34 36 36 34 35 45 62 79 79 95 92 94 90 75 71 69 62
31 32 32 32 32 31 30 29 28 28 28 28 28 30 32 32 30 32 32 33 33 32 34 35 33 32 37 37 34 34 53 61 76 92 84 93 100 94 82 75 75 77 76
33 34 34 33 32 32 31 31 31 31 30 27 26 24 25 27 27 25 26 26 28 28 29 32 37 38 39 38 39 53 60 85 93 93 100 100 100 83 77 83 78 81 78
28 27 26 25 23 22 21 21 21 20 20 20 20 22 22 22 21 22 22 23 24 28 32 34 36 37 37 44 58 67 81 84 94 100 100 97 90 84 84 85 82 82 79
24 23 21 21 21 21 20 18 19 20 19 18 17 17 18 19 21 23 23 26 26 29 32 40 45 45 55 63 71 85 88 91 100 100 100 100 95 98 95 86 87 82 77
17 17 17 17 17 18 18 17 18 18 20 20 20 20 21 22 24 26 27 29 31 34 38 44 53 64 67 80 87 93 98 100 100 100 100 100 100 100 90 85 86 76 82

GFSMA_250_rhum_087.txt.gz
RH
100 100 87 86 89 85 78 74 70 65 60 60 60 66 72 76 78 80 78 84 89 91 93 99 100 88 80 83 86 81 79 80 73 68 67 61 65 71 78 71 60 64 73
100 100 100 91 92 94 84 83 78 72 71 79 87 94 95 96 98 99 100 99 99 100 100 100 95 91 95 86 87 87 82 71 63 60 58 79 71 84 77 67 66 64 59
100 100 100 100 100 100 100 94 91 94 90 96 98 96 100 100 100 98 100 100 100 100 99 92 91 98 95 82 85 81 66 77 68 61 85 93 88 83 74 77 63 65 52
100 100 100 100 100 100 100 100 100 100 100 100 100 100 100 100 100 100 100 100 96 100 82 95 97 98 96 90 93 86 89 74 66 77 84 97 96 94 87 85 70 53 31
99 100 100 100 100 96 100 100 100 100 100 100 100 100 100 95 98 99 99 100 100 93 81 88 94 90 98 100 98 93 75 83 87 99 95 91 100 97 92 67 56 44 26
100 100 100 100 100 100 100 100 94 100 100 100 100 97 100 100 100 100 100 100 100 88 90 94 99 100 96 94 80 73 84 100 100 100 100 100 94 84 73 56 49 26 26
100 100 100 100 100 100 100 100 93 100 100 100 100 100 100 98 97 100 100 100 90 92 92 97 90 85 81 80 83 100 100 100 100 100 100 100 90 77 68 63 29 24 25
100 94 98 95 96 95 98 86 90 95 92 98 100 100 100 84 87 94 87 86 99 87 79 72 78 70 87 100 100 100 100 100 100 100 100 90 84 70 65 36 24 25 25
100 100 88 91 78 81 54 42 44 67 80 78 90 83 94 80 71 93 89 92 80 74 72 81 93 100 100 100 100 100 100 100 100 100 100 94 79 80 37 25 26 26 28
100 100 100 100 97 100 98 83 70 56 64 68 66 69 73 77 100 100 79 68 69 93 100 100 100 100 100 100 100 100 100 100 100 100 97 89 69 34 29 26 27 28 27
73 100 100 100 100 100 96 98 94 86 64 63 76 82 96 99 75 66 96 100 100 100 98 96 100 100 100 100 100 100 100 100 100 100 94 47 33 29 27 28 30 29 32
69 65 100 100 100 100 98 66 60 68 68 70 78 66 78 87 100 86 100 100 100 80 98 100 100 100 100 100 100 100 100 98 93 70 31 29 30 30 31 33 34 31 39
100 100 100 100 99 83 89 91 85 94 89 92 64 91 99 100 100 92 80 93 77 100 100 100 100 100 98 99 87 78 57 42 33 31 30 30 30 31 32 34 35 36 49
100 100 100 100 100 100 98 94 98 87 97 100 78 99 100 100 100 100 98 99 100 100 100 100 100 92 77 86 67 44 32 31 29 32 29 31 31 32 35 36 36 44 59
100 99 99 89 89 93 89 100 100 100 100 100 99 96 100 91 90 100 100 100 99 99 86 100 97 72 51 50 37 33 31 32 31 32 31 33 35 35 36 37 41 46 66
83 77 80 82 94 97 98 100 100 95 99 100 100 90 96 100 100 100 95 90 88 91 75 78 56 39 38 34 32 34 34 34 34 34 34 37 39 38 37 42 45 57 62
100 100 100 100 100 100 100 100 100 100 100 97 100 100 100 100 97 95 100 98 100 66 35 31 32 32 32 34 34 33 32 34 34 35 37 40 39 39 40 48 60 68 64
100 100 100 100 100 100 100 100 100 100 100 98 100 100 92 97 100 58 44 33 30 30 35 36 33 30 31 31 32 33 34 35 36 38 41 41 40 38 47 66 75 82 68
92 96 98 99 100 100 100 99 92 81 91 99 100 100 100 57 30 28 26 26 27 29 31 32 31 29 33 34 34 36 37 36 38 40 43 41 43 42 64 84 89 83 90
91 100 100 100 100 99 100 100 100 85 44 31 32 32 31 29 28 27 28 28 28 28 29 31 33 34 35 32 35 38 37 38 39 40 40 43 43 50 84 96 97 100 93
31 32 34 37 38 37 35 33 32 32 32 31 29 30 28 26 27 26 26 27 28 29 32 30 29 31 30 30 33 32 36 34 41 44 45 44 57 75 87 98 100 100 89
32 31 30 30 30 30 30 30 30 29 29 28 29 29 27 26 26 26 26 30 30 21 20 20 21 22 25 26 29 31 36 43 42 42 48 72 76 82 95 100 100 100 87
32 32 33 33 32 32 33 33 31 29 30 30 30 30 31 30 26 22 18 18 19 19 19 18 19 20 22 27 30 34 38 45 52 58 78 80 89 92 100 100 100 99 87
25 27 28 30 32 33 34 34 32 31 29 24 20 18 17 16 16 16 16 15 15 17 18 20 22 23 26 32 37 40 49 61 71 87 90 93 92 100 100 100 100 100 100
18 19 19 18 18 18 18 18 18 18 17 17 17 16 16 16 15 17 17 19 21 23 25 24 28 32 38 40 41 52 68 72 87 94 97 98 100 100 100 100 100 100 93
19 19 18 18 17 17 18 18 18 17 18 19 20 20 18 19 20 20 21 23 28 30 33 35 38 45 49 53 61 70 81 91 96 99 100 100 100 100 100 100 100 98 91

GFSMA_250_rhum_090.txt.gz
RH
100 100 100 100 100 99 93 83 86 89 92 93 88 86 88 93 85 84 88 99 93 86 100 100 99 88 79 72 80 81 94 95 79 73 64 55 59 88 89 84 75 64 58
100 100 100 100 100 100 99 98 95 97 100 99 99 100 100 99 99 98 98 100 99 87 96 98 98 79 84 83 86 95 86 62 61 53 49 68 95 100 90 87 68 69 61
100 100 100 100 97 100 99 100 100 100 92 90 100 100 100 100 100 97 100 99 94 100 96 100 90 88 76 99 98 88 73 65 55 52 82 95 100 94 100 83 75 67 67
100 99 100 100 100 100 100 98 100 100 100 93 100 100 98 97 98 90 82 96 88 98 83 93 85 78 97 89 84 71 67 54 75 86 100 86 92 99 79 90 87 68 51
90 98 100 100 100 100 99 100 100 95 93 92 88 70 74 69 84 79 72 73 74 83 90 74 91 93 87 77 75 73 60 100 98 89 87 100 96 83 87 99 74 54 34
85 90 100 100 100 95 75 65 59 57 65 66 60 79 89 64 61 53 50 60 77 89 67 78 76 78 74 75 68 71 100 86 72 89 100 99 98 96 84 64 58 35 29
85 100 89 73 72 87 72 79 68 71 73 64 69 88 69 46 47 53 46 35 50 66 73 73 73 70 75 63 86 100 94 86 84 95 100 100 91 82 63 36 32 30 26
79 87 71 42 52 80 73 74 58 79 90 79 79 78 64 72 66 68 44 45 54 64 78 65 74 64 70 100 99 97 89 89 100 100 98 95 80 71 51 29 29 29 27
78 68 92 76 82 74 96 87 56 54 46 50 52 74 98 74 40 57 61 60 70 65 74 72 65 79 95 100 88 93 88 100 100 100 100 90 69 64 34 30 28 29 28
100 98 98 84 100 89 100 100 96 79 67 61 62 60 65 90 99 96 87 87 99 93 68 68 86 86 99 95 99 94 100 98 100 93 95 89 65 39 34 30 32 32 31
100 100 100 89 100 100 100 100 100 100 100 96 90 58 66 94 100 75 100 73 81 85 81 87 85 93 91 97 98 100 100 100 92 96 62 58 39 35 34 32 31 32 32
100 100 100 100 100 100 100 100 100 100 100 100 89 95 99 90 79 78 70 77 69 83 91 83 94 94 100 100 100 100 98 100 95 56 49 41 36 34 34 36 34 36 36
100 100 99 100 100 100 93 94 92 77 68 72 84 82 92 80 89 96 79 60 80 100 85 92 98 100 97 100 100 94 82 61 63 41 39 37 34 35 36 35 36 37 39
100 100 100 100 99 96 98 91 78 79 93 99 100 100 100 99 91 69 62 86 100 89 94 100 100 100 100 100 100 100 51 33 35 36 36 36 35 36 37 37 38 41 40
100 100 100 100 100 100 100 100 100 99 100 100 100 100 100 99 84 71 94 86 100 100 100 100 100 100 92 84 100 62 33 32 35 33 35 36 36 38 37 41 44 46 45
100 100 100 100 100 100 100 100 100 100 100 100 98 96 82 74 68 89 100 100 100 100 100 100 94 96 57 39 33 32 32 31 32 33 36 38 38 41 42 46 46 48 50
100 100 100 100 100 100 100 100 100 99 85 99 81 67 74 98 100 100 100 100 100 99 99 99 89 68 30 31 32 31 32 32 32 33 39 40 39 41 48 46 46 52 48
78 67 64 92 100 100 100 100 100 100 100 70 98 100 100 100 100 100 97 87 100 82 73 85 38 31 28 30 29 30 30 34 34 30 30 35 42 48 46 50 50 49 57
100 100 100 100 100 100 100 99 95 93 94 100 100 100 100 100 97 98 94 85 82 58 34 29 29 25 25 28 28 30 33 33 32 28 34 37 39 39 45 48 54 55 69
100 100 100 100 100 100 100 100 100 100 100 100 100 90 92 98 100 82 40 36 31 28 27 23 23 24 24 27 27 25 26 24 25 26 26 31 35 39 47 53 56 69 87
74 74 72 66 78 87 85 91 100 100 100 100 100 99 51 31 34 30 29 28 26 24 24 22 23 26 24 20 21 22 22 22 22 24 27 32 41 42 46 54 62 88 95
100 100 100 100 100 100 100 100 100 100 100 64 40 31 30 30 29 28 25 25 25 23 23 22 16 19 19 19 20 20 20 21 24 32 34 40 50 53 57 65 80 99 100
39 38 38 39 38 38 37 50 67 63 36 34 35 32 32 32 30 28 26 23 16 14 15 15 16 17 17 17 19 22 25 30 36 41 46 52 58 60 75 87 89 98 100
30 30 31 31 33 36 38 38 38 37 36 34 32 30 28 25 20 15 14 15 15 15 14 16 17 19 21 22 28 35 39 36 40 47 57 63 69 81 87 95 100 100 100
26 27 28 28 30 30 30 31 30 27 25 21 17 16 16 15 16 14 15 16 18 22 21 24 24 24 28 30 36 40 48 55 60 65 69 78 84 88 96 100 100 100 100
18 19 19 19 19 18 18 17 17 16 16 16 16 16 16 16 18 21 24 25 24 23 22 23 24 26 31 36 41 46 54 60 66 67 83 91 95 95 97 100 100 100 100

GFSMA_250_rhum_093.txt.gz
RH
95 100 100 100 100 100 100 100 100 100 100 93 84 100 91 70 76 87 100 94 78 85 78 83 62 59 48 58 82 78 67 68 67 65 55 52 80 69 57 99 96 68 48
100 100 100 100 100 100 99 100 100 100 86 82 77 80 85 72 65 66 69 62 73 70 56 45 44 38 35 48 80 60 56 61 58 56 59 82 68 71 88 99 73 71 56
100 81 96 100 100 84 79 64 78 96 94 94 100 99 52 35 44 47 52 53 64 54 47 53 50 46 44 64 72 60 54 56 66 55 52 91 68 74 100 72 78 73 60
100 100 90 85 65 72 83 84 86 99 92 79 60 74 67 51 50 41 47 50 56 58 62 71 60 57 65 62 70 64 72 60 52 59 85 65 68 100 98 88 74 75 44
90 73 66 74 72 64 72 86 100 94 100 92 82 78 60 55 58 63 69 56 62 63 76 79 81 62 68 62 62 72 65 53 52 59 67 92 80 100 78 90 75 77 37
100 84 66 62 54 67 87 86 100 100 73 90 70 58 70 50 59 66 69 74 56 61 73 80 41 64 87 97 82 68 72 58 56 79 98 93 96 100 100 90 57 42 38
100 100 84 52 60 65 96 100 100 81 67 38 48 55 48 58 66 59 54 53 59 67 60 49 55 76 89 82 61 73 78 63 66 81 96 100 100 100 85 78 34 35 35
100 86 72 36 52 95 55 56 59 44 48 48 33 33 43 42 35 46 46 47 49 53 62 69 77 75 71 67 65 71 85 67 80 97 100 100 100 82 73 59 32 35 34
75 68 53 52 81 71 50 48 49 31 27 28 30 43 32 28 35 47 58 52 63 74 74 72 69 72 72 74 64 58 80 92 88 98 100 100 96 65 48 36 32 34 30
100 100 98 100 100 90 59 51 41 40 32 41 25 33 34 45 56 57 78 86 80 54 71 57 85 66 86 62 62 65 91 96 100 100 100 100 92 68 36 32 32 32 31
100 100 100 100 100 100 100 100 92 97 92 65 72 59 52 53 68 78 73 85 72 80 73 100 68 92 88 72 60 62 92 100 100 100 100 93 97 58 32 31 32 33 34
100 100 100 100 100 100 100 91 100 100 100 100 91 89 87 95 84 93 93 75 92 86 97 92 100 100 90 67 68 80 99 100 100 100 100 92 69 35 34 34 33 35 39
100 100 100 98 100 100 100 100 97 100 100 100 96 100 100 100 100 99 93 100 100 98 91 100 100 100 80 68 98 100 100 100 100 100 82 65 50 35 32 34 36 38 39
100 100 100 100 100 100 95 100 100 100 100 100 100 79 99 93 100 94 97 100 87 100 100 100 76 90 85 82 100 100 100 94 93 53 42 36 35 32 32 33 35 40 42
100 100 100 100 100 100 100 100 97 98 100 100 100 100 100 100 99 85 97 100 100 97 98 100 98 91 90 100 100 76 99 100 70 36 34 33 32 33 34 34 39 37 45
100 100 100 100 100 100 100 100 97 96 98 96 94 72 100 90 100 100 100 100 100 95 87 100 99 76 100 100 100 93 82 35 31 35 32 31 34 35 34 29 31 37 43
100 100 100 100 100 100 100 100 100 100 98 100 94 99 100 99 93 100 98 100 100 97 98 100 85 96 100 75 90 77 30 31 31 32 33 35 34 31 29 27 32 38 37
100 100 100 100 100 100 100 100 100 100 100 100 100 100 100 100 71 82 99 100 100 100 87 70 65 67 74 100 76 32 30 30 32 33 34 32 27 24 27 29 29 32 37
100 100 100 100 97 84 77 91 92 92 100 98 75 77 88 84 100 100 100 100 100 100 72 66 78 80 93 78 33 31 29 30 27 25 23 22 24 24 26 27 28 34 39
91 78 66 55 53 55 50 56 65 68 79 94 100 100 100 100 99 100 98 97 70 62 66 66 33 35 38 34 30 28 26 20 19 19 20 20 21 23 25 29 32 38 49
99 100 100 100 100 100 100 100 100 100 100 100 100 100 100 100 86 85 79 83 88 68 42 36 34 34 30 28 20 18 18 19 18 19 20 23 24 25 33 36 44 48 55
100 100 100 88 80 71 75 79 87 83 94 100 94 76 62 70 92 100 95 76 40 35 36 33 31 27 19 17 16 16 16 17 20 26 26 26 30 37 42 46 62 57 58
99 98 97 95 84 74 74 80 82 79 78 86 100 100 91 78 63 48 40 34 31 31 31 26 19 17 16 16 17 19 21 21 26 29 37 44 48 60 65 60 65 74 81
100 100 99 97 97 99 99 94 65 65 69 64 47 39 33 28 25 25 26 28 29 24 18 16 17 17 20 22 19 18 20 23 26 30 42 56 62 73 78 71 73 83 96
57 54 52 50 47 44 40 38 35 30 24 22 22 23 25 26 25 24 25 21 18 17 18 20 23 22 19 18 21 22 23 25 30 40 53 62 69 75 84 87 95 97 100
24 22 21 20 20 21 21 22 23 25 25 26 25 24 23 21 20 18 17 17 18 24 23 23 21 20 21 22 24 26 29 30 36 43 57 68 79 90 95 96 100 100 100

GFSMA_250_rhum_099.txt.gz
RH
100 99 88 80 100 100 99 94 100 73 70 50 53 55 77 82 92 64 50 51 100 81 60 46 46 42 38 45 33 42 48 41 48 56 48 50 46 50 62 60 74 100 100
100 100 100 100 100 100 100 100 99 90 66 59 61 90 82 54 55 49 42 72 70 79 67 46 45 38 31 25 28 37 44 47 55 48 49 48 62 61 75 75 79 93 97
100 100 100 99 100 100 100 100 100 94 58 52 49 64 76 67 52 48 74 95 96 98 74 68 56 31 29 24 22 32 30 32 44 37 44 53 56 64 67 96 96 100 100
100 100 100 100 96 100 100 100 100 89 46 41 46 46 45 31 45 87 91 93 86 80 79 62 61 47 31 24 20 22 27 37 36 38 52 45 66 80 75 87 95 100 100
100 99 100 100 96 100 100 100 94 85 51 53 50 34 36 37 47 100 87 80 75 68 55 46 43 39 24 18 19 26 36 37 36 44 51 61 77 73 96 100 97 100 100
100 100 100 93 88 100 100 100 94 70 46 47 41 45 34 35 97 99 99 92 70 79 72 59 39 33 26 26 25 53 59 42 54 50 53 66 87 91 92 100 100 100 100
100 100 80 97 100 100 100 100 99 84 70 63 99 74 62 39 43 100 100 100 89 71 40 55 63 37 26 27 29 61 63 43 61 81 86 97 100 100 91 100 100 92 100
100 100 100 100 100 100 100 100 96 90 75 91 100 100 83 77 69 45 33 29 46 43 36 49 32 23 22 28 72 62 60 56 70 80 93 99 100 100 100 100 100 100 100
97 99 97 100 100 100 100 100 100 94 100 100 100 100 100 83 61 53 44 34 43 56 29 30 28 32 53 88 90 75 60 72 88 89 80 98 100 100 100 99 100 100 98
99 100 100 100 100 100 100 100 100 100 100 100 100 97 72 61 46 47 42 43 43 39 37 38 34 62 80 99 85 94 90 87 97 98 100 100 100 100 100 100 100 100 69
100 100 100 100 100 100 100 100 100 100 100 89 68 61 53 42 42 57 32 32 43 54 47 75 82 85 89 82 92 84 90 100 100 100 100 100 96 96 100 100 87 67 65
100 100 100 100 100 100 100 98 100 100 91 96 100 90 84 86 90 77 58 75 57 87 81 82 87 84 94 86 86 91 99 100 100 100 100 100 100 98 53 61 74 50 35
100 100 100 99 93 100 96 89 89 87 89 89 91 90 96 66 52 48 65 78 99 84 98 89 100 99 81 99 83 100 100 73 100 100 93 100 90 51 46 54 77 36 30
100 100 100 100 94 97 86 70 91 82 99 88 77 86 92 64 71 87 98 99 100 100 100 100 96 91 100 100 100 98 100 100 98 100 96 72 52 58 54 42 44 29 32
100 90 75 73 65 82 68 48 60 59 64 81 56 68 84 81 100 93 100 100 75 95 100 100 100 100 91 92 99 100 100 98 99 97 85 50 84 68 39 23 25 23 22
89 95 100 90 100 85 73 84 85 84 97 100 100 95 100 84 100 100 95 100 95 100 100 100 100 98 97 100 100 100 87 81 93 93 70 43 55 39 20 23 21 19 20
100 100 100 100 100 100 100 100 100 100 100 100 100 97 100 100 100 100 100 100 95 83 92 100 97 91 100 100 100 85 79 87 90 76 52 47 44 20 18 18 16 15 16
100 100 100 100 100 100 100 100 100 100 100 100 100 100 100 100 100 100 100 98 100 100 98 74 100 100 99 100 86 82 74 74 52 50 50 35 17 18 16 14 14 17 20
100 99 100 100 100 100 100 100 100 100 100 100 100 100 100 100 100 100 96 92 70 100 100 100 100 100 98 78 100 74 47 43 66 51 37 15 16 14 12 13 16 18 24
100 100 100 100 100 100 100 100 100 100 100 94 100 100 98 100 100 100 100 100 100 95 97 75 64 90 92 90 81 44 71 61 58 31 18 17 14 12 13 15 15 18 23
100 100 100 100 100 100 100 100 85 87 98 100 100 100 100 100 100 100 100 99 90 77 69 80 77 86 84 65 44 50 60 53 31 16 18 16 12 14 16 14 16 18 24
100 100 100 100 100 97 83 98 100 100 83 100 100 98 87 86 70 73 85 97 92 85 73 65 55 45 52 67 55 59 33 27 19 18 16 13 16 17 16 17 19 21 29
100 100 95 94 99 100 90 100 94 94 99 100 98 86 70 68 55 76 67 56 70 67 69 78 75 65 74 66 67 44 28 18 18 16 15 20 19 18 19 20 22 26 34
96 94 91 87 75 99 98 100 98 95 96 100 100 79 80 72 94 100 100 94 86 87 84 55 67 88 78 63 46 21 18 18 16 18 23 21 21 25 24 23 24 30 45
79 74 74 76 75 69 88 84 92 100 100 97 66 67 74 68 73 87 100 79 100 98 76 82 74 63 45 24 20 18 18 16 19 27 24 27 34 32 28 30 30 39 51
66 61 64 64 71 75 77 67 74 89 77 76 72 78 92 100 100 95 75 86 85 98 96 66 28 26 23 19 19 19 19 25 30 25 31 43 42 37 38 40 44 52 65

GFSMA_250_rhum_102.txt.gz
RH
85 94 96 100 99 93 86 69 89 100 100 100 99 76 56 63 58 78 86 84 76 64 62 51 59 76 80 61 51 42 36 31 24 21 21 21 38 44 59 92 96 93 93
100 69 55 56 62 78 100 100 100 100 100 100 100 89 50 50 56 69 88 90 73 59 70 80 71 70 68 78 77 63 47 37 28 24 22 27 44 53 61 70 73 100 100
100 100 83 65 71 90 100 100 100 100 96 100 95 90 73 40 54 46 56 73 52 53 88 71 87 57 45 44 53 40 43 37 32 27 23 40 70 76 67 88 93 98 100
100 100 100 100 100 100 100 100 100 100 100 100 96 87 85 58 46 49 43 32 32 57 37 30 58 58 63 49 41 49 46 44 40 25 22 67 75 86 88 97 100 100 100
100 100 100 100 100 100 100 100 100 100 100 100 77 86 78 69 52 51 45 37 34 32 38 60 41 61 76 78 73 53 44 36 23 25 39 85 80 84 61 96 100 100 100
100 100 100 100 100 100 100 100 100 94 100 100 93 90 88 73 49 56 59 58 54 40 39 92 99 78 48 49 31 34 30 28 25 28 76 86 78 68 100 100 100 100 100
100 99 98 100 100 100 100 100 100 100 100 100 100 100 80 82 90 79 89 62 66 55 49 42 40 28 21 25 34 38 34 36 37 82 76 100 82 76 68 100 100 100 100
100 100 100 100 100 100 100 93 98 94 100 100 100 100 97 100 100 93 89 92 99 82 58 50 29 28 34 28 36 56 34 51 63 82 89 90 85 90 64 100 100 100 96
100 100 100 100 100 100 100 100 100 100 100 100 100 100 100 100 99 100 90 90 74 65 49 33 28 25 28 26 40 38 52 70 74 79 85 100 99 100 100 100 100 94 91
100 100 100 100 100 100 98 100 100 100 100 100 100 94 84 87 86 79 66 85 75 48 49 49 48 26 33 53 55 65 96 66 94 100 90 79 94 92 100 100 100 100 87
84 92 100 100 100 100 100 100 100 100 100 100 100 100 93 90 96 98 68 74 68 54 41 34 61 54 49 53 49 86 84 100 95 100 100 100 86 100 100 100 100 100 98
100 100 100 100 100 100 100 100 100 100 100 100 100 95 100 84 91 86 81 61 57 59 55 56 47 48 68 73 97 67 76 95 97 96 100 100 99 100 100 100 100 98 88
100 98 100 100 100 100 100 100 100 100 100 100 93 96 92 98 89 79 64 56 65 52 57 72 60 45 54 86 94 100 93 100 82 100 97 92 100 88 100 95 100 99 79
100 100 100 100 100 100 100 100 100 100 100 100 100 95 94 96 87 69 64 60 54 60 77 79 83 79 60 91 87 99 100 100 100 100 100 100 100 97 100 80 82 87 72
100 94 100 100 96 98 87 79 77 73 84 84 99 85 83 86 77 65 60 62 64 89 82 82 77 82 95 100 100 100 100 100 100 100 100 100 93 93 98 66 50 48 37
100 100 92 100 100 93 82 100 87 87 93 94 100 100 100 75 77 65 50 59 66 89 88 99 100 100 86 97 90 100 100 100 100 99 94 100 89 86 75 56 47 29 14
100 94 88 77 100 99 100 100 100 100 96 90 85 97 91 88 81 84 61 73 88 100 100 100 100 100 99 88 100 100 99 92 99 100 100 85 97 85 58 49 34 14 13
100 100 100 100 100 95 100 99 94 92 88 72 73 63 77 80 99 100 100 100 100 100 98 100 100 100 100 78 78 100 100 100 85 75 67 60 58 61 50 29 18 12 11
100 100 100 100 100 100 100 100 99 100 100 99 100 100 100 100 100 100 100 100 100 100 99 100 100 100 100 100 100 90 77 71 64 60 62 95 80 51 30 21 13 11 14
100 100 100 100 100 100 100 100 100 100 100 100 100 100 100 100 100 92 100 100 90 80 100 100 100 95 83 100 62 74 83 82 74 58 67 59 48 31 17 13 11 14 16
100 100 100 100 100 100 100 100 100 100 100 100 100 100 100 100 100 100 100 100 100 98 82 100 95 100 71 98 94 100 100 82 67 86 57 44 28 17 14 13 13 17 14
100 100 100 100 72 95 100 100 100 100 100 100 100 100 100 100 100 100 100 100 100 100 100 98 89 88 62 100 86 68 83 63 64 51 47 24 18 15 14 14 18 16 21
100 100 100 100 100 100 100 100 100 82 72 66 69 89 100 100 100 100 100 100 100 100 83 87 79 74 83 100 94 84 69 71 57 54 26 18 16 16 18 20 19 22 28
100 100 100 100 100 100 100 100 100 100 100 100 100 100 100 100 100 100 100 100 100 100 87 89 68 77 88 79 87 56 55 60 50 26 19 18 16 19 24 23 24 32 30
100 96 100 100 100 100 100 100 100 100 100 100 100 100 100 100 100 100 100 94 100 78 80 86 78 64 83 76 78 72 48 44 20 20 19 17 21 27 28 31 35 38 33
59 56 57 55 65 68 85 91 98 97 100 100 100 100 97 100 100 98 100 99 96 90 78 96 87 94 73 63 66 43 36 24 21 20 19 24 31 30 34 49 49 43 37

GFSMA_250_rhum_105.txt.gz
RH
99 72 63 90 100 100 94 69 82 81 97 100 100 100 100 100 89 44 55 45 36 47 77 94 84 76 53 37 31 49 72 61 61 54 54 64 45 36 28 28 64 91 43
100 94 82 90 93 96 74 59 55 58 73 100 100 100 100 100 88 66 61 53 44 41 46 64 80 57 31 28 38 42 55 62 71 82 94 71 28 26 27 54 71 69 44
100 100 100 100 99 99 100 99 71 74 90 100 100 100 100 100 87 74 61 58 53 52 46 41 32 29 29 26 31 61 38 62 33 38 28 47 28 27 30 72 72 73 91
100 100 100 100 100 100 100 99 100 100 100 100 100 100 100 94 80 74 54 55 61 51 46 42 43 41 35 29 34 45 48 30 20 20 38 50 53 29 73 90 90 82 50
100 100 100 100 100 100 100 100 100 100 100 100 100 100 100 84 68 76 63 81 84 81 52 47 57 54 46 37 38 42 37 23 20 19 24 36 31 62 73 91 100 74 73
100 100 100 100 100 100 100 100 100 100 100 100 100 100 100 100 99 64 83 100 99 86 86 74 61 42 40 44 49 43 31 29 28 25 31 45 51 65 82 81 99 92 72
100 100 100 100 100 100 100 100 100 100 100 100 100 100 91 81 76 85 100 100 100 98 94 78 61 64 49 57 60 44 40 44 28 31 32 50 81 85 100 100 100 100 83
100 100 100 97 100 100 100 100 100 100 93 100 70 73 100 97 100 100 97 100 100 95 97 75 63 61 81 83 56 46 38 36 32 33 43 48 80 70 83 100 97 100 71
88 100 100 92 94 94 98 100 100 100 100 82 80 100 100 100 100 100 82 90 100 91 94 71 67 59 76 72 55 44 42 46 31 39 42 49 90 100 63 100 95 100 100
99 100 100 100 99 100 100 100 100 100 98 87 98 100 100 100 100 100 95 100 98 94 83 65 73 96 83 65 51 36 37 36 48 46 45 66 80 100 95 94 76 100 100
100 100 100 100 100 100 100 100 100 100 100 100 96 100 98 87 82 94 99 96 97 82 78 70 92 98 67 62 48 45 39 47 56 64 57 76 59 93 83 100 100 100 100
100 100 100 100 86 86 94 98 100 100 100 100 76 78 85 86 86 78 83 92 96 77 96 99 95 85 73 57 44 36 37 46 79 56 88 74 75 100 100 100 97 100 100
100 100 100 100 100 94 100 100 100 100 89 86 79 96 100 100 100 100 100 100 100 97 84 70 77 80 72 52 49 48 59 52 69 78 77 94 94 100 100 100 100 76 48
100 100 100 99 100 100 100 100 96 100 100 95 94 81 90 86 100 100 86 97 100 100 86 66 70 60 70 65 68 55 60 53 54 93 99 80 100 100 100 99 100 83 90
100 100 100 98 99 100 100 100 100 100 98 99 100 99 100 100 100 100 88 74 79 77 77 92 84 67 72 76 49 68 81 98 100 100 100 100 100 99 100 72 76 84 95
100 98 100 100 86 94 95 98 100 100 100 100 100 97 94 91 80 90 88 95 79 100 99 76 66 68 57 50 91 60 74 90 100 100 99 98 100 100 61 92 84 98 54
100 100 94 98 91 96 95 99 100 100 100 99 89 74 58 60 96 100 97 100 100 81 96 83 72 74 73 98 99 100 100 100 100 100 100 100 100 72 89 100 95 71 50
100 100 100 100 100 100 88 94 100 100 100 100 100 100 100 79 100 100 99 87 89 78 57 82 85 80 100 100 97 100 100 100 96 100 89 96 75 73 98 91 75 54 42
100 100 100 100 100 100 100 100 100 84 100 100 100 98 97 97 98 90 100 74 82 86 82 92 100 100 100 100 100 100 100 100 100 92 97 100 88 88 98 83 58 36 20
100 100 100 100 100 100 100 100 100 100 100 100 98 97 98 100 100 100 88 94 100 100 100 99 93 100 97 86 92 100 95 100 83 99 97 85 87 98 70 61 40 34 12
100 100 100 100 100 100 100 100 100 100 100 100 100 100 100 100 100 100 100 86 68 100 100 100 78 100 100 100 100 99 79 94 91 90 99 88 95 86 64 66 26 12 13
100 100 100 100 97 92 100 100 100 100 100 100 100 100 100 98 100 100 100 100 100 100 100 100 100 100 100 100 100 100 100 72 90 100 91 90 90 79 79 36 16 13 16
100 100 100 97 100 100 100 100 100 87 80 71 78 84 85 93 79 83 100 100 100 100 100 100 100 100 100 90 98 99 93 97 95 100 100 87 85 77 53 21 17 16 20
100 99 100 100 100 100 100 100 100 100 100 100 100 100 100 100 100 100 100 100 100 100 100 100 100 100 100 100 100 100 92 92 100 99 99 89 72 56 20 17 21 24 25
100 100 100 100 100 100 100 100 100 100 100 100 100 100 100 100 100 99 100 100 100 100 98 100 100 100 92 100 95 100 100 100 79 87 75 61 54 24 20 23 28 32 28
74 88 82 84 75 85 87 72 80 92 92 86 95 96 94 73 99 98 100 99 100 96 100 100 100 99 98 100 96 100 98 76 59 83 43 26 24 24 26 33 36 38 33

GFSMA_250_rhum_108.txt.gz
RH
98 100 100 100 100 93 80 62 57 90 100 89 63 56 68 90 100 100 100 100 74 63 46 39 40 49 52 52 51 38 28 26 28 41 38 32 23 20 22 27 41 31 54
100 100 100 100 100 100 98 74 54 69 87 90 71 69 75 90 100 100 100 89 81 60 47 41 53 55 60 50 42 44 43 30 33 34 44 33 25 25 26 26 30 40 42
100 100 100 100 100 99 100 100 96 87 98 100 100 100 100 100 100 100 100 100 82 52 49 44 62 70 62 57 46 46 55 38 36 44 44 36 38 32 28 27 36 35 48
100 100 100 100 99 97 100 100 100 100 100 100 100 100 100 100 100 95 100 100 100 69 58 54 69 75 65 59 54 54 51 44 50 56 48 46 47 37 34 29 26 32 75
100 100 100 100 100 100 100 100 100 100 100 100 100 100 100 100 100 100 100 100 89 84 63 61 87 78 86 86 83 78 53 62 61 70 61 54 42 42 37 29 28 34 75
100 100 100 100 100 100 100 100 100 100 100 100 100 100 100 100 100 100 100 100 100 85 72 75 82 84 91 100 91 86 62 60 65 87 65 60 46 48 40 33 29 31 46
100 100 100 100 100 100 100 100 100 100 100 100 100 100 100 100 100 100 81 73 55 83 70 90 99 100 100 87 87 83 64 69 77 86 80 63 49 37 36 31 28 37 57
100 100 100 100 100 100 100 100 100 100 100 100 100 85 100 100 94 72 61 78 74 68 71 61 86 87 78 99 100 99 87 77 83 78 80 68 51 43 38 33 36 45 91
100 100 100 99 100 100 100 100 100 100 100 99 100 100 100 100 100 67 55 54 55 74 74 82 93 70 94 99 100 100 90 97 91 87 87 73 39 48 43 36 41 56 95
92 100 98 100 100 100 100 100 100 98 99 95 90 100 97 78 64 61 46 43 54 55 54 69 67 74 69 85 99 94 88 78 92 64 65 44 61 57 46 38 39 55 76
100 100 100 100 100 100 100 100 100 100 100 94 84 87 62 83 80 62 47 54 48 54 71 78 88 86 85 90 65 76 75 100 48 43 57 65 48 54 45 52 67 43 99
100 100 100 100 97 98 99 88 84 87 98 99 81 81 92 74 76 82 78 66 59 54 64 63 63 69 66 78 89 100 100 86 70 62 54 46 44 59 62 64 87 95 99
100 92 100 100 98 100 88 100 100 100 100 100 100 97 97 99 99 98 89 88 88 74 68 66 70 79 85 100 100 84 70 72 81 78 75 59 54 51 59 82 83 100 100
100 100 100 91 75 76 70 79 100 100 100 100 100 99 100 100 100 100 100 100 85 99 83 73 68 81 83 65 87 84 89 94 72 64 59 63 57 68 60 58 100 100 100
100 100 100 100 99 100 100 100 100 100 100 100 100 100 100 100 100 100 100 100 100 100 100 99 93 76 72 84 98 100 73 69 58 63 64 64 82 96 97 100 100 100 100
100 100 100 100 100 100 100 100 100 100 98 100 100 100 96 97 94 100 100 99 100 100 100 100 97 70 73 100 100 100 96 64 56 64 85 97 83 97 94 100 100 100 98
100 100 100 100 100 100 100 96 85 85 90 94 87 97 79 89 89 95 92 100 100 98 100 96 98 98 100 100 99 87 65 86 58 97 99 100 96 95 100 93 100 100 100
100 100 100 100 100 100 100 100 100 94 100 100 100 96 74 99 100 96 100 100 100 100 98 100 100 100 99 87 76 64 56 100 49 100 86 94 77 94 99 100 100 93 76
100 100 100 100 100 100 100 100 100 100 100 100 99 90 100 100 100 100 100 100 100 100 100 98 82 80 69 65 74 72 62 100 99 94 98 98 77 100 100 100 100 77 90
100 100 100 100 100 98 100 100 100 100 100 100 100 95 92 95 100 88 88 83 93 76 84 88 79 88 77 78 70 79 100 84 99 100 100 100 100 89 93 88 59 82 100
100 100 100 100 100 100 100 100 100 96 96 100 100 100 91 100 96 100 99 100 100 95 80 92 74 87 93 100 100 100 100 100 100 100 100 84 97 84 96 82 96 73 93
100 100 100 100 100 100 100 100 100 100 100 100 100 100 100 100 100 100 100 100 100 100 100 100 100 100 100 100 96 100 100 93 100 100 100 100 83 100 96 94 96 100 99
100 100 100 100 100 100 100 100 100 100 100 100 100 100 100 100 100 100 100 100 100 100 100 100 100 100 81 100 100 100 97 100 100 100 94 97 100 98 99 96 100 91 65
100 100 100 100 100 100 100 100 100 100 100 100 100 100 100 100 100 100 100 100 100 100 100 100 100 100 94 100 100 100 96 91 100 100 99 100 100 100 99 95 94 54 40
99 100 100 100 93 95 94 88 98 93 88 82 76 90 94 99 94 100 100 100 100 100 100 100 100 100 100 100 100 100 100 100 87 82 81 76 72 93 87 82 59 47 29
100 98 98 94 90 85 77 71 70 66 64 72 75 76 63 63 63 25 42 53 70 72 68 67 76 89 78 80 69 66 59 81 81 86 67 42 93 78 57 54 50 37 36

GFSMA_250_rhum_111.txt.gz
RH
99 100 100 100 99 86 80 79 85 83 90 79 72 69 87 91 99 73 90 99 100 100 100 100 100 86 55 52 45 52 53 59 63 51 53 46 41 44 43 51 59 61 47
45 69 99 100 100 88 98 88 79 83 93 95 97 61 64 80 98 100 100 100 100 100 100 100 100 96 82 58 67 69 63 71 85 69 59 65 69 54 52 58 59 65 48
48 58 78 100 100 88 100 99 90 84 89 88 95 99 93 95 100 100 100 100 97 100 100 100 80 89 68 74 60 62 77 85 90 91 77 79 64 68 71 66 72 77 56
100 73 66 84 100 100 100 100 100 100 100 100 97 93 100 100 100 100 100 95 100 100 100 98 90 85 57 67 65 67 86 100 100 96 96 93 73 81 78 78 74 70 58
54 65 62 78 87 100 100 100 100 100 100 100 100 100 100 100 100 100 100 100 100 100 100 98 87 64 48 46 52 70 100 100 100 100 97 96 87 92 89 82 81 50 59
36 100 67 63 75 100 100 100 100 100 100 100 100 100 99 100 100 100 100 100 100 100 74 51 42 55 49 53 52 48 67 74 88 84 95 100 100 97 99 94 53 58 62
33 100 93 90 100 100 100 92 99 100 100 100 100 100 93 100 100 100 98 84 98 90 47 50 47 50 52 48 43 53 60 65 64 96 98 93 100 100 100 72 59 59 45
39 79 100 97 100 100 100 96 100 100 100 99 100 100 100 100 100 100 100 100 96 65 52 55 57 54 56 38 39 48 58 57 64 80 73 100 100 100 100 74 71 76 62
82 100 100 98 85 100 100 100 100 100 100 100 100 95 100 100 100 100 100 83 60 54 59 47 48 62 61 51 31 49 65 49 49 60 60 88 100 100 100 93 83 66 78
55 100 100 100 100 100 100 100 100 100 100 100 100 100 100 100 87 98 90 80 60 49 46 62 54 70 67 51 50 57 59 57 52 54 65 94 100 100 100 99 66 58 50
63 100 100 100 100 100 100 100 100 100 100 100 100 100 100 92 100 94 64 73 74 65 78 81 72 86 78 67 90 67 74 50 54 54 70 89 80 97 91 64 53 53 45
44 100 100 100 100 100 100 100 100 100 100 100 100 86 82 95 96 84 100 91 69 100 90 90 100 94 76 77 85 85 93 75 71 88 86 74 80 92 96 86 76 48 40
33 68 100 100 100 100 100 100 100 100 100 97 100 100 100 98 94 75 66 89 83 97 97 100 100 90 82 100 100 86 86 87 96 98 94 78 86 94 100 79 64 42 37
100 100 100 100 100 100 100 100 96 100 100 100 100 95 81 75 98 100 100 99 100 97 99 100 77 74 95 81 84 80 98 100 93 86 97 93 89 97 83 76 61 52 48
100 100 100 100 100 100 100 100 100 100 100 91 59 58 63 64 95 100 100 100 100 100 100 99 100 100 82 83 74 99 98 100 100 98 89 93 84 74 83 62 49 53 66
100 100 100 100 99 94 100 100 87 87 78 70 81 100 100 100 100 99 99 100 100 100 100 93 81 100 100 100 100 100 100 100 100 100 100 100 99 86 67 52 54 76 100
100 100 100 100 100 100 99 88 88 80 90 96 100 100 100 97 94 100 100 96 90 98 99 95 59 69 68 100 87 96 86 98 100 100 100 88 85 50 55 75 88 93 100
100 100 100 100 100 100 100 100 100 100 100 100 100 100 100 100 100 99 100 100 83 99 72 74 75 85 82 81 100 97 89 92 100 90 61 60 62 73 85 83 100 100 100
100 100 100 100 100 100 100 100 100 100 100 98 100 100 100 100 100 100 98 94 100 100 86 91 96 99 81 89 86 87 91 82 76 75 99 94 100 94 96 100 100 99 93
100 100 100 100 100 100 100 100 100 100 100 100 100 100 99 100 100 100 100 100 100 100 100 100 100 100 100 100 100 100 97 100 100 100 100 100 100 100 100 100 94 92 76
100 100 100 100 100 100 100 100 100 100 100 100 100 100 100 100 100 100 100 100 100 100 88 99 100 100 100 100 100 100 100 100 100 100 100 100 100 100 100 78 86 76 90
100 100 100 100 100 100 100 100 100 100 100 100 100 100 100 100 100 100 100 100 100 100 100 100 100 98 100 100 100 100 100 100 98 100 99 100 100 100 100 100 100 91 99
100 100 100 100 100 100 100 100 97 99 100 100 100 100 100 100 100 100 100 100 100 100 100 100 100 100 100 100 100 100 100 100 100 100 100 100 95 100 100 100 100 100 98
100 100 100 100 100 100 100 100 98 96 97 98 100 100 100 100 100 100 100 100 98 100 99 100 100 100 100 100 100 100 100 100 100 100 92 90 100 100 100 89 75 87 87
85 80 80 90 97 98 99 100 100 100 92 78 87 99 93 78 68 62 53 61 49 56 59 56 60 60 63 81 77 81 78 65 68 65 47 84 84 82 80 66 75 91 73
100 98 85 61 46 57 72 68 69 70 53 58 62 58 44 31 28 34 38 44 32 42 36 37 37 31 57 61 64 70 60 40 41 40 47 66 89 66 62 72 84 86 53

GFSMA_250_rhum_114.txt.gz
RH
25 36 47 75 89 97 94 99 94 100 90 81 75 74 80 81 84 84 64 68 77 100 100 100 100 96 100 100 94 79 72 56 56 58 57 81 91 100 89 90 100 89 85
26 24 26 30 43 68 70 90 100 100 100 100 91 76 71 71 87 87 88 86 100 100 100 100 90 100 100 100 100 84 67 48 48 62 87 81 85 98 100 100 100 96 100
37 52 47 46 60 63 72 100 100 86 97 100 100 97 97 86 91 100 100 97 100 100 100 100 100 100 100 84 77 48 52 44 55 57 61 80 95 88 100 93 85 100 100
36 24 28 38 58 73 87 74 76 87 93 97 98 98 92 100 100 100 100 100 100 100 95 99 100 95 96 83 46 38 56 57 66 65 60 50 79 83 94 90 87 100 100
20 19 36 33 46 70 75 89 94 68 90 92 100 100 100 100 100 100 100 93 100 98 100 100 100 75 50 51 45 45 75 60 53 43 40 45 55 67 72 75 69 96 100
24 22 23 39 36 73 93 90 100 93 82 89 100 100 100 100 100 100 100 100 95 100 100 76 50 74 58 58 81 75 59 48 45 32 28 29 37 44 50 53 70 72 96
27 26 27 39 40 61 100 88 98 100 100 100 85 100 100 100 100 100 100 100 100 100 100 88 68 64 68 63 67 53 44 44 48 37 30 34 54 50 47 55 55 68 100
28 22 24 32 30 29 86 100 100 100 100 100 100 100 100 100 100 100 100 100 92 84 70 72 90 67 73 62 49 39 43 45 57 53 35 39 61 66 40 55 61 62 97
32 32 28 31 38 33 34 99 100 100 100 100 100 100 100 100 93 90 100 100 100 86 81 75 71 97 71 65 45 49 45 63 80 61 43 51 59 63 58 60 61 57 70
26 33 29 26 39 34 32 97 100 100 100 100 100 100 100 100 100 100 100 100 97 74 66 71 100 96 74 68 54 46 52 78 78 67 80 73 74 68 69 66 88 98 88
25 35 31 26 38 36 32 94 100 100 100 100 100 100 100 100 100 100 100 94 84 83 92 100 100 95 80 91 68 80 96 66 65 83 94 94 82 75 65 79 92 75 82
28 27 32 36 36 30 59 94 100 100 100 100 100 100 100 100 97 100 97 93 100 100 100 100 99 99 98 97 100 88 100 100 100 86 79 91 85 70 82 87 85 92 72
22 22 28 30 28 36 93 94 100 100 100 100 100 100 87 91 96 87 100 100 100 100 100 98 86 74 83 88 98 100 82 92 85 94 93 61 73 85 90 94 88 91 97
22 22 21 24 39 43 95 100 100 100 100 100 100 100 100 100 100 100 100 100 100 100 88 79 60 59 78 70 62 47 88 100 77 74 78 79 94 93 100 94 100 100 100
16 20 29 37 45 43 45 98 100 100 100 100 100 100 100 100 100 100 100 100 100 94 75 77 81 81 100 87 88 100 87 78 62 62 82 94 100 100 100 85 84 97 65
40 37 41 38 41 43 45 57 100 100 100 100 100 100 100 100 100 100 100 96 88 85 100 100 100 88 93 100 86 80 76 79 66 86 99 100 79 71 83 70 62 71 74
72 58 89 100 99 93 96 100 100 100 100 100 100 100 100 100 100 100 98 90 100 100 100 100 100 100 92 91 66 96 99 96 91 76 67 69 89 97 76 97 80 80 75
88 100 100 100 100 100 100 100 100 100 100 100 100 99 91 83 80 85 98 82 68 100 79 100 96 100 100 100 97 84 98 75 69 98 80 99 88 68 80 88 85 82 100
100 100 100 100 100 100 100 100 100 100 100 100 100 98 97 95 99 100 100 100 100 100 100 100 100 100 96 96 96 96 81 96 97 100 100 94 87 100 100 100 100 100 100
100 100 100 100 100 100 100 100 100 100 100 100 100 100 100 100 100 98 97 95 92 88 85 98 100 100 100 100 100 100 100 100 100 100 100 100 98 100 100 100 100 100 99
100 100 100 100 100 100 100 100 100 100 100 100 100 100 99 100 100 100 100 100 100 100 100 100 100 100 100 100 100 100 100 100 100 100 100 100 100 100 100 100 100 100 100
100 100 100 100 100 100 100 100 100 100 100 100 100 100 100 100 100 100 100 100 99 100 100 100 100 100 100 100 100 100 100 100 100 100 100 100 100 100 100 100 100 100 100
100 100 100 100 100 100 100 100 100 100 100 100 100 100 100 100 100 100 100 100 98 96 96 90 97 97 98 95 98 100 100 100 100 100 100 100 100 100 100 98 100 94 100
100 94 92 85 85 88 98 96 92 86 91 100 100 100 100 97 89 78 82 86 83 70 60 57 52 49 49 53 54 61 64 72 90 84 96 100 100 92 72 73 69 64 80
98 82 92 98 96 98 83 78 66 45 49 56 63 62 55 52 46 42 39 42 36 41 45 39 36 39 42 36 36 40 58 63 50 52 62 68 59 61 79 72 77 85 78
85 66 53 52 54 56 54 52 51 53 52 54 55 52 51 51 48 45 32 31 29 29 30 27 23 21 22 35 29 32 38 38 42 43 44 48 48 55 57 66 59 80 70

GFSMA_250_rhum_117.txt.gz
RH
25 27 31 30 32 58 97 100 100 100 100 98 93 100 98 98 95 84 81 76 77 84 86 86 100 100 100 100 97 100 100 94 63 52 50 66 69 68 68 68 65 96 89
31 39 40 35 28 28 42 74 94 100 100 100 100 100 99 100 100 94 96 97 92 91 98 100 100 100 97 75 88 100 100 56 53 56 48 59 69 62 51 43 42 50 68
34 39 39 36 33 31 38 43 45 48 52 61 81 100 100 100 100 100 98 94 92 100 100 100 86 94 100 98 81 94 49 54 62 85 78 46 44 37 28 31 32 31 36
34 38 40 33 37 42 44 40 26 39 84 89 86 87 100 100 100 100 100 92 100 100 100 100 100 100 82 76 57 45 68 71 81 69 55 41 39 33 31 24 28 28 30
36 39 42 36 34 26 35 42 35 49 62 78 100 100 100 100 100 100 100 100 100 100 100 100 85 84 100 100 87 54 70 76 68 58 54 41 43 34 31 30 26 38 42
30 31 30 33 37 28 30 39 38 37 92 82 100 100 100 100 100 100 100 100 100 100 100 100 98 95 74 55 54 76 83 77 63 55 50 40 44 46 32 37 34 33 61
26 23 23 32 37 32 31 36 37 48 89 100 100 100 100 100 100 100 100 100 100 100 100 100 100 83 86 54 60 86 80 68 66 54 46 53 43 50 39 36 35 47 66
21 20 23 32 36 28 32 40 39 38 56 100 100 100 99 93 100 100 100 100 100 100 100 100 100 84 61 73 74 84 87 83 67 57 48 50 40 45 56 66 69 89 68
25 30 34 38 37 36 48 46 45 37 36 44 71 100 100 100 100 100 100 100 100 100 100 100 95 95 52 83 93 89 100 98 84 81 65 54 59 49 49 65 75 57 57
24 28 28 33 40 41 40 49 43 43 43 49 50 85 100 100 100 100 100 100 100 100 100 100 86 96 100 100 99 83 100 100 99 80 91 96 74 82 81 100 100 85 77
32 33 28 34 40 39 38 42 48 45 46 45 47 53 83 100 100 100 100 100 100 100 100 95 100 100 100 100 97 100 100 100 100 100 96 98 100 100 100 77 64 74 60
30 34 40 39 40 42 40 42 42 40 42 40 44 51 100 100 100 100 100 100 100 100 100 100 100 100 100 100 100 100 100 100 100 93 100 95 88 62 74 67 51 54 51
38 44 44 39 38 44 46 46 50 53 34 37 48 95 100 100 100 100 100 99 100 100 100 100 100 100 95 100 100 100 100 100 100 96 100 67 69 76 46 61 82 54 44
30 27 28 29 37 42 42 38 40 30 36 34 59 87 100 100 100 100 100 100 100 100 100 100 100 100 100 100 100 100 100 100 89 90 99 71 57 52 51 42 65 76 100
36 41 46 46 40 28 23 24 27 27 30 50 94 100 100 100 100 100 100 100 100 100 100 100 100 100 100 100 100 100 100 87 73 82 84 74 87 85 87 100 99 100 73
35 32 27 20 18 22 22 22 23 32 47 63 100 100 100 100 100 100 100 100 100 100 100 100 100 100 100 100 100 99 98 99 100 100 97 71 62 83 100 98 95 81 83
13 14 16 18 20 22 25 31 42 56 63 74 100 100 100 100 100 100 100 100 100 100 96 96 100 100 93 96 97 100 97 100 96 78 59 61 92 98 93 61 63 76 57
14 16 20 27 41 55 78 93 91 76 76 73 78 100 100 100 100 100 100 100 100 100 100 100 100 96 93 90 82 75 89 80 94 98 100 100 97 61 51 69 64 81 71
36 48 65 91 91 100 100 100 100 100 100 100 100 100 100 100 100 100 100 100 95 95 93 82 75 70 58 53 56 74 100 100 100 97 68 58 82 85 95 98 100 99 100
78 100 100 100 100 100 100 100 100 100 100 100 100 100 100 100 100 94 93 96 89 80 84 77 80 83 88 78 91 92 87 78 81 92 100 100 100 100 100 100 100 100 100
86 98 100 100 100 100 100 100 100 100 100 100 100 100 100 100 100 100 100 100 100 99 99 98 100 100 100 100 100 100 100 100 95 100 100 100 100 100 100 100 100 100 100
100 100 100 100 100 100 100 100 100 100 100 100 100 100 100 100 100 100 100 96 100 100 100 100 100 100 100 100 100 96 89 82 73 81 78 92 94 95 100 100 100 100 100
90 100 100 100 100 100 100 100 100 100 100 98 98 98 100 100 96 89 78 72 75 63 59 42 40 47 44 41 44 43 38 37 40 46 56 57 52 47 54 92 100 100 100
100 97 99 97 100 100 99 95 98 83 64 65 57 63 51 50 48 48 47 49 52 50 52 48 43 42 41 45 40 36 35 34 37 48 47 54 50 47 44 48 51 59 53
80 70 66 72 69 57 64 68 79 60 53 53 52 53 55 58 58 62 65 65 63 60 56 50 46 45 40 36 31 27 18 19 30 25 32 28 38 45 42 43 45 51 56
99 94 97 97 84 53 54 55 58 60 65 68 67 68 62 58 63 66 66 55 46 38 34 32 22 17 14 11 9 7 8 8 7 8 10 15 26 32 32 45 46 51 60

GFSMA_250_rhum_120.txt.gz
RH
75 40 37 44 53 45 40 33 34 44 69 99 100 100 100 100 100 83 93 98 98 97 100 100 96 90 96 100 100 90 85 92 96 69 54 50 63 68 65 48 40 33 34
90 81 66 41 27 31 35 34 34 33 41 69 100 100 100 100 100 100 100 98 93 99 100 100 100 96 97 100 98 100 100 90 90 77 49 62 70 65 52 44 36 32 31
80 89 69 50 37 37 34 34 38 36 31 34 48 62 76 99 100 100 97 100 100 100 100 100 95 100 100 100 100 100 87 62 64 40 49 64 72 59 55 45 42 36 31
60 69 74 53 38 42 48 44 46 40 39 44 46 45 43 54 77 100 100 100 100 100 100 100 100 100 100 100 100 100 68 55 53 48 52 63 73 64 53 45 42 40 36
50 41 46 43 41 49 44 42 45 40 41 42 46 46 55 57 84 100 100 100 100 100 100 100 100 100 100 80 100 100 100 73 60 49 62 65 71 74 57 43 42 45 47
28 32 36 42 40 41 43 40 38 46 44 42 45 46 74 100 92 100 100 100 100 100 100 100 100 100 100 100 100 100 100 100 76 50 68 80 78 74 48 44 39 45 39
28 34 33 36 41 43 44 39 34 36 42 41 41 48 48 78 100 100 93 100 92 82 100 100 100 100 100 100 100 100 100 77 71 58 82 100 96 98 57 52 55 51 51
23 28 32 36 41 40 41 41 28 26 34 44 50 44 53 47 74 99 97 100 100 94 100 100 100 100 100 100 100 100 98 88 83 71 100 100 99 100 77 60 71 74 74
17 22 23 24 27 30 28 27 26 31 38 45 49 46 58 48 54 67 95 100 100 100 100 100 100 100 93 92 100 100 100 75 92 98 100 100 93 97 93 98 97 88 80
20 21 21 22 24 22 24 26 30 32 39 47 52 50 52 53 55 54 54 59 100 100 100 100 100 100 100 100 100 100 82 86 100 100 100 100 95 98 100 92 100 90 96
23 21 20 22 23 23 25 27 33 42 41 42 42 50 53 54 52 43 47 54 67 100 100 100 100 100 100 100 93 100 100 100 100 100 100 100 100 100 100 96 93 96 96
26 28 26 26 25 25 30 39 43 45 46 45 51 56 56 55 52 51 55 50 72 99 100 100 100 100 100 100 100 92 95 100 100 100 100 93 100 100 100 100 100 98 94
22 32 34 34 26 25 30 42 43 41 46 53 55 52 51 60 50 50 54 52 59 100 100 100 100 100 100 100 100 100 100 100 100 100 99 100 99 99 95 100 100 95 81
22 32 41 37 27 28 30 40 49 49 54 52 53 45 52 50 40 40 45 55 72 75 100 100 100 100 100 100 99 100 100 100 100 98 85 95 92 92 81 100 99 79 87
19 24 35 37 37 43 38 42 50 52 50 52 53 57 52 33 53 62 69 67 93 100 100 100 100 100 100 100 100 100 100 98 100 91 100 97 86 98 100 94 89 80 66
22 26 26 36 43 53 51 52 48 50 57 54 43 24 27 40 50 47 63 87 94 100 100 100 100 100 100 100 100 100 100 100 97 100 100 100 90 87 90 91 86 70 86
15 23 28 44 56 58 56 58 53 52 39 20 24 35 41 44 77 91 96 100 100 100 100 100 100 100 100 100 100 100 100 100 100 100 100 100 100 95 84 73 59 49 59
12 15 24 36 47 52 55 51 31 18 23 39 60 77 93 100 100 100 100 100 100 100 100 100 100 99 100 100 100 100 100 100 97 100 90 87 89 95 78 60 68 85 91
19 23 23 24 20 17 18 21 31 55 72 97 100 100 100 100 100 100 100 100 99 99 98 87 85 88 86 76 68 76 62 49 62 57 54 58 56 62 84 100 100 100 100
15 16 18 25 40 52 72 98 100 100 100 100 100 100 100 100 100 100 100 100 100 98 97 100 96 94 94 93 96 100 100 100 100 100 100 100 100 100 100 100 100 100 100
60 57 71 79 78 88 100 99 100 100 100 100 99 100 100 100 100 100 100 100 100 94 82 78 90 95 100 100 100 100 84 60 54 57 58 52 47 48 43 42 46 45 47
97 100 100 100 100 100 100 100 100 100 100 100 100 100 100 100 100 100 100 100 100 100 73 66 64 65 56 47 47 44 47 52 58 50 50 45 52 50 42 37 48 52 56
100 100 100 100 100 100 100 100 100 99 100 100 100 100 100 92 89 94 79 68 53 48 43 43 50 59 54 57 57 51 54 60 58 55 57 54 44 49 46 37 44 53 52
100 98 100 100 92 93 95 98 99 87 93 73 66 60 61 58 53 53 52 48 50 59 64 54 52 57 55 52 49 39 35 32 32 30 26 30 24 28 23 19 19 36 40
99 87 97 100 100 92 92 96 88 72 62 67 55 52 53 53 52 56 65 71 62 54 52 51 50 50 47 43 39 30 27 21 17 13 9 8 6 8 8 9 11 13 27
81 91 87 89 95 93 87 70 51 52 53 56 57 56 56 64 70 68 65 65 53 44 41 47 54 45 39 30 19 16 11 6 4 4 5 5 7 8 8 9 12 10 10

GFSMA_250_rhum_123.txt.gz
RH
100 73 76 84 76 79 78 65 52 46 46 45 43 46 76 100 85 86 100 100 100 100 100 100 98 96 85 100 100 100 94 100 100 100 98 77 66 55 44 47 60 68 56
100 89 91 77 70 76 87 88 44 33 34 33 36 33 35 38 59 100 100 100 100 100 100 89 98 100 100 100 100 100 98 100 100 100 100 86 61 73 55 53 68 77 58
100 92 85 89 80 84 100 90 75 48 35 37 37 36 36 37 41 43 46 59 80 100 100 100 80 79 89 100 100 100 100 100 100 90 82 72 70 71 63 52 59 70 72
100 100 96 100 97 80 86 96 78 47 48 48 42 38 40 46 44 47 44 54 45 45 70 96 100 100 100 99 77 87 100 100 100 100 100 100 86 75 73 58 52 77 78
78 99 100 100 100 95 89 66 76 56 51 51 44 43 41 42 42 40 42 62 73 80 96 100 100 100 100 100 100 100 100 100 100 100 100 100 90 74 77 66 61 68 98
51 62 67 69 58 88 98 62 46 49 51 58 54 47 41 40 42 48 45 44 52 67 70 81 100 100 100 85 90 100 100 100 100 100 100 100 74 82 63 66 69 82 100
25 33 45 36 37 47 71 58 45 46 50 52 54 51 46 41 36 44 47 57 52 56 56 74 98 100 100 77 91 96 100 100 100 100 100 100 100 86 80 59 76 100 100
16 20 31 27 26 38 41 39 41 40 44 50 49 50 50 42 35 38 43 53 61 59 55 62 56 63 91 96 81 99 80 96 88 100 93 99 97 98 75 70 77 100 100
13 17 19 20 19 23 28 35 32 34 32 35 40 38 36 32 33 46 50 55 58 55 55 63 66 61 74 80 100 94 100 100 100 100 100 100 98 97 95 100 94 83 86
14 17 17 14 18 20 26 33 32 33 32 32 28 31 28 28 33 42 48 56 58 56 62 62 66 65 64 69 91 100 100 100 100 100 100 100 100 99 81 98 96 99 100
8 12 16 18 16 18 21 27 30 29 28 30 30 31 32 33 40 36 44 55 56 64 64 69 64 60 65 70 81 100 100 100 100 100 100 100 100 100 100 100 100 100 100
7 9 12 15 20 21 21 22 28 31 28 27 32 33 37 35 41 44 50 56 56 56 56 55 52 62 61 74 95 100 100 100 100 100 100 100 98 100 73 100 100 100 99
7 8 10 12 17 26 28 31 35 34 31 29 31 34 38 38 41 52 49 51 54 55 47 50 59 50 56 70 92 100 100 100 100 100 100 100 100 100 100 93 100 100 100
5 6 8 12 17 21 31 32 40 44 44 45 53 48 38 43 47 57 59 57 54 46 52 50 50 58 70 95 98 100 100 100 100 100 100 100 92 98 100 98 92 100 100
4 6 7 10 16 21 27 38 39 44 51 52 57 62 44 52 56 55 52 45 45 54 42 32 47 59 76 96 100 100 100 100 100 100 100 100 100 100 100 100 100 100 100
5 6 6 10 16 21 28 36 41 44 52 55 60 67 60 64 71 66 60 52 49 22 38 51 67 90 100 100 97 100 100 100 100 100 100 100 100 99 93 97 97 96 92
5 6 7 8 14 23 29 34 39 45 50 59 65 80 81 77 74 60 52 34 30 46 82 100 100 100 100 100 100 100 100 97 100 100 98 92 91 87 82 83 85 76 85
6 7 8 8 9 10 16 22 32 39 51 54 65 64 71 62 51 42 39 48 77 87 78 99 100 100 100 100 100 100 100 100 87 74 62 53 53 66 68 67 74 83 94
8 8 9 9 10 11 14 18 24 30 33 35 42 42 45 40 44 57 84 100 100 100 100 97 97 100 100 100 99 87 84 100 87 78 80 93 89 98 95 86 69 60 60
10 11 14 15 17 19 20 22 24 28 31 32 37 46 71 88 99 94 94 100 100 100 100 100 100 100 100 100 100 91 78 91 86 87 69 52 46 45 52 62 51 58 55
17 20 24 31 28 29 30 36 42 50 68 71 97 97 99 100 100 100 100 100 100 100 100 100 100 100 99 96 100 100 90 54 45 46 50 49 58 58 57 58 52 55 56
65 59 53 63 61 62 64 78 85 95 100 100 100 100 100 100 100 100 100 100 100 100 100 100 99 83 97 51 49 45 47 46 46 48 44 47 43 43 40 36 37 38 42
100 100 99 95 100 100 100 100 100 100 100 100 100 100 100 100 100 100 100 100 100 100 100 90 58 49 50 50 50 53 55 49 48 43 39 40 42 33 27 26 27 22 34
100 100 100 100 100 100 100 100 100 100 100 100 100 100 100 83 76 65 64 69 62 46 46 50 46 45 44 49 52 52 54 52 47 43 43 28 25 21 18 16 17 14 14
100 100 100 100 100 100 100 99 97 100 100 98 80 64 70 66 58 55 48 48 48 50 52 51 54 58 58 54 58 60 56 46 39 38 40 22 15 12 12 9 6 4 8
84 93 80 90 95 82 77 72 72 70 66 61 59 54 61 54 47 47 47 47 46 50 54 57 64 60 55 58 61 53 50 40 34 30 16 9 8 7 4 6 4 4 6

GFSMA_250_rhum_126.txt.gz
RH
62 96 100 100 77 80 100 100 99 90 80 64 56 49 45 45 45 50 55 50 46 72 77 79 89 82 93 100 100 97 92 93 68 97 100 100 100 100 100 97 91 85 80
35 65 92 100 98 79 98 96 100 94 96 91 50 38 35 34 34 39 40 38 36 40 44 46 51 63 67 84 83 96 91 92 77 85 86 97 100 100 100 100 96 83 87
37 34 72 91 100 93 100 96 100 100 95 90 78 53 43 37 39 39 39 41 41 42 46 44 58 50 46 47 65 100 100 100 100 100 100 100 100 100 100 100 98 84 72
36 32 33 59 84 100 86 100 100 100 100 87 96 81 48 40 42 44 45 45 43 36 32 34 55 70 52 42 74 97 100 100 100 99 100 100 100 100 100 100 98 77 77
34 32 33 30 62 88 98 87 96 84 95 91 86 73 73 60 46 48 56 53 46 44 38 34 42 48 55 70 90 75 85 83 84 85 78 78 72 98 100 100 100 100 84
29 32 31 34 32 68 81 99 100 100 99 97 100 90 64 54 55 57 52 55 53 50 44 41 42 51 53 53 82 75 63 59 62 57 61 71 65 98 96 100 100 99 100
22 28 32 29 25 30 63 79 93 100 100 93 91 96 88 56 52 53 55 57 56 50 45 39 41 49 58 55 55 62 54 62 65 78 82 91 86 82 92 100 100 100 100
18 22 27 34 40 28 27 33 73 81 70 64 48 53 73 54 50 48 47 45 52 50 41 37 42 50 58 63 63 60 59 58 60 58 65 66 92 96 100 84 99 100 100
13 11 15 21 33 37 28 26 28 52 56 46 37 40 48 44 43 46 43 42 41 36 36 35 39 42 47 54 74 80 69 63 60 54 61 68 100 100 100 100 100 100 100
9 9 10 12 18 24 26 25 24 26 28 34 28 31 35 37 40 36 41 43 36 36 35 38 39 43 49 60 65 67 62 64 66 64 75 89 100 100 100 100 100 100 100
6 6 8 8 9 13 18 25 28 20 21 27 28 27 27 28 26 27 28 33 34 35 36 35 40 51 53 59 55 55 60 50 63 63 91 96 100 100 100 100 100 100 100
4 5 5 6 7 9 12 14 19 24 23 22 22 24 26 29 28 30 31 29 31 33 33 39 42 42 54 60 63 61 60 54 59 58 77 90 97 100 100 100 100 100 100
3 4 4 4 6 7 8 11 16 21 24 25 25 29 35 37 32 34 41 42 42 48 52 44 39 46 51 52 60 55 56 49 41 45 82 100 100 100 100 100 100 100 100
3 3 3 4 4 5 6 10 15 22 27 29 28 33 40 41 45 49 51 52 56 57 64 67 63 59 59 67 60 59 43 46 63 98 100 100 100 100 100 100 100 100 100
3 3 4 4 5 5 5 6 8 13 20 28 31 34 37 47 52 50 50 53 55 62 71 78 76 76 69 72 56 40 48 78 93 100 100 100 100 100 100 100 100 100 100
3 3 4 4 4 5 6 6 6 9 14 23 32 35 41 41 44 51 56 54 62 75 78 72 75 74 67 48 38 43 63 75 84 92 91 87 89 90 82 79 80 83 90
3 3 4 4 4 5 5 6 7 8 9 10 14 28 44 50 53 60 59 64 67 76 72 73 62 51 57 56 83 87 71 67 77 83 95 98 95 97 87 92 92 85 94
4 4 4 5 5 6 6 7 7 8 9 10 14 20 31 43 51 52 51 56 59 63 55 48 57 58 78 81 70 76 92 100 100 100 100 100 100 100 100 100 100 100 91
6 6 6 6 7 7 8 9 9 10 10 11 14 18 24 30 34 41 46 46 50 42 46 63 81 89 78 86 100 100 100 100 100 100 100 100 100 100 100 95 61 45 48
7 7 8 8 8 9 10 10 10 11 12 13 14 16 23 28 36 48 70 80 72 77 75 63 67 95 99 100 100 100 100 100 100 100 100 100 91 67 47 46 46 49 54
11 12 13 11 11 13 16 20 20 20 25 35 37 44 53 66 78 90 81 84 98 97 100 100 100 100 100 100 100 100 100 100 100 100 100 70 51 48 44 45 53 56 61
56 46 43 40 43 35 38 36 66 56 64 70 78 100 100 100 97 100 100 100 100 100 100 100 100 100 100 100 100 100 99 83 90 49 50 47 49 52 54 59 58 61 62
87 100 100 90 95 94 99 100 100 100 100 99 100 99 100 100 100 100 100 100 100 100 100 100 100 100 92 88 91 68 50 44 50 47 45 48 55 60 63 61 58 58 48
100 100 100 100 100 100 100 100 100 100 100 100 100 100 100 100 100 100 100 100 100 100 100 94 88 70 54 50 50 49 46 43 40 43 50 48 49 55 62 62 56 38 24
100 100 100 100 100 100 100 100 100 100 100 100 100 100 100 100 100 100 100 100 100 69 67 72 54 47 43 43 41 38 38 41 51 57 57 44 57 66 58 49 35 16 9
100 100 100 100 100 100 100 100 100 100 100 100 100 98 91 83 82 84 75 67 82 61 52 50 44 46 43 42 39 40 41 48 54 60 54 54 62 53 44 39 15 8 7

GFSMA_250_rhum_129.txt.gz
RH
56 93 82 87 61 60 91 100 100 90 100 100 98 87 81 72 61 55 50 45 43 40 39 42 42 37 44 44 46 56 50 49 48 61 81 92 100 100 90 73 91 100 100
64 83 94 76 73 64 46 79 100 96 99 100 100 99 96 58 38 35 36 37 38 40 40 40 37 40 41 39 36 54 70 54 38 48 77 100 100 94 83 73 76 89 100
35 59 68 64 66 67 61 54 76 84 91 100 100 100 100 84 53 46 45 45 46 44 48 48 48 46 42 36 29 36 41 50 57 64 73 71 61 63 70 66 62 78 73
30 31 34 34 39 51 58 59 53 82 83 93 95 99 97 100 77 79 86 72 58 46 49 48 52 53 49 46 42 31 37 46 57 85 97 89 100 96 63 61 68 62 66
28 27 28 29 29 32 48 61 59 48 72 80 82 91 91 91 90 88 85 68 58 52 48 49 51 54 57 50 45 38 37 48 52 56 54 54 53 56 62 59 55 63 69
25 29 28 29 30 32 31 40 54 68 49 46 82 72 80 96 90 97 97 90 83 70 55 56 56 54 51 53 47 40 39 40 54 62 62 63 58 61 65 71 72 100 100
27 30 31 32 37 41 42 36 44 49 56 55 39 75 97 100 100 100 94 91 88 91 72 56 58 54 47 44 39 37 39 44 45 49 56 55 59 61 58 60 60 61 79
20 19 25 26 27 31 30 30 34 43 47 44 41 36 56 84 89 99 98 80 63 51 69 54 55 53 47 44 37 37 36 42 45 46 52 68 66 63 63 62 55 66 75
13 14 13 15 14 15 25 23 26 24 28 37 43 46 35 43 67 77 78 67 61 44 48 49 48 47 42 43 40 41 41 38 43 54 56 60 64 65 72 71 66 71 99
8 8 8 10 11 13 13 12 14 17 22 28 33 45 51 39 30 42 60 61 53 39 37 42 40 41 36 38 38 42 42 36 41 44 55 61 65 64 58 67 70 77 91
4 4 4 6 8 11 10 12 11 12 16 23 26 29 39 40 30 28 34 39 40 43 37 32 32 33 35 35 40 38 40 51 46 42 50 63 66 67 66 68 51 58 100
5 5 5 6 7 6 6 7 8 10 10 14 29 27 29 42 43 29 28 31 34 41 38 45 42 36 40 46 48 48 56 61 65 68 69 64 62 66 67 44 51 81 100
4 5 5 6 6 5 6 5 6 6 8 10 12 16 22 25 33 40 37 32 34 44 45 44 41 45 48 58 56 59 61 61 64 68 70 67 65 58 44 54 87 100 100
4 4 4 5 5 6 6 6 6 6 6 6 7 8 9 12 24 28 29 29 44 53 50 50 57 56 57 58 58 60 60 64 71 70 64 55 42 35 67 94 100 98 100
4 4 4 4 5 6 6 6 7 6 6 7 7 7 8 10 13 20 26 33 48 62 65 56 60 72 66 64 65 66 70 69 65 60 51 40 62 83 89 92 90 77 67
4 4 5 4 5 5 6 7 7 7 7 7 8 8 8 9 9 12 21 31 39 42 62 66 58 67 68 66 68 70 72 60 60 51 54 66 91 78 68 67 84 100 100
3 3 3 3 4 4 5 5 5 5 6 7 8 10 10 9 10 10 11 15 24 33 48 47 43 55 61 66 66 65 62 55 57 74 82 80 68 87 100 100 100 100 100
4 4 4 4 5 5 5 5 6 6 8 9 10 12 9 11 11 12 12 14 14 15 19 27 35 46 56 57 67 70 61 66 64 71 71 100 100 100 100 100 100 100 100
5 5 5 5 6 6 7 8 8 8 9 11 12 13 14 14 14 15 14 14 17 20 28 37 50 57 63 72 66 68 71 80 70 100 100 100 100 100 100 100 100 100 100
7 7 8 8 8 8 10 10 11 11 13 14 14 17 16 16 17 17 23 31 47 58 64 64 74 87 86 86 94 99 100 100 100 100 100 100 100 100 100 100 100 92 87
11 12 14 14 13 13 14 13 18 18 29 36 32 40 50 58 62 73 80 83 100 100 100 100 100 100 96 99 100 100 100 100 100 100 100 100 100 100 90 81 64 53 54
46 43 48 58 38 44 31 41 69 71 100 77 100 78 76 70 83 99 100 89 100 100 100 100 100 100 100 100 100 100 100 100 100 100 100 100 100 59 56 55 53 50 46
67 70 90 93 87 94 95 84 76 76 100 100 100 92 94 100 100 100 100 100 100 100 100 100 100 99 100 100 100 100 100 97 89 94 91 86 70 54 55 52 46 44 43
81 78 100 80 93 100 100 100 100 100 99 98 100 100 100 100 100 100 100 100 100 100 100 100 100 100 92 83 91 98 98 99 95 65 53 54 52 50 46 43 43 45 47
89 99 96 100 100 100 100 100 100 100 100 100 100 100 100 100 100 100 100 100 100 100 100 100 97 98 87 79 74 70 75 73 87 60 44 46 46 43 40 41 39 41 46
74 86 85 91 80 98 100 97 98 100 100 100 100 100 100 100 100 99 99 100 100 100 92 87 78 72 60 54 45 44 43 42 43 46 44 44 41 38 44 46 48 40 38